Long, Charles (2015): Basic measurements of radiation at station Kwajalein (2013-09) [dataset]. Climate Monitoring & Diagnostics Laboratory, Boulder, PANGAEA, https://doi.org/10.1594/PANGAEA.848250
Always quote citation above when using data! You can download the citation in several formats below.
Published: 2015-07-17 • DOI registered: 2015-08-14
Other version:
Long, Charles (2015): BSRN Station-to-archive file for station Kwajalein (2013-09). ftp://ftp.bsrn.awi.de/kwa/kwa0913.dat.gz
Project(s):
Coverage:
Latitude: 8.720000 * Longitude: 167.731000
Date/Time Start: 2013-09-06T14:39:00 * Date/Time End: 2013-09-30T23:59:00
Minimum HEIGHT above ground: 2 m * Maximum HEIGHT above ground: 2 m
Event(s):
KWA (Kwajalein) * Latitude: 8.720000 * Longitude: 167.731000 * Date/Time: 1992-03-01T00:00:00 * Elevation: 10.0 m * Location: North Pacific Ocean * Method/Device: Monitoring station (MONS) * Comment: BSRN station no: 25; Surface type: water, ocean; Topography type: flat, rural; Horizon: doi:10.1594/PANGAEA.669518; Station scientist: Laura Riihimaki (laura.riihimaki@noaa.gov)
Parameter(s):
| # | Name | Short Name | Unit | Principal Investigator | Method/Device | Comment |
|---|---|---|---|---|---|---|
| 1 | DATE/TIME | Date/Time | Long, Charles | Geocode | ||
| 2 | HEIGHT above ground | Height | m | Long, Charles | Geocode | |
| 3 | Short-wave downward (GLOBAL) radiation | SWD | W/m2 | Long, Charles | Eppley, Model 2, SN 10814, WRMC No. 25032 | |
| 4 | Short-wave downward (GLOBAL) radiation, standard deviation | SWD std dev | W/m2 | Long, Charles | Eppley, Model 2, SN 10814, WRMC No. 25032 | |
| 5 | Direct radiation | DIR | W/m2 | Long, Charles | Pyrheliometer, Eppley, NIP | |
| 6 | Direct radiation, standard deviation | DIR std dev | W/m2 | Long, Charles | Pyrheliometer, Eppley, NIP | |
| 7 | Long-wave downward radiation | LWD | W/m2 | Long, Charles | Pyrgeometer, Eppley, PIR, SN 23216, WRMC No. 26003 | |
| 8 | Long-wave downward radiation, standard deviation | LWD std dev | W/m2 | Long, Charles | Pyrgeometer, Eppley, PIR, SN 23216, WRMC No. 26003 | |
| 9 | Air temperature at 2 m height | T2 | °C | Long, Charles | Thermometer | |
| 10 | Humidity, relative | RH | % | Long, Charles | Hygrometer (HYGRO) | |
| 11 | Station pressure | PoPoPoPo | hPa | Long, Charles | Barometer (BARO) |
License:
Size:
311689 data points
Data
| 1 Date/Time | 2 Height [m] | 3 SWD [W/m2] | 4 SWD std dev [W/m2] | 5 DIR [W/m2] | 6 DIR std dev [W/m2] | 7 LWD [W/m2] | 8 LWD std dev [W/m2] | 9 T2 [°C] | 10 RH [%] | 11 PoPoPoPo [hPa] |
|---|---|---|---|---|---|---|---|---|---|---|
| 2013-09-06T14:39 | 2 | 27.1 | 78.7 | 1008.0 | ||||||
| 2013-09-06T14:40 | 2 | 0 | 0.0 | 0 | 0.0 | 428 | 0.1 | 27.1 | 78.5 | 1008.0 |
| 2013-09-06T14:41 | 2 | 0 | 0.0 | 0 | 0.0 | 428 | 0.3 | 27.0 | 78.5 | 1008.0 |
| 2013-09-06T14:42 | 2 | 0 | 0.0 | 0 | 0.0 | 428 | 0.2 | 27.0 | 78.7 | 1008.0 |
| 2013-09-06T14:43 | 2 | 0 | 0.0 | 0 | 0.0 | 429 | 0.2 | 27.0 | 78.9 | 1008.0 |
| 2013-09-06T14:44 | 2 | 0 | 0.0 | 0 | 0.0 | 429 | 0.2 | 27.0 | 78.7 | 1008.0 |
| 2013-09-06T14:45 | 2 | 0 | 0.0 | 0 | 0.0 | 428 | 0.3 | 26.9 | 78.6 | 1008.0 |
| 2013-09-06T14:46 | 2 | 0 | 0.0 | 0 | 0.0 | 428 | 0.3 | 26.9 | 78.6 | 1008.0 |
| 2013-09-06T14:47 | 2 | 0 | 0.0 | 0 | 0.0 | 427 | 0.2 | 27.0 | 78.5 | 1008.0 |
| 2013-09-06T14:48 | 2 | 0 | 0.0 | 0 | 0.0 | 426 | 0.3 | 26.9 | 78.6 | 1008.0 |
| 2013-09-06T14:49 | 2 | 0 | 0.0 | 0 | 0.0 | 426 | 0.1 | 27.0 | 78.5 | 1008.0 |
| 2013-09-06T14:50 | 2 | 0 | 0.0 | 0 | 0.0 | 426 | 0.1 | 27.0 | 78.3 | 1008.0 |
| 2013-09-06T14:51 | 2 | 0 | 0.0 | 0 | 0.0 | 427 | 0.3 | 27.0 | 78.3 | 1008.0 |
| 2013-09-06T14:52 | 2 | 0 | 0.0 | 0 | 0.0 | 427 | 0.2 | 27.0 | 78.4 | 1008.0 |
| 2013-09-06T14:53 | 2 | 0 | 0.0 | 0 | 0.0 | 428 | 0.2 | 27.1 | 78.3 | 1008.0 |
| 2013-09-06T14:54 | 2 | 0 | 0.0 | 0 | 0.0 | 428 | 0.3 | 27.1 | 78.2 | 1008.0 |
| 2013-09-06T14:55 | 2 | 0 | 0.0 | 0 | 0.0 | 429 | 0.2 | 27.1 | 78.2 | 1008.0 |
| 2013-09-06T14:56 | 2 | 0 | 0.0 | 0 | 0.0 | 430 | 0.3 | 27.1 | 78.3 | 1008.0 |
| 2013-09-06T14:57 | 2 | 0 | 0.0 | 0 | 0.0 | 430 | 0.2 | 27.1 | 78.2 | 1008.0 |
| 2013-09-06T14:58 | 2 | 0 | 0.0 | 0 | 0.0 | 430 | 0.1 | 27.1 | 78.2 | 1008.0 |
| 2013-09-06T14:59 | 2 | 0 | 0.0 | 0 | 0.0 | 430 | 0.2 | 27.0 | 78.0 | 1008.0 |
| 2013-09-06T15:00 | 2 | 0 | 0.0 | 0 | 0.0 | 430 | 0.2 | 27.0 | 78.1 | 1008.0 |
| 2013-09-06T15:01 | 2 | 0 | 0.0 | 0 | 0.0 | 429 | 0.1 | 27.0 | 78.2 | 1008.0 |
| 2013-09-06T15:02 | 2 | 0 | 0.0 | 0 | 0.0 | 430 | 0.2 | 27.0 | 78.0 | 1008.0 |
| 2013-09-06T15:03 | 2 | 0 | 0.0 | 0 | 0.0 | 430 | 0.3 | 27.0 | 77.9 | 1008.0 |
| 2013-09-06T15:04 | 2 | 0 | 0.0 | 0 | 0.0 | 431 | 0.2 | 27.0 | 77.9 | 1008.0 |
| 2013-09-06T15:05 | 2 | 0 | 0.0 | 0 | 0.0 | 432 | 0.3 | 27.0 | 77.9 | 1008.0 |
| 2013-09-06T15:06 | 2 | 0 | 0.0 | 0 | 0.0 | 432 | 0.3 | 27.1 | 77.8 | 1008.0 |
| 2013-09-06T15:07 | 2 | 0 | 0.0 | 0 | 0.0 | 432 | 0.2 | 27.1 | 77.6 | 1008.0 |
| 2013-09-06T15:08 | 2 | 0 | 0.0 | 0 | 0.0 | 431 | 0.2 | 27.1 | 77.6 | 1008.0 |
| 2013-09-06T15:09 | 2 | 0 | 0.0 | 0 | 0.0 | 431 | 0.2 | 27.1 | 77.3 | 1008.0 |
| 2013-09-06T15:10 | 2 | 0 | 0.0 | 0 | 0.0 | 431 | 0.2 | 27.1 | 77.3 | 1008.0 |
| 2013-09-06T15:11 | 2 | 0 | 0.0 | 0 | 0.0 | 431 | 0.2 | 27.1 | 76.9 | 1008.0 |
| 2013-09-06T15:12 | 2 | 0 | 0.0 | 0 | 0.0 | 431 | 0.2 | 27.1 | 76.8 | 1008.0 |
| 2013-09-06T15:13 | 2 | 0 | 0.0 | 0 | 0.0 | 431 | 0.2 | 27.1 | 76.7 | 1008.0 |
| 2013-09-06T15:14 | 2 | 0 | 0.0 | 0 | 0.0 | 432 | 0.2 | 27.1 | 76.7 | 1008.0 |
| 2013-09-06T15:15 | 2 | 0 | 0.0 | 0 | 0.0 | 432 | 0.2 | 27.1 | 76.1 | 1008.0 |
| 2013-09-06T15:16 | 2 | 0 | 0.0 | 0 | 0.0 | 432 | 0.1 | 27.1 | 76.0 | 1008.0 |
| 2013-09-06T15:17 | 2 | 0 | 0.0 | 0 | 0.0 | 433 | 0.1 | 27.1 | 76.0 | 1008.0 |
| 2013-09-06T15:18 | 2 | 0 | 0.0 | 0 | 0.0 | 433 | 0.1 | 27.2 | 75.9 | 1008.0 |
| 2013-09-06T15:19 | 2 | 0 | 0.0 | 0 | 0.0 | 433 | 0.1 | 27.3 | 76.0 | 1008.0 |
| 2013-09-06T15:20 | 2 | 0 | 0.0 | 0 | 0.0 | 432 | 0.2 | 27.3 | 76.0 | 1008.0 |
| 2013-09-06T15:21 | 2 | 0 | 0.0 | 0 | 0.0 | 432 | 0.4 | 27.4 | 76.1 | 1008.0 |
| 2013-09-06T15:22 | 2 | 0 | 0.0 | 0 | 0.0 | 430 | 0.3 | 27.4 | 76.0 | 1008.0 |
| 2013-09-06T15:23 | 2 | 0 | 0.0 | 0 | 0.0 | 429 | 0.6 | 27.4 | 76.1 | 1008.0 |
| 2013-09-06T15:24 | 2 | 0 | 0.0 | 0 | 0.0 | 427 | 0.5 | 27.4 | 76.3 | 1008.0 |
| 2013-09-06T15:25 | 2 | 0 | 0.0 | 0 | 0.0 | 426 | 0.6 | 27.4 | 76.2 | 1008.0 |
| 2013-09-06T15:26 | 2 | 0 | 0.0 | 0 | 0.0 | 424 | 0.5 | 27.4 | 76.1 | 1008.0 |
| 2013-09-06T15:27 | 2 | 0 | 0.0 | 0 | 0.0 | 423 | 0.5 | 27.3 | 76.2 | 1008.0 |
| 2013-09-06T15:28 | 2 | 0 | 0.0 | 0 | 0.0 | 421 | 0.3 | 27.3 | 76.2 | 1008.0 |
| 2013-09-06T15:29 | 2 | 0 | 0.0 | 0 | 0.0 | 420 | 0.4 | 27.4 | 76.6 | 1008.0 |
| 2013-09-06T15:30 | 2 | 0 | 0.0 | 0 | 0.0 | 419 | 0.5 | 27.4 | 76.5 | 1008.0 |
| 2013-09-06T15:31 | 2 | 0 | 0.0 | 0 | 0.0 | 418 | 0.4 | 27.4 | 76.4 | 1008.0 |
| 2013-09-06T15:32 | 2 | 0 | 0.0 | 0 | 0.0 | 416 | 0.6 | 27.3 | 76.4 | 1008.0 |
| 2013-09-06T15:33 | 2 | 0 | 0.0 | 0 | 0.0 | 415 | 0.2 | 27.4 | 76.6 | 1008.0 |
| 2013-09-06T15:34 | 2 | 0 | 0.0 | 0 | 0.0 | 415 | 0.2 | 27.3 | 76.4 | 1008.0 |
| 2013-09-06T15:35 | 2 | 0 | 0.0 | 0 | 0.0 | 414 | 0.2 | 27.3 | 76.4 | 1008.0 |
| 2013-09-06T15:36 | 2 | 0 | 0.0 | 0 | 0.0 | 414 | 0.2 | 27.3 | 76.2 | 1008.0 |
| 2013-09-06T15:37 | 2 | 0 | 0.0 | 0 | 0.0 | 414 | 0.2 | 27.3 | 76.3 | 1008.0 |
| 2013-09-06T15:38 | 2 | 0 | 0.0 | 0 | 0.0 | 414 | 0.1 | 27.3 | 76.3 | 1008.0 |
| 2013-09-06T15:39 | 2 | 0 | 0.0 | 0 | 0.0 | 414 | 0.2 | 27.3 | 76.4 | 1008.0 |
| 2013-09-06T15:40 | 2 | 0 | 0.0 | 0 | 0.0 | 414 | 0.1 | 27.3 | 76.7 | 1008.0 |
| 2013-09-06T15:41 | 2 | 0 | 0.0 | 0 | 0.0 | 415 | 0.2 | 27.3 | 76.9 | 1008.0 |
| 2013-09-06T15:42 | 2 | 0 | 0.0 | 0 | 0.0 | 415 | 0.3 | 27.3 | 77.0 | 1008.0 |
| 2013-09-06T15:43 | 2 | 0 | 0.0 | 0 | 0.0 | 415 | 0.2 | 27.3 | 77.6 | 1008.0 |
| 2013-09-06T15:44 | 2 | 0 | 0.0 | 0 | 0.0 | 415 | 0.2 | 27.4 | 77.3 | 1008.0 |
| 2013-09-06T15:45 | 2 | 0 | 0.0 | 0 | 0.0 | 415 | 0.2 | 27.3 | 77.5 | 1008.0 |
| 2013-09-06T15:46 | 2 | 0 | 0.0 | 0 | 0.0 | 416 | 0.2 | 27.3 | 77.6 | 1008.0 |
| 2013-09-06T15:47 | 2 | 0 | 0.0 | 0 | 0.0 | 416 | 0.2 | 27.3 | 78.0 | 1008.0 |
| 2013-09-06T15:48 | 2 | 0 | 0.0 | 0 | 0.0 | 416 | 0.1 | 27.3 | 78.1 | 1008.0 |
| 2013-09-06T15:49 | 2 | 0 | 0.0 | 0 | 0.0 | 416 | 0.1 | 27.3 | 78.2 | 1008.0 |
| 2013-09-06T15:50 | 2 | 0 | 0.0 | 0 | 0.0 | 417 | 0.3 | 27.3 | 78.3 | 1008.0 |
| 2013-09-06T15:51 | 2 | 0 | 0.0 | 0 | 0.0 | 417 | 0.2 | 27.3 | 78.5 | 1008.0 |
| 2013-09-06T15:52 | 2 | 0 | 0.0 | 0 | 0.0 | 418 | 0.1 | 27.3 | 78.7 | 1008.0 |
| 2013-09-06T15:53 | 2 | 0 | 0.0 | 0 | 0.0 | 418 | 0.3 | 27.3 | 78.5 | 1008.0 |
| 2013-09-06T15:54 | 2 | 0 | 0.0 | 0 | 0.0 | 419 | 0.2 | 27.3 | 78.0 | 1008.0 |
| 2013-09-06T15:55 | 2 | 0 | 0.0 | 0 | 0.0 | 420 | 0.3 | 27.3 | 78.0 | 1008.0 |
| 2013-09-06T15:56 | 2 | 0 | 0.0 | 0 | 0.0 | 421 | 0.3 | 27.3 | 78.1 | 1008.0 |
| 2013-09-06T15:57 | 2 | 0 | 0.0 | 0 | 0.0 | 422 | 0.2 | 27.3 | 78.4 | 1008.0 |
| 2013-09-06T15:58 | 2 | 0 | 0.0 | 0 | 0.0 | 423 | 0.4 | 27.4 | 78.3 | 1008.0 |
| 2013-09-06T15:59 | 2 | 0 | 0.0 | 0 | 0.0 | 424 | 0.3 | 27.3 | 78.0 | 1008.0 |
| 2013-09-06T16:00 | 2 | 0 | 0.0 | 0 | 0.0 | 425 | 0.4 | 27.3 | 78.2 | 1008.0 |
| 2013-09-06T16:01 | 2 | 0 | 0.0 | 0 | 0.0 | 427 | 0.6 | 27.3 | 78.2 | 1008.0 |
| 2013-09-06T16:02 | 2 | 0 | 0.0 | 0 | 0.0 | 429 | 0.6 | 27.4 | 78.3 | 1008.0 |
| 2013-09-06T16:03 | 2 | 0 | 0.0 | 0 | 0.0 | 430 | 0.3 | 27.4 | 78.2 | 1008.0 |
| 2013-09-06T16:04 | 2 | 0 | 0.0 | 0 | 0.0 | 430 | 0.2 | 27.4 | 78.0 | 1008.0 |
| 2013-09-06T16:05 | 2 | 0 | 0.0 | 0 | 0.0 | 430 | 0.2 | 27.4 | 77.9 | 1008.0 |
| 2013-09-06T16:06 | 2 | 0 | 0.0 | 0 | 0.0 | 430 | 0.2 | 27.3 | 77.6 | 1008.0 |
| 2013-09-06T16:07 | 2 | 0 | 0.0 | 0 | 0.0 | 429 | 0.3 | 27.4 | 77.7 | 1008.0 |
| 2013-09-06T16:08 | 2 | 0 | 0.0 | 0 | 0.0 | 428 | 0.2 | 27.4 | 77.6 | 1008.0 |
| 2013-09-06T16:09 | 2 | 0 | 0.0 | 0 | 0.0 | 427 | 0.3 | 27.4 | 77.8 | 1008.0 |
| 2013-09-06T16:10 | 2 | 0 | 0.0 | 0 | 0.0 | 427 | 0.2 | 27.4 | 78.0 | 1008.0 |
| 2013-09-06T16:11 | 2 | 0 | 0.0 | 0 | 0.0 | 426 | 0.2 | 27.4 | 77.7 | 1008.0 |
| 2013-09-06T16:12 | 2 | 0 | 0.0 | 0 | 0.0 | 426 | 0.2 | 27.4 | 77.8 | 1008.0 |
| 2013-09-06T16:13 | 2 | 0 | 0.0 | 0 | 0.0 | 425 | 0.3 | 27.4 | 77.7 | 1008.0 |
| 2013-09-06T16:14 | 2 | 0 | 0.0 | 0 | 0.0 | 424 | 0.2 | 27.5 | 78.0 | 1008.0 |
| 2013-09-06T16:15 | 2 | 0 | 0.0 | 0 | 0.0 | 423 | 0.4 | 27.5 | 77.6 | 1008.0 |
| 2013-09-06T16:16 | 2 | 0 | 0.0 | 0 | 0.0 | 422 | 0.3 | 27.4 | 77.3 | 1008.0 |
| 2013-09-06T16:17 | 2 | 0 | 0.0 | 0 | 0.0 | 421 | 0.4 | 27.4 | 77.3 | 1008.0 |
| 2013-09-06T16:18 | 2 | 0 | 0.0 | 0 | 0.0 | 420 | 0.3 | 27.4 | 77.3 | 1008.0 |
| 2013-09-06T16:19 | 2 | 0 | 0.0 | 0 | 0.0 | 420 | 0.2 | 27.4 | 76.9 | 1008.0 |
| 2013-09-06T16:20 | 2 | 0 | 0.0 | 0 | 0.0 | 420 | 0.1 | 27.4 | 77.0 | 1008.0 |
| 2013-09-06T16:21 | 2 | 0 | 0.0 | 0 | 0.0 | 419 | 0.2 | 27.5 | 77.2 | 1008.0 |
| 2013-09-06T16:22 | 2 | 0 | 0.0 | 0 | 0.0 | 420 | 0.2 | 27.5 | 77.0 | 1008.0 |
| 2013-09-06T16:23 | 2 | 0 | 0.0 | 0 | 0.0 | 420 | 0.2 | 27.5 | 77.0 | 1008.0 |
| 2013-09-06T16:24 | 2 | 0 | 0.0 | 0 | 0.0 | 420 | 0.2 | 27.5 | 76.9 | 1008.0 |
| 2013-09-06T16:25 | 2 | 0 | 0.0 | 0 | 0.0 | 419 | 0.3 | 27.5 | 76.6 | 1008.0 |
| 2013-09-06T16:26 | 2 | 0 | 0.0 | 0 | 0.0 | 418 | 0.3 | 27.4 | 76.5 | 1008.0 |
| 2013-09-06T16:27 | 2 | 0 | 0.0 | 0 | 0.0 | 416 | 0.4 | 27.4 | 76.8 | 1008.0 |
| 2013-09-06T16:28 | 2 | 0 | 0.0 | 0 | 0.0 | 415 | 0.3 | 27.4 | 76.5 | 1008.0 |
| 2013-09-06T16:29 | 2 | 0 | 0.0 | 0 | 0.0 | 415 | 0.1 | 27.4 | 76.6 | 1008.0 |
| 2013-09-06T16:30 | 2 | 0 | 0.0 | 0 | 0.0 | 414 | 0.2 | 27.4 | 76.3 | 1008.0 |
| 2013-09-06T16:31 | 2 | 0 | 0.0 | 0 | 0.0 | 414 | 0.2 | 27.4 | 76.8 | 1008.0 |
| 2013-09-06T16:32 | 2 | 0 | 0.0 | 0 | 0.0 | 413 | 0.3 | 27.5 | 76.7 | 1008.0 |
| 2013-09-06T16:33 | 2 | 0 | 0.0 | 0 | 0.0 | 413 | 0.1 | 27.5 | 76.4 | 1008.0 |
| 2013-09-06T16:34 | 2 | 0 | 0.0 | 0 | 0.0 | 412 | 0.1 | 27.4 | 76.5 | 1008.0 |
| 2013-09-06T16:35 | 2 | 0 | 0.0 | 0 | 0.0 | 412 | 0.2 | 27.5 | 76.8 | 1008.0 |
| 2013-09-06T16:36 | 2 | 0 | 0.0 | 0 | 0.0 | 412 | 0.2 | 27.5 | 77.1 | 1008.0 |
| 2013-09-06T16:37 | 2 | 0 | 0.0 | 0 | 0.0 | 412 | 0.1 | 27.5 | 77.4 | 1008.0 |
| 2013-09-06T16:38 | 2 | 0 | 0.0 | 0 | 0.0 | 412 | 0.2 | 27.5 | 77.4 | 1008.0 |
| 2013-09-06T16:39 | 2 | 0 | 0.0 | 0 | 0.0 | 412 | 0.1 | 27.5 | 77.3 | 1008.0 |
| 2013-09-06T16:40 | 2 | 0 | 0.0 | 0 | 0.0 | 412 | 0.1 | 27.5 | 77.7 | 1008.0 |
| 2013-09-06T16:41 | 2 | 0 | 0.0 | 0 | 0.0 | 412 | 0.1 | 27.5 | 77.8 | 1008.0 |
| 2013-09-06T16:42 | 2 | 0 | 0.0 | 0 | 0.0 | 412 | 0.1 | 27.5 | 77.6 | 1008.0 |
| 2013-09-06T16:43 | 2 | 0 | 0.0 | 0 | 0.0 | 412 | 0.1 | 27.5 | 77.8 | 1008.0 |
| 2013-09-06T16:44 | 2 | 0 | 0.0 | 0 | 0.0 | 412 | 0.2 | 27.5 | 77.9 | 1008.0 |
| 2013-09-06T16:45 | 2 | 0 | 0.0 | 0 | 0.0 | 412 | 0.2 | 27.5 | 78.0 | 1008.0 |
| 2013-09-06T16:46 | 2 | 0 | 0.0 | 0 | 0.0 | 412 | 0.2 | 27.4 | 77.6 | 1008.0 |
| 2013-09-06T16:47 | 2 | 0 | 0.0 | 0 | 0.0 | 412 | 0.1 | 27.4 | 77.6 | 1008.0 |
| 2013-09-06T16:48 | 2 | 0 | 0.0 | 0 | 0.0 | 412 | 0.3 | 27.4 | 77.7 | 1008.0 |
| 2013-09-06T16:49 | 2 | 0 | 0.0 | 0 | 0.0 | 412 | 0.1 | 27.4 | 77.4 | 1008.0 |
| 2013-09-06T16:50 | 2 | 0 | 0.0 | 0 | 0.0 | 412 | 0.1 | 27.3 | 77.6 | 1008.0 |
| 2013-09-06T16:51 | 2 | 0 | 0.0 | 0 | 0.0 | 413 | 0.2 | 27.3 | 77.5 | 1008.0 |
| 2013-09-06T16:52 | 2 | 0 | 0.0 | 0 | 0.0 | 413 | 0.2 | 27.3 | 77.7 | 1008.0 |
| 2013-09-06T16:53 | 2 | 0 | 0.0 | 0 | 0.0 | 413 | 0.2 | 27.3 | 77.5 | 1008.0 |
| 2013-09-06T16:54 | 2 | 0 | 0.0 | 0 | 0.0 | 413 | 0.1 | 27.3 | 77.5 | 1008.0 |
| 2013-09-06T16:55 | 2 | 0 | 0.0 | 0 | 0.0 | 413 | 0.1 | 27.3 | 77.6 | 1008.0 |
| 2013-09-06T16:56 | 2 | 0 | 0.0 | 0 | 0.0 | 413 | 0.1 | 27.3 | 77.9 | 1008.0 |
| 2013-09-06T16:57 | 2 | 0 | 0.0 | 0 | 0.0 | 413 | 0.1 | 27.4 | 77.9 | 1008.0 |
| 2013-09-06T16:58 | 2 | 0 | 0.0 | 0 | 0.0 | 413 | 0.2 | 27.3 | 78.2 | 1008.0 |
| 2013-09-06T16:59 | 2 | 0 | 0.0 | 0 | 0.0 | 413 | 0.2 | 27.4 | 78.5 | 1008.0 |
| 2013-09-06T17:00 | 2 | 0 | 0.0 | 0 | 0.0 | 413 | 0.2 | 27.4 | 78.4 | 1008.0 |
| 2013-09-06T17:01 | 2 | 0 | 0.0 | 0 | 0.0 | 413 | 0.2 | 27.3 | 78.2 | 1008.0 |
| 2013-09-06T17:02 | 2 | 0 | 0.0 | 0 | 0.0 | 414 | 0.2 | 27.3 | 78.3 | 1008.0 |
| 2013-09-06T17:03 | 2 | 0 | 0.0 | 0 | 0.0 | 414 | 0.2 | 27.3 | 78.3 | 1008.0 |
| 2013-09-06T17:04 | 2 | 0 | 0.0 | 0 | 0.0 | 414 | 0.1 | 27.4 | 78.5 | 1008.0 |
| 2013-09-06T17:05 | 2 | 0 | 0.0 | 0 | 0.0 | 414 | 0.2 | 27.4 | 78.2 | 1008.0 |
| 2013-09-06T17:06 | 2 | 0 | 0.0 | 0 | 0.0 | 414 | 0.1 | 27.4 | 78.2 | 1008.0 |
| 2013-09-06T17:07 | 2 | 0 | 0.0 | 0 | 0.0 | 414 | 0.2 | 27.4 | 78.3 | 1008.0 |
| 2013-09-06T17:08 | 2 | 0 | 0.0 | 0 | 0.0 | 414 | 0.2 | 27.4 | 77.9 | 1008.0 |
| 2013-09-06T17:09 | 2 | 0 | 0.0 | 0 | 0.0 | 414 | 0.1 | 27.3 | 77.6 | 1008.0 |
| 2013-09-06T17:10 | 2 | 0 | 0.0 | 0 | 0.0 | 414 | 0.2 | 27.3 | 77.6 | 1008.0 |
| 2013-09-06T17:11 | 2 | 0 | 0.0 | 0 | 0.0 | 414 | 0.3 | 27.3 | 77.6 | 1008.0 |
| 2013-09-06T17:12 | 2 | 0 | 0.0 | 0 | 0.0 | 415 | 0.1 | 27.4 | 77.8 | 1008.0 |
| 2013-09-06T17:13 | 2 | 0 | 0.0 | 0 | 0.0 | 415 | 0.1 | 27.4 | 77.8 | 1008.0 |
| 2013-09-06T17:14 | 2 | 0 | 0.0 | 0 | 0.0 | 415 | 0.2 | 27.4 | 77.7 | 1008.0 |
| 2013-09-06T17:15 | 2 | 0 | 0.0 | 0 | 0.0 | 415 | 0.2 | 27.4 | 77.9 | 1008.0 |
| 2013-09-06T17:16 | 2 | 0 | 0.0 | 0 | 0.0 | 415 | 0.2 | 27.4 | 77.9 | 1008.0 |
| 2013-09-06T17:17 | 2 | 0 | 0.0 | 0 | 0.0 | 415 | 0.1 | 27.3 | 77.7 | 1008.0 |
| 2013-09-06T17:18 | 2 | 0 | 0.0 | 0 | 0.0 | 416 | 0.1 | 27.3 | 77.7 | 1008.0 |
| 2013-09-06T17:19 | 2 | 0 | 0.0 | 0 | 0.0 | 416 | 0.2 | 27.4 | 77.7 | 1008.0 |
| 2013-09-06T17:20 | 2 | 0 | 0.0 | 0 | 0.0 | 417 | 0.2 | 27.4 | 77.5 | 1008.0 |
| 2013-09-06T17:21 | 2 | 0 | 0.0 | 0 | 0.0 | 417 | 0.2 | 27.4 | 77.7 | 1008.0 |
| 2013-09-06T17:22 | 2 | 0 | 0.0 | 0 | 0.0 | 417 | 0.1 | 27.4 | 77.7 | 1008.0 |
| 2013-09-06T17:23 | 2 | 0 | 0.0 | 0 | 0.0 | 418 | 0.1 | 27.4 | 77.4 | 1008.0 |
| 2013-09-06T17:24 | 2 | 0 | 0.0 | 0 | 0.0 | 418 | 0.2 | 27.4 | 77.7 | 1008.0 |
| 2013-09-06T17:25 | 2 | 0 | 0.0 | 0 | 0.0 | 419 | 0.2 | 27.4 | 77.9 | 1008.0 |
| 2013-09-06T17:26 | 2 | 0 | 0.0 | 0 | 0.0 | 419 | 0.2 | 27.4 | 77.8 | 1008.0 |
| 2013-09-06T17:27 | 2 | 0 | 0.0 | 0 | 0.0 | 420 | 0.2 | 27.4 | 77.9 | 1008.0 |
| 2013-09-06T17:28 | 2 | 0 | 0.0 | 0 | 0.0 | 420 | 0.2 | 27.5 | 78.1 | 1008.0 |
| 2013-09-06T17:29 | 2 | 0 | 0.0 | 0 | 0.0 | 420 | 0.3 | 27.5 | 78.2 | 1008.0 |
| 2013-09-06T17:30 | 2 | 0 | 0.0 | 0 | 0.0 | 421 | 0.2 | 27.5 | 78.2 | 1008.0 |
| 2013-09-06T17:31 | 2 | 0 | 0.0 | 0 | 0.0 | 421 | 0.3 | 27.4 | 78.2 | 1008.0 |
| 2013-09-06T17:32 | 2 | 0 | 0.0 | 0 | 0.0 | 422 | 0.2 | 27.4 | 78.2 | 1008.0 |
| 2013-09-06T17:33 | 2 | 0 | 0.0 | 0 | 0.0 | 422 | 0.1 | 27.4 | 78.3 | 1008.0 |
| 2013-09-06T17:34 | 2 | 0 | 0.0 | 0 | 0.0 | 422 | 0.1 | 27.5 | 78.5 | 1008.0 |
| 2013-09-06T17:35 | 2 | 0 | 0.0 | 0 | 0.0 | 423 | 0.1 | 27.5 | 78.7 | 1008.0 |
| 2013-09-06T17:36 | 2 | 0 | 0.0 | 0 | 0.0 | 423 | 0.2 | 27.5 | 78.7 | 1008.0 |
| 2013-09-06T17:37 | 2 | 0 | 0.0 | 0 | 0.0 | 424 | 0.2 | 27.4 | 78.8 | 1008.0 |
| 2013-09-06T17:38 | 2 | 0 | 0.0 | 0 | 0.0 | 424 | 0.2 | 27.4 | 78.7 | 1008.0 |
| 2013-09-06T17:39 | 2 | 0 | 0.0 | 0 | 0.0 | 424 | 0.2 | 27.4 | 78.7 | 1008.0 |
| 2013-09-06T17:40 | 2 | 0 | 0.0 | 0 | 0.0 | 425 | 0.2 | 27.4 | 78.7 | 1008.0 |
| 2013-09-06T17:41 | 2 | 0 | 0.0 | 0 | 0.0 | 425 | 0.2 | 27.5 | 78.8 | 1008.0 |
| 2013-09-06T17:42 | 2 | 0 | 0.0 | 0 | 0.0 | 426 | 0.1 | 27.5 | 78.9 | 1008.0 |
| 2013-09-06T17:43 | 2 | 0 | 0.0 | 0 | 0.0 | 426 | 0.0 | 27.5 | 78.9 | 1008.0 |
| 2013-09-06T17:44 | 2 | 0 | 0.0 | 0 | 0.0 | 426 | 0.1 | 27.6 | 78.9 | 1008.0 |
| 2013-09-06T17:45 | 2 | 0 | 0.0 | 0 | 0.0 | 426 | 0.2 | 27.5 | 78.5 | 1008.0 |
| 2013-09-06T17:46 | 2 | 0 | 0.0 | 0 | 0.0 | 427 | 0.2 | 27.5 | 78.6 | 1008.0 |
| 2013-09-06T17:47 | 2 | 0 | 0.0 | 0 | 0.0 | 427 | 0.1 | 27.5 | 78.6 | 1008.0 |
| 2013-09-06T17:48 | 2 | 0 | 0.0 | 0 | 0.0 | 427 | 0.1 | 27.5 | 78.5 | 1008.0 |
| 2013-09-06T17:49 | 2 | 0 | 0.0 | 0 | 0.0 | 428 | 0.2 | 27.5 | 78.5 | 1008.0 |
| 2013-09-06T17:50 | 2 | 0 | 0.0 | 0 | 0.0 | 428 | 0.1 | 27.5 | 78.4 | 1008.0 |
| 2013-09-06T17:51 | 2 | 0 | 0.0 | 0 | 0.0 | 428 | 0.1 | 27.5 | 78.5 | 1008.0 |
| 2013-09-06T17:52 | 2 | 0 | 0.0 | 0 | 0.0 | 428 | 0.1 | 27.5 | 78.5 | 1008.0 |
| 2013-09-06T17:53 | 2 | 0 | 0.0 | 0 | 0.0 | 428 | 0.1 | 27.5 | 78.5 | 1008.0 |
| 2013-09-06T17:54 | 2 | 0 | 0.0 | 0 | 0.0 | 429 | 0.1 | 27.5 | 78.3 | 1008.0 |
| 2013-09-06T17:55 | 2 | 0 | 0.0 | 0 | 0.0 | 428 | 0.2 | 27.5 | 78.4 | 1008.0 |
| 2013-09-06T17:56 | 2 | 0 | 0.0 | 0 | 0.0 | 428 | 0.2 | 27.5 | 78.5 | 1008.0 |
| 2013-09-06T17:57 | 2 | 0 | 0.0 | 429 | 0.2 | 27.5 | 78.6 | 1008.0 | ||
| 2013-09-06T17:58 | 2 | 0 | 0.0 | 429 | 0.1 | 27.4 | 78.6 | 1008.0 | ||
| 2013-09-06T17:59 | 2 | 0 | 0.0 | 27.4 | 78.6 | 1008.0 | ||||
| 2013-09-06T18:00 | 2 | 0 | 0.0 | 27.4 | 78.6 | 1008.0 | ||||
| 2013-09-06T18:01 | 2 | 0 | 0.0 | 27.3 | 78.7 | 1008.0 | ||||
| 2013-09-06T18:02 | 2 | 0 | 0.0 | 27.3 | 78.6 | 1008.0 | ||||
| 2013-09-06T18:03 | 2 | 0 | 0.0 | 434 | 1.4 | 27.3 | 78.5 | 1008.0 | ||
| 2013-09-06T18:04 | 2 | 0 | 0.0 | 433 | 1.3 | 27.3 | 78.4 | 1008.0 | ||
| 2013-09-06T18:05 | 2 | 0 | 0.0 | 433 | 1.3 | 27.3 | 78.4 | 1008.0 | ||
| 2013-09-06T18:06 | 2 | 0 | 0.0 | 433 | 1.0 | 27.3 | 78.2 | 1008.0 | ||
| 2013-09-06T18:07 | 2 | 0 | 0.0 | 432 | 1.0 | 27.3 | 78.1 | 1008.0 | ||
| 2013-09-06T18:08 | 2 | 0 | 0.0 | 0 | 0.0 | 431 | 0.7 | 27.3 | 78.1 | 1008.0 |
| 2013-09-06T18:09 | 2 | 0 | 0.0 | 0 | 0.0 | 431 | 0.6 | 27.3 | 78.3 | 1008.0 |
| 2013-09-06T18:10 | 2 | 0 | 0.0 | 0 | 0.0 | 432 | 0.8 | 27.3 | 78.5 | 1008.0 |
| 2013-09-06T18:11 | 2 | 0 | 0.0 | 0 | 0.0 | 431 | 0.2 | 27.4 | 78.4 | 1008.0 |
| 2013-09-06T18:12 | 2 | 0 | 0.0 | 0 | 0.0 | 432 | 0.8 | 27.4 | 78.2 | 1008.0 |
| 2013-09-06T18:13 | 2 | 0 | 0.0 | 0 | 0.0 | 431 | 0.4 | 27.4 | 78.2 | 1008.0 |
| 2013-09-06T18:14 | 2 | 0 | 0.0 | 0 | 0.0 | 432 | 0.5 | 27.4 | 78.3 | 1009.0 |
| 2013-09-06T18:15 | 2 | 0 | 0.0 | 0 | 0.0 | 431 | 0.8 | 27.4 | 78.2 | 1009.0 |
| 2013-09-06T18:16 | 2 | 0 | 0.0 | 0 | 0.0 | 431 | 0.3 | 27.4 | 78.1 | 1009.0 |
| 2013-09-06T18:17 | 2 | 0 | 0.0 | 0 | 0.0 | 432 | 0.3 | 27.4 | 78.2 | 1009.0 |
| 2013-09-06T18:18 | 2 | 0 | 0.0 | 0 | 0.0 | 432 | 0.2 | 27.4 | 78.3 | 1009.0 |
| 2013-09-06T18:19 | 2 | 0 | 0.0 | 0 | 0.0 | 432 | 0.2 | 27.4 | 78.4 | 1009.0 |
| 2013-09-06T18:20 | 2 | 0 | 0.0 | 0 | 0.0 | 431 | 0.2 | 27.5 | 78.2 | 1009.0 |
| 2013-09-06T18:21 | 2 | 0 | 0.0 | 0 | 0.0 | 432 | 0.3 | 27.4 | 78.2 | 1009.0 |
| 2013-09-06T18:22 | 2 | 0 | 0.0 | 0 | 0.0 | 432 | 0.1 | 27.4 | 78.2 | 1009.0 |
| 2013-09-06T18:23 | 2 | 0 | 0.0 | 0 | 0.0 | 432 | 0.1 | 27.4 | 78.2 | 1009.0 |
| 2013-09-06T18:24 | 2 | 0 | 0.0 | 0 | 0.0 | 432 | 0.1 | 27.4 | 78.3 | 1009.0 |
| 2013-09-06T18:25 | 2 | 0 | 0.0 | 0 | 0.0 | 432 | 0.0 | 27.4 | 78.4 | 1009.0 |
| 2013-09-06T18:26 | 2 | 0 | 0.0 | 0 | 0.0 | 432 | 0.2 | 27.4 | 78.3 | 1009.0 |
| 2013-09-06T18:27 | 2 | 4 | 0.0 | 0 | 0.0 | 432 | 0.2 | 27.4 | 78.3 | 1009.0 |
| 2013-09-06T18:28 | 2 | 4 | 0.0 | 0 | 0.0 | 432 | 0.2 | 27.4 | 78.3 | 1009.0 |
| 2013-09-06T18:29 | 2 | 4 | 0.1 | 0 | 0.0 | 432 | 0.3 | 27.4 | 78.3 | 1009.0 |
| 2013-09-06T18:30 | 2 | 4 | 0.1 | 0 | 0.0 | 433 | 0.2 | 27.4 | 78.3 | 1009.0 |
| 2013-09-06T18:31 | 2 | 4 | 0.1 | 0 | 0.0 | 433 | 0.1 | 27.5 | 78.3 | 1009.0 |
| 2013-09-06T18:32 | 2 | 4 | 0.2 | 0 | 0.0 | 433 | 0.2 | 27.5 | 78.1 | 1009.0 |
| 2013-09-06T18:33 | 2 | 4 | 0.1 | 0 | 0.0 | 433 | 0.2 | 27.5 | 78.1 | 1009.0 |
| 2013-09-06T18:34 | 2 | 4 | 0.2 | 0 | 0.0 | 433 | 0.2 | 27.5 | 78.1 | 1009.0 |
| 2013-09-06T18:35 | 2 | 4 | 0.2 | 0 | 0.0 | 433 | 0.3 | 27.5 | 78.1 | 1009.0 |
| 2013-09-06T18:36 | 2 | 4 | 0.2 | 0 | 0.0 | 433 | 0.2 | 27.5 | 78.2 | 1009.0 |
| 2013-09-06T18:37 | 2 | 4 | 0.2 | 1 | 0.1 | 433 | 0.2 | 27.5 | 78.1 | 1009.0 |
| 2013-09-06T18:38 | 2 | 5 | 0.2 | 1 | 0.1 | 433 | 0.2 | 27.5 | 78.2 | 1009.0 |
| 2013-09-06T18:39 | 2 | 5 | 0.2 | 1 | 0.1 | 433 | 0.1 | 27.5 | 78.2 | 1009.0 |
| 2013-09-06T18:40 | 2 | 5 | 0.1 | 1 | 0.1 | 433 | 0.1 | 27.5 | 78.4 | 1009.0 |
| 2013-09-06T18:41 | 2 | 5 | 0.1 | 1 | 0.1 | 433 | 0.2 | 27.5 | 78.5 | 1009.0 |
| 2013-09-06T18:42 | 2 | 5 | 0.0 | 1 | 0.1 | 432 | 0.0 | 27.5 | 78.5 | 1009.0 |
| 2013-09-06T18:43 | 2 | 5 | 0.0 | 1 | 0.1 | 432 | 0.2 | 27.5 | 78.6 | 1009.0 |
| 2013-09-06T18:44 | 2 | 5 | 0.2 | 1 | 0.1 | 433 | 0.1 | 27.5 | 78.6 | 1009.0 |
| 2013-09-06T18:45 | 2 | 5 | 0.2 | 1 | 0.1 | 432 | 0.2 | 27.5 | 78.7 | 1009.0 |
| 2013-09-06T18:46 | 2 | 6 | 0.1 | 1 | 0.1 | 432 | 0.2 | 27.5 | 78.8 | 1009.0 |
| 2013-09-06T18:47 | 2 | 6 | 0.0 | 1 | 0.1 | 432 | 0.3 | 27.5 | 78.7 | 1009.0 |
| 2013-09-06T18:48 | 2 | 6 | 0.1 | 1 | 0.1 | 432 | 0.1 | 27.4 | 78.7 | 1009.0 |
| 2013-09-06T18:49 | 2 | 6 | 0.3 | 1 | 0.0 | 432 | 0.2 | 27.4 | 78.6 | 1009.0 |
| 2013-09-06T18:50 | 2 | 7 | 0.0 | 1 | 0.0 | 432 | 0.2 | 27.4 | 78.6 | 1009.0 |
| 2013-09-06T18:51 | 2 | 7 | 0.0 | 1 | 0.0 | 433 | 0.1 | 27.4 | 78.5 | 1009.0 |
| 2013-09-06T18:52 | 2 | 7 | 0.0 | 1 | 0.0 | 432 | 0.1 | 27.4 | 78.5 | 1009.0 |
| 2013-09-06T18:53 | 2 | 7 | 0.0 | 1 | 0.0 | 432 | 0.0 | 27.4 | 78.5 | 1009.0 |
| 2013-09-06T18:54 | 2 | 7 | 0.2 | 1 | 0.1 | 432 | 0.2 | 27.4 | 78.5 | 1009.0 |
| 2013-09-06T18:55 | 2 | 8 | 0.0 | 1 | 0.0 | 432 | 0.2 | 27.4 | 78.4 | 1009.0 |
| 2013-09-06T18:56 | 2 | 8 | 0.2 | 1 | 0.1 | 432 | 0.1 | 27.4 | 78.6 | 1009.0 |
| 2013-09-06T18:57 | 2 | 9 | 0.1 | 1 | 0.0 | 432 | 0.5 | 27.5 | 78.5 | 1009.0 |
| 2013-09-06T18:58 | 2 | 9 | 0.4 | 1 | 0.1 | 433 | 0.4 | 27.5 | 78.4 | 1009.0 |
| 2013-09-06T18:59 | 2 | 10 | 0.4 | 1 | 0.1 | 433 | 2.1 | 27.4 | 78.7 | 1009.0 |
| 2013-09-06T19:00 | 2 | 11 | 0.4 | 1 | 0.1 | 432 | 0.2 | 27.4 | 78.7 | 1009.0 |
| 2013-09-06T19:01 | 2 | 12 | 0.4 | 1 | 0.1 | 432 | 0.2 | 27.4 | 78.7 | 1009.0 |
| 2013-09-06T19:02 | 2 | 13 | 0.4 | 1 | 0.1 | 432 | 0.2 | 27.4 | 78.6 | 1009.0 |
| 2013-09-06T19:03 | 2 | 14 | 0.5 | 1 | 0.1 | 432 | 0.1 | 27.4 | 78.7 | 1009.0 |
| 2013-09-06T19:04 | 2 | 16 | 0.4 | 1 | 0.0 | 432 | 0.3 | 27.4 | 78.6 | 1009.0 |
| 2013-09-06T19:05 | 2 | 17 | 0.4 | 1 | 0.1 | 432 | 0.2 | 27.4 | 78.7 | 1009.0 |
| 2013-09-06T19:06 | 2 | 18 | 0.5 | 1 | 0.1 | 432 | 0.2 | 27.4 | 78.7 | 1009.0 |
| 2013-09-06T19:07 | 2 | 20 | 0.5 | 1 | 0.1 | 431 | 0.3 | 27.4 | 78.7 | 1009.0 |
| 2013-09-06T19:08 | 2 | 21 | 0.5 | 1 | 0.1 | 431 | 0.2 | 27.4 | 78.7 | 1009.0 |
| 2013-09-06T19:09 | 2 | 23 | 0.5 | 1 | 0.1 | 430 | 0.2 | 27.4 | 78.8 | 1009.0 |
| 2013-09-06T19:10 | 2 | 24 | 0.5 | 1 | 0.1 | 430 | 0.2 | 27.4 | 79.0 | 1009.0 |
| 2013-09-06T19:11 | 2 | 26 | 0.4 | 1 | 0.1 | 430 | 0.2 | 27.5 | 78.9 | 1009.0 |
| 2013-09-06T19:12 | 2 | 27 | 0.4 | 0 | 0.1 | 430 | 0.3 | 27.4 | 78.9 | 1009.0 |
| 2013-09-06T19:13 | 2 | 28 | 0.5 | 0 | 0.2 | 429 | 0.3 | 27.5 | 79.1 | 1009.0 |
| 2013-09-06T19:14 | 2 | 29 | 0.5 | 0 | 0.0 | 429 | 0.1 | 27.5 | 79.4 | 1009.0 |
| 2013-09-06T19:15 | 2 | 30 | 0.5 | 0 | 0.0 | 429 | 0.1 | 27.5 | 79.3 | 1009.0 |
| 2013-09-06T19:16 | 2 | 32 | 0.5 | 0 | 0.0 | 429 | 0.2 | 27.5 | 79.4 | 1009.0 |
| 2013-09-06T19:17 | 2 | 33 | 0.4 | 0 | 0.0 | 429 | 0.1 | 27.4 | 79.3 | 1009.0 |
| 2013-09-06T19:18 | 2 | 33 | 0.4 | 0 | 0.0 | 429 | 0.2 | 27.4 | 79.2 | 1009.0 |
| 2013-09-06T19:19 | 2 | 34 | 0.2 | 0 | 0.1 | 429 | 0.1 | 27.4 | 79.2 | 1009.0 |
| 2013-09-06T19:20 | 2 | 35 | 0.1 | 0 | 0.1 | 429 | 0.0 | 27.4 | 79.3 | 1009.0 |
| 2013-09-06T19:21 | 2 | 36 | 0.4 | 0 | 0.1 | 429 | 0.1 | 27.5 | 79.3 | 1009.0 |
| 2013-09-06T19:22 | 2 | 37 | 0.4 | 0 | 0.0 | 430 | 0.1 | 27.5 | 79.1 | 1009.0 |
| 2013-09-06T19:23 | 2 | 37 | 0.1 | 0 | 0.0 | 430 | 0.2 | 27.5 | 79.1 | 1009.0 |
| 2013-09-06T19:24 | 2 | 38 | 0.3 | 0 | 0.0 | 431 | 0.2 | 27.5 | 79.0 | 1009.0 |
| 2013-09-06T19:25 | 2 | 39 | 0.5 | 0 | 0.1 | 431 | 0.0 | 27.5 | 79.0 | 1009.0 |
| 2013-09-06T19:26 | 2 | 40 | 0.3 | 0 | 0.1 | 432 | 0.2 | 27.5 | 79.0 | 1009.0 |
| 2013-09-06T19:27 | 2 | 41 | 0.1 | 0 | 0.1 | 432 | 0.1 | 27.5 | 79.0 | 1009.0 |
| 2013-09-06T19:28 | 2 | 41 | 0.3 | 0 | 0.1 | 432 | 0.2 | 27.5 | 79.0 | 1009.0 |
| 2013-09-06T19:29 | 2 | 42 | 0.5 | 0 | 0.1 | 432 | 0.1 | 27.6 | 78.9 | 1009.0 |
| 2013-09-06T19:30 | 2 | 43 | 0.3 | 0 | 0.2 | 432 | 0.1 | 27.5 | 78.8 | 1009.0 |
| 2013-09-06T19:31 | 2 | 44 | 0.2 | 1 | 0.1 | 432 | 0.1 | 27.6 | 78.8 | 1009.0 |
| 2013-09-06T19:32 | 2 | 45 | 0.2 | 1 | 0.1 | 432 | 0.1 | 27.6 | 78.7 | 1009.0 |
| 2013-09-06T19:33 | 2 | 46 | 0.2 | 1 | 0.1 | 433 | 0.2 | 27.6 | 78.8 | 1009.0 |
| 2013-09-06T19:34 | 2 | 47 | 0.4 | 1 | 0.1 | 433 | 0.1 | 27.6 | 78.7 | 1009.0 |
| 2013-09-06T19:35 | 2 | 48 | 0.4 | 1 | 0.0 | 433 | 0.1 | 27.6 | 78.6 | 1009.0 |
| 2013-09-06T19:36 | 2 | 50 | 0.5 | 1 | 0.0 | 434 | 0.2 | 27.6 | 78.5 | 1009.0 |
| 2013-09-06T19:37 | 2 | 51 | 0.5 | 1 | 0.1 | 434 | 0.2 | 27.6 | 78.4 | 1009.0 |
| 2013-09-06T19:38 | 2 | 53 | 0.5 | 1 | 0.2 | 435 | 0.2 | 27.6 | 78.4 | 1009.0 |
| 2013-09-06T19:39 | 2 | 54 | 0.5 | 2 | 0.0 | 435 | 0.0 | 27.7 | 78.4 | 1009.0 |
| 2013-09-06T19:40 | 2 | 55 | 0.4 | 2 | 0.3 | 435 | 0.2 | 27.7 | 78.4 | 1009.0 |
| 2013-09-06T19:41 | 2 | 57 | 0.4 | 3 | 0.4 | 436 | 0.1 | 27.7 | 78.2 | 1009.0 |
| 2013-09-06T19:42 | 2 | 58 | 0.3 | 3 | 0.1 | 436 | 0.1 | 27.7 | 78.2 | 1009.0 |
| 2013-09-06T19:43 | 2 | 59 | 0.3 | 3 | 0.3 | 437 | 0.2 | 27.8 | 78.3 | 1009.0 |
| 2013-09-06T19:44 | 2 | 60 | 0.5 | 5 | 0.2 | 437 | 0.1 | 27.8 | 78.1 | 1009.0 |
| 2013-09-06T19:45 | 2 | 62 | 0.5 | 6 | 0.5 | 437 | 0.4 | 27.8 | 78.0 | 1009.0 |
| 2013-09-06T19:46 | 2 | 64 | 0.6 | 8 | 0.7 | 437 | 0.3 | 27.8 | 78.0 | 1009.0 |
| 2013-09-06T19:47 | 2 | 66 | 0.9 | 11 | 1.1 | 438 | 0.4 | 27.8 | 78.0 | 1009.0 |
| 2013-09-06T19:48 | 2 | 70 | 1.4 | 16 | 2.3 | 437 | 0.4 | 27.8 | 77.9 | 1009.0 |
| 2013-09-06T19:49 | 2 | 75 | 2.1 | 25 | 4.5 | 437 | 0.2 | 27.9 | 78.0 | 1010.0 |
| 2013-09-06T19:50 | 2 | 96 | 10.3 | 86 | 31.5 | 438 | 1.3 | 27.9 | 78.3 | 1010.0 |
| 2013-09-06T19:51 | 2 | 120 | 3.3 | 152 | 11.0 | 437 | 0.3 | 27.9 | 78.4 | 1010.0 |
| 2013-09-06T19:52 | 2 | 100 | 6.5 | 69 | 25.6 | 437 | 0.8 | 27.9 | 78.4 | 1010.0 |
| 2013-09-06T19:53 | 2 | 90 | 1.8 | 23 | 8.3 | 438 | 1.6 | 28.0 | 78.7 | 1010.0 |
| 2013-09-06T19:54 | 2 | 88 | 0.5 | 8 | 1.5 | 439 | 1.1 | 28.0 | 78.5 | 1010.0 |
| 2013-09-06T19:55 | 2 | 91 | 1.2 | 4 | 0.6 | 438 | 0.3 | 28.0 | 78.8 | 1010.0 |
| 2013-09-06T19:56 | 2 | 95 | 1.5 | 3 | 0.4 | 437 | 0.7 | 28.0 | 78.5 | 1010.0 |
| 2013-09-06T19:57 | 2 | 101 | 2.2 | 4 | 0.9 | 436 | 0.8 | 27.9 | 78.4 | 1010.0 |
| 2013-09-06T19:58 | 2 | 108 | 1.9 | 4 | 0.4 | 435 | 1.4 | 27.9 | 78.5 | 1010.0 |
| 2013-09-06T19:59 | 2 | 115 | 2.3 | 3 | 0.0 | 435 | 0.5 | 27.8 | 78.3 | 1010.0 |
| 2013-09-06T20:00 | 2 | 123 | 2.6 | 4 | 0.5 | 435 | 0.8 | 27.8 | 78.5 | 1010.0 |
| 2013-09-06T20:01 | 2 | 133 | 3.1 | 7 | 1.7 | 435 | 0.7 | 27.8 | 78.7 | 1010.0 |
| 2013-09-06T20:02 | 2 | 145 | 3.8 | 17 | 4.2 | 435 | 0.7 | 27.9 | 79.2 | 1010.0 |
| 2013-09-06T20:03 | 2 | 159 | 4.1 | 35 | 4.8 | 434 | 0.1 | 27.9 | 78.2 | 1010.0 |
| 2013-09-06T20:04 | 2 | 177 | 8.4 | 61 | 17.5 | 434 | 0.3 | 27.8 | 78.4 | 1010.0 |
| 2013-09-06T20:05 | 2 | 217 | 14.3 | 153 | 34.2 | 434 | 0.2 | 27.9 | 78.5 | 1010.0 |
| 2013-09-06T20:06 | 2 | 255 | 4.3 | 238 | 13.1 | 435 | 0.2 | 27.9 | 78.4 | 1010.0 |
| 2013-09-06T20:07 | 2 | 293 | 26.7 | 322 | 68.7 | 435 | 0.1 | 27.9 | 78.6 | 1010.0 |
| 2013-09-06T20:08 | 2 | 357 | 7.8 | 477 | 14.9 | 435 | 0.2 | 28.0 | 78.3 | 1010.0 |
| 2013-09-06T20:09 | 2 | 396 | 8.8 | 565 | 21.4 | 435 | 0.2 | 28.1 | 78.1 | 1010.0 |
| 2013-09-06T20:10 | 2 | 349 | 29.9 | 421 | 85.7 | 435 | 0.6 | 28.2 | 77.5 | 1010.0 |
| 2013-09-06T20:11 | 2 | 393 | 11.9 | 525 | 33.2 | 435 | 0.1 | 28.2 | 77.5 | 1010.0 |
| 2013-09-06T20:12 | 2 | 325 | 28.6 | 332 | 78.4 | 434 | 0.9 | 28.3 | 76.2 | 1010.0 |
| 2013-09-06T20:13 | 2 | 275 | 2.6 | 194 | 7.2 | 434 | 0.9 | 28.3 | 76.3 | 1010.0 |
| 2013-09-06T20:14 | 2 | 276 | 5.6 | 196 | 13.5 | 433 | 0.7 | 28.3 | 75.4 | 1010.0 |
| 2013-09-06T20:15 | 2 | 323 | 20.9 | 312 | 51.9 | 433 | 0.4 | 28.3 | 75.5 | 1010.0 |
| 2013-09-06T20:16 | 2 | 355 | 9.2 | 384 | 22.4 | 432 | 0.6 | 28.4 | 76.0 | 1010.0 |
| 2013-09-06T20:17 | 2 | 350 | 12.8 | 358 | 28.0 | 431 | 0.5 | 28.4 | 74.9 | 1010.0 |
| 2013-09-06T20:18 | 2 | 335 | 13.7 | 305 | 37.1 | 431 | 0.2 | 28.4 | 75.2 | 1010.0 |
| 2013-09-06T20:19 | 2 | 337 | 10.2 | 296 | 29.3 | 430 | 1.0 | 28.5 | 74.9 | 1010.0 |
| 2013-09-06T20:20 | 2 | 311 | 8.9 | 217 | 18.3 | 429 | 0.5 | 28.5 | 74.4 | 1010.0 |
| 2013-09-06T20:21 | 2 | 312 | 9.8 | 205 | 27.8 | 430 | 0.3 | 28.5 | 75.0 | 1010.0 |
| 2013-09-06T20:22 | 2 | 288 | 3.0 | 133 | 11.0 | 429 | 0.4 | 28.5 | 74.2 | 1010.0 |
| 2013-09-06T20:23 | 2 | 277 | 1.8 | 94 | 6.7 | 429 | 0.3 | 28.5 | 74.6 | 1010.0 |
| 2013-09-06T20:24 | 2 | 279 | 1.2 | 90 | 1.3 | 429 | 0.2 | 28.5 | 74.5 | 1010.0 |
| 2013-09-06T20:25 | 2 | 286 | 4.4 | 96 | 7.2 | 429 | 0.2 | 28.5 | 75.1 | 1010.0 |
| 2013-09-06T20:26 | 2 | 307 | 8.3 | 132 | 15.1 | 429 | 0.2 | 28.6 | 74.7 | 1010.0 |
| 2013-09-06T20:27 | 2 | 353 | 21.6 | 222 | 44.6 | 428 | 0.2 | 28.5 | 74.0 | 1010.0 |
| 2013-09-06T20:28 | 2 | 445 | 28.2 | 413 | 58.4 | 428 | 0.2 | 28.5 | 74.1 | 1010.0 |
| 2013-09-06T20:29 | 2 | 519 | 10.0 | 561 | 19.8 | 428 | 0.3 | 28.5 | 74.8 | 1010.0 |
| 2013-09-06T20:30 | 2 | 517 | 8.2 | 546 | 20.8 | 428 | 0.2 | 28.6 | 74.7 | 1010.0 |
| 2013-09-06T20:31 | 2 | 440 | 33.8 | 370 | 72.9 | 428 | 0.4 | 28.8 | 74.7 | 1010.0 |
| 2013-09-06T20:32 | 2 | 442 | 22.5 | 372 | 47.9 | 428 | 0.4 | 28.9 | 75.1 | 1010.0 |
| 2013-09-06T20:33 | 2 | 410 | 18.5 | 301 | 38.9 | 427 | 1.1 | 29.0 | 73.6 | 1011.0 |
| 2013-09-06T20:34 | 2 | 501 | 20.9 | 494 | 44.1 | 426 | 0.3 | 28.8 | 72.0 | 1011.0 |
| 2013-09-06T20:35 | 2 | 556 | 19.8 | 609 | 42.2 | 426 | 0.4 | 28.7 | 72.9 | 1011.0 |
| 2013-09-06T20:36 | 2 | 607 | 11.0 | 721 | 25.0 | 426 | 0.2 | 28.8 | 72.4 | 1011.0 |
| 2013-09-06T20:37 | 2 | 615 | 2.7 | 747 | 6.9 | 426 | 0.4 | 28.9 | 73.5 | 1011.0 |
| 2013-09-06T20:38 | 2 | 600 | 7.0 | 730 | 9.1 | 426 | 0.4 | 29.0 | 72.4 | 1011.0 |
| 2013-09-06T20:39 | 2 | 590 | 4.2 | 731 | 15.0 | 426 | 0.5 | 29.1 | 72.5 | 1011.0 |
| 2013-09-06T20:40 | 2 | 582 | 16.2 | 737 | 27.3 | 425 | 1.2 | 29.1 | 71.9 | 1011.0 |
| 2013-09-06T20:41 | 2 | 522 | 17.2 | 632 | 31.0 | 424 | 1.1 | 29.1 | 71.9 | 1011.0 |
| 2013-09-06T20:42 | 2 | 525 | 11.5 | 648 | 25.0 | 423 | 0.6 | 29.1 | 71.7 | 1011.0 |
| 2013-09-06T20:43 | 2 | 479 | 11.5 | 569 | 21.2 | 422 | 1.0 | 29.1 | 71.7 | 1011.0 |
| 2013-09-06T20:44 | 2 | 453 | 12.7 | 527 | 22.8 | 421 | 0.8 | 29.1 | 71.6 | 1011.0 |
| 2013-09-06T20:45 | 2 | 423 | 8.6 | 479 | 14.1 | 421 | 0.4 | 29.2 | 71.5 | 1011.0 |
| 2013-09-06T20:46 | 2 | 422 | 15.0 | 484 | 29.9 | 421 | 1.3 | 29.3 | 71.2 | 1011.0 |
| 2013-09-06T20:47 | 2 | 483 | 8.2 | 607 | 17.0 | 420 | 0.3 | 29.2 | 70.6 | 1011.0 |
| 2013-09-06T20:48 | 2 | 476 | 1.1 | 597 | 2.2 | 419 | 0.6 | 29.1 | 70.6 | 1011.0 |
| 2013-09-06T20:49 | 2 | 505 | 20.8 | 654 | 40.1 | 419 | 0.4 | 29.0 | 70.8 | 1011.0 |
| 2013-09-06T20:50 | 2 | 526 | 2.1 | 694 | 4.1 | 419 | 0.5 | 29.0 | 71.3 | 1011.0 |
| 2013-09-06T20:51 | 2 | 567 | 15.3 | 770 | 31.2 | 420 | 0.5 | 29.1 | 72.3 | 1011.0 |
| 2013-09-06T20:52 | 2 | 578 | 2.2 | 796 | 3.7 | 418 | 0.5 | 29.1 | 71.2 | 1011.0 |
| 2013-09-06T20:53 | 2 | 520 | 28.1 | 691 | 52.0 | 418 | 0.4 | 29.1 | 71.4 | 1011.0 |
| 2013-09-06T20:54 | 2 | 393 | 36.1 | 457 | 65.2 | 419 | 0.7 | 29.2 | 72.3 | 1011.0 |
| 2013-09-06T20:55 | 2 | 386 | 21.7 | 445 | 38.0 | 419 | 1.1 | 29.3 | 71.9 | 1011.0 |
| 2013-09-06T20:56 | 2 | 471 | 16.7 | 593 | 29.2 | 419 | 0.5 | 29.3 | 71.6 | 1011.0 |
| 2013-09-06T20:57 | 2 | 480 | 21.1 | 599 | 34.9 | 418 | 0.6 | 29.4 | 71.0 | 1011.0 |
| 2013-09-06T20:58 | 2 | 493 | 6.9 | 615 | 14.0 | 419 | 0.3 | 29.4 | 70.5 | 1011.0 |
| 2013-09-06T20:59 | 2 | 450 | 25.3 | 531 | 46.0 | 419 | 0.3 | 29.4 | 71.0 | 1011.0 |
| 2013-09-06T21:00 | 2 | 475 | 22.7 | 573 | 40.4 | 419 | 0.3 | 29.4 | 71.9 | 1011.0 |
| 2013-09-06T21:01 | 2 | 520 | 21.7 | 650 | 36.8 | 418 | 0.3 | 29.3 | 70.8 | 1011.0 |
| 2013-09-06T21:02 | 2 | 535 | 18.0 | 672 | 33.5 | 418 | 0.5 | 29.3 | 71.0 | 1011.0 |
| 2013-09-06T21:03 | 2 | 544 | 11.5 | 680 | 18.4 | 419 | 0.4 | 29.3 | 71.4 | 1011.0 |
| 2013-09-06T21:04 | 2 | 585 | 16.2 | 741 | 25.6 | 419 | 0.4 | 29.3 | 70.5 | 1011.0 |
| 2013-09-06T21:05 | 2 | 608 | 23.2 | 771 | 37.1 | 420 | 0.7 | 29.2 | 71.3 | 1011.0 |
| 2013-09-06T21:06 | 2 | 637 | 3.5 | 810 | 8.9 | 420 | 0.6 | 29.4 | 71.8 | 1011.0 |
| 2013-09-06T21:07 | 2 | 592 | 40.0 | 723 | 65.4 | 420 | 0.6 | 29.4 | 71.6 | 1011.0 |
| 2013-09-06T21:08 | 2 | 638 | 10.1 | 797 | 15.4 | 420 | 0.4 | 29.5 | 72.1 | 1011.0 |
| 2013-09-06T21:09 | 2 | 628 | 13.1 | 778 | 22.1 | 419 | 1.1 | 29.6 | 71.1 | 1011.0 |
| 2013-09-06T21:10 | 2 | 612 | 3.6 | 748 | 6.5 | 419 | 0.6 | 29.6 | 70.4 | 1011.0 |
| 2013-09-06T21:11 | 2 | 616 | 15.0 | 749 | 21.2 | 419 | 0.5 | 29.5 | 70.7 | 1011.0 |
| 2013-09-06T21:12 | 2 | 669 | 7.3 | 823 | 8.4 | 420 | 0.3 | 29.5 | 71.4 | 1011.0 |
| 2013-09-06T21:13 | 2 | 680 | 2.1 | 826 | 2.9 | 420 | 0.6 | 29.5 | 70.8 | 1011.0 |
| 2013-09-06T21:14 | 2 | 696 | 6.3 | 830 | 3.8 | 420 | 0.5 | 29.5 | 71.0 | 1011.0 |
| 2013-09-06T21:15 | 2 | 627 | 47.0 | 702 | 79.5 | 419 | 0.6 | 29.4 | 70.3 | 1011.0 |
| 2013-09-06T21:16 | 2 | 510 | 82.9 | 514 | 125.2 | 420 | 0.3 | 29.3 | 70.4 | 1011.0 |
| 2013-09-06T21:17 | 2 | 181 | 30.3 | 24 | 39.7 | 420 | 1.1 | 29.4 | 71.0 | 1011.0 |
| 2013-09-06T21:18 | 2 | 151 | 1.7 | 0 | 0.3 | 420 | 0.6 | 29.3 | 70.7 | 1011.0 |
| 2013-09-06T21:19 | 2 | 149 | 0.5 | -1 | 0.5 | 421 | 0.5 | 29.2 | 70.9 | 1011.0 |
| 2013-09-06T21:20 | 2 | 153 | 1.4 | -2 | 0.0 | 422 | 0.8 | 29.1 | 71.3 | 1011.0 |
| 2013-09-06T21:21 | 2 | 159 | 1.9 | -1 | 0.6 | 423 | 0.8 | 29.0 | 71.6 | 1011.0 |
| 2013-09-06T21:22 | 2 | 170 | 5.7 | 0 | 2.2 | 426 | 1.6 | 29.0 | 72.3 | 1011.0 |
| 2013-09-06T21:23 | 2 | 188 | 5.1 | -1 | 1.3 | 428 | 0.9 | 28.9 | 72.5 | 1011.0 |
| 2013-09-06T21:24 | 2 | 196 | 0.5 | 429 | 0.7 | 28.8 | 72.5 | 1011.0 | ||
| 2013-09-06T21:25 | 2 | 203 | 3.4 | 431 | 1.1 | 28.7 | 73.0 | 1011.0 | ||
| 2013-09-06T21:26 | 2 | 216 | 4.1 | -2 | 0.0 | 432 | 1.1 | 28.7 | 73.3 | 1011.0 |
| 2013-09-06T21:27 | 2 | 228 | 2.0 | -1 | 0.3 | 432 | 0.8 | 28.7 | 73.8 | 1011.0 |
| 2013-09-06T21:28 | 2 | 229 | 1.2 | 0 | 0.4 | 433 | 0.4 | 28.7 | 73.9 | 1011.0 |
| 2013-09-06T21:29 | 2 | 228 | 3.7 | 3 | 4.9 | 432 | 0.2 | 28.7 | 73.5 | 1011.0 |
| 2013-09-06T21:30 | 2 | 337 | 50.8 | 154 | 70.0 | 432 | 0.8 | 28.6 | 74.1 | 1011.0 |
| 2013-09-06T21:31 | 2 | 412 | 19.9 | 246 | 31.7 | 432 | 0.2 | 28.8 | 74.6 | 1011.0 |
| 2013-09-06T21:32 | 2 | 420 | 34.2 | 229 | 41.2 | 433 | 0.4 | 28.8 | 74.1 | 1011.0 |
| 2013-09-06T21:33 | 2 | 485 | 41.4 | 294 | 60.9 | 433 | 0.5 | 28.9 | 73.8 | 1011.0 |
| 2013-09-06T21:34 | 2 | 673 | 156.5 | 525 | 228.2 | 435 | 1.3 | 28.9 | 74.1 | 1011.0 |
| 2013-09-06T21:35 | 2 | 543 | 46.1 | 301 | 57.2 | 434 | 1.1 | 29.0 | 74.4 | 1011.0 |
| 2013-09-06T21:36 | 2 | 28.9 | 73.2 | 1011.0 | ||||||
| 2013-09-06T21:37 | 2 | 345 | 60.6 | 48 | 73.1 | 433 | 0.4 | 28.8 | 74.3 | 1011.0 |
| 2013-09-06T21:38 | 2 | 283 | 7.4 | 2 | 0.0 | 433 | 0.4 | 28.8 | 75.3 | 1011.0 |
| 2013-09-06T21:39 | 2 | 273 | 8.4 | 11 | 12.5 | 433 | 1.1 | 28.7 | 74.8 | 1011.0 |
| 2013-09-06T21:40 | 2 | 270 | 9.1 | 8 | 12.3 | 433 | 0.4 | 28.5 | 74.5 | 1011.0 |
| 2013-09-06T21:41 | 2 | 283 | 18.8 | 8 | 11.6 | 434 | 0.3 | 28.4 | 74.8 | 1011.0 |
| 2013-09-06T21:42 | 2 | 359 | 23.0 | 38 | 15.0 | 435 | 1.0 | 28.3 | 74.7 | 1011.0 |
| 2013-09-06T21:43 | 2 | 796 | 181.9 | 559 | 238.9 | 436 | 1.1 | 28.2 | 75.1 | 1011.0 |
| 2013-09-06T21:44 | 2 | 900 | 34.7 | 722 | 63.4 | 434 | 0.8 | 28.2 | 74.7 | 1011.0 |
| 2013-09-06T21:45 | 2 | 803 | 79.5 | 659 | 120.8 | 431 | 0.8 | 28.3 | 75.1 | 1011.0 |
| 2013-09-06T21:46 | 2 | 834 | 57.2 | 763 | 63.4 | 427 | 1.5 | 28.4 | 74.0 | 1011.0 |
| 2013-09-06T21:47 | 2 | 719 | 25.8 | 654 | 42.5 | 425 | 1.5 | 28.5 | 74.4 | 1011.0 |
| 2013-09-06T21:48 | 2 | 810 | 9.4 | 805 | 17.4 | 423 | 0.8 | 28.6 | 74.2 | 1011.0 |
| 2013-09-06T21:49 | 2 | 778 | 19.2 | 772 | 25.4 | 423 | 0.6 | 28.7 | 74.2 | 1011.0 |
| 2013-09-06T21:50 | 2 | 803 | 2.1 | 807 | 3.0 | 423 | 0.5 | 28.9 | 75.6 | 1011.0 |
| 2013-09-06T21:51 | 2 | 785 | 8.9 | 783 | 12.3 | 423 | 1.2 | 29.1 | 73.7 | 1011.0 |
| 2013-09-06T21:52 | 2 | 766 | 12.3 | 753 | 17.5 | 421 | 1.5 | 29.2 | 72.5 | 1011.0 |
| 2013-09-06T21:53 | 2 | 673 | 26.8 | 617 | 34.7 | 420 | 1.2 | 29.2 | 72.1 | 1011.0 |
| 2013-09-06T21:54 | 2 | 683 | 68.0 | 616 | 88.8 | 421 | 0.9 | 29.3 | 72.8 | 1011.0 |
| 2013-09-06T21:55 | 2 | 720 | 34.5 | 659 | 45.7 | 419 | 1.7 | 29.3 | 71.4 | 1011.0 |
| 2013-09-06T21:56 | 2 | 738 | 16.5 | 675 | 21.5 | 420 | 0.7 | 29.2 | 72.0 | 1011.0 |
| 2013-09-06T21:57 | 2 | 622 | 47.5 | 518 | 63.1 | 420 | 1.0 | 29.4 | 72.9 | 1011.0 |
| 2013-09-06T21:58 | 2 | 556 | 39.6 | 428 | 51.9 | 420 | 1.0 | 29.4 | 72.3 | 1011.0 |
| 2013-09-06T21:59 | 2 | 696 | 27.1 | 620 | 38.1 | 419 | 0.5 | 29.3 | 71.0 | 1011.0 |
| 2013-09-06T22:00 | 2 | 663 | 64.0 | 586 | 82.5 | 420 | 1.3 | 29.2 | 72.8 | 1011.0 |
| 2013-09-06T22:01 | 2 | 634 | 16.3 | 548 | 21.0 | 420 | 0.8 | 29.3 | 73.1 | 1011.0 |
| 2013-09-06T22:02 | 2 | 573 | 11.5 | 467 | 14.3 | 421 | 0.8 | 29.5 | 72.5 | 1011.0 |
| 2013-09-06T22:03 | 2 | 587 | 14.2 | 483 | 19.2 | 421 | 1.0 | 29.5 | 72.3 | 1011.0 |
| 2013-09-06T22:04 | 2 | 512 | 19.1 | 381 | 26.0 | 421 | 1.2 | 29.5 | 71.5 | 1011.0 |
| 2013-09-06T22:05 | 2 | 473 | 4.3 | 328 | 6.6 | 420 | 1.1 | 29.4 | 71.3 | 1011.0 |
| 2013-09-06T22:06 | 2 | 475 | 5.9 | 324 | 6.0 | 420 | 0.5 | 29.3 | 71.7 | 1011.0 |
| 2013-09-06T22:07 | 2 | 456 | 16.1 | 294 | 22.3 | 420 | 0.9 | 29.1 | 72.5 | 1011.0 |
| 2013-09-06T22:08 | 2 | 379 | 25.1 | 191 | 33.7 | 421 | 0.5 | 29.2 | 73.8 | 1011.0 |
| 2013-09-06T22:09 | 2 | 385 | 16.6 | 188 | 18.2 | 421 | 0.4 | 29.3 | 72.7 | 1011.0 |
| 2013-09-06T22:10 | 2 | 423 | 10.3 | 227 | 10.3 | 421 | 0.6 | 29.2 | 72.5 | 1011.0 |
| 2013-09-06T22:11 | 2 | 458 | 13.9 | 261 | 13.8 | 420 | 0.5 | 29.0 | 72.1 | 1011.0 |
| 2013-09-06T22:12 | 2 | 501 | 12.8 | 302 | 12.7 | 422 | 1.3 | 29.0 | 73.6 | 1011.0 |
| 2013-09-06T22:13 | 2 | 524 | 2.5 | 322 | 2.1 | 422 | 0.6 | 29.0 | 73.1 | 1011.0 |
| 2013-09-06T22:14 | 2 | 526 | 6.2 | 315 | 6.2 | 422 | 1.0 | 29.0 | 73.4 | 1011.0 |
| 2013-09-06T22:15 | 2 | 561 | 6.8 | 347 | 6.7 | 423 | 0.7 | 29.1 | 74.3 | 1011.0 |
| 2013-09-06T22:16 | 2 | 550 | 11.0 | 325 | 15.3 | 424 | 0.8 | 29.3 | 74.2 | 1011.0 |
| 2013-09-06T22:17 | 2 | 533 | 2.0 | 298 | 3.1 | 422 | 0.8 | 29.3 | 71.4 | 1011.0 |
| 2013-09-06T22:18 | 2 | 515 | 7.0 | 270 | 9.8 | 423 | 0.9 | 29.2 | 72.9 | 1011.0 |
| 2013-09-06T22:19 | 2 | 469 | 11.0 | 211 | 14.2 | 424 | 0.7 | 29.3 | 73.3 | 1011.0 |
| 2013-09-06T22:20 | 2 | 440 | 5.7 | 172 | 6.5 | 423 | 0.8 | 29.3 | 73.0 | 1011.0 |
| 2013-09-06T22:21 | 2 | 417 | 9.3 | 143 | 11.6 | 424 | 0.6 | 29.4 | 73.5 | 1011.0 |
| 2013-09-06T22:22 | 2 | 403 | 4.2 | 124 | 5.7 | 423 | 1.1 | 29.4 | 72.4 | 1011.0 |
| 2013-09-06T22:23 | 2 | 391 | 3.5 | 106 | 4.6 | 422 | 0.2 | 29.2 | 71.6 | 1011.0 |
| 2013-09-06T22:24 | 2 | 393 | 1.2 | 104 | 1.3 | 423 | 0.4 | 29.1 | 72.6 | 1011.0 |
| 2013-09-06T22:25 | 2 | 404 | 6.6 | 113 | 6.3 | 424 | 0.6 | 29.0 | 73.5 | 1011.0 |
| 2013-09-06T22:26 | 2 | 421 | 1.5 | 128 | 1.0 | 423 | 0.6 | 29.1 | 73.3 | 1011.0 |
| 2013-09-06T22:27 | 2 | 430 | 5.2 | 132 | 4.5 | 424 | 0.9 | 29.0 | 73.9 | 1011.0 |
| 2013-09-06T22:28 | 2 | 449 | 5.3 | 147 | 4.0 | 423 | 0.5 | 29.1 | 73.0 | 1011.0 |
| 2013-09-06T22:29 | 2 | 483 | 15.5 | 179 | 15.9 | 424 | 0.7 | 29.0 | 73.7 | 1011.0 |
| 2013-09-06T22:30 | 2 | 517 | 4.3 | 213 | 4.1 | 424 | 0.6 | 29.1 | 73.9 | 1011.0 |
| 2013-09-06T22:31 | 2 | 540 | 9.5 | 232 | 9.0 | 424 | 0.5 | 29.1 | 74.5 | 1011.0 |
| 2013-09-06T22:32 | 2 | 557 | 9.3 | 246 | 9.1 | 424 | 1.3 | 29.3 | 73.9 | 1011.0 |
| 2013-09-06T22:33 | 2 | 589 | 6.7 | 277 | 5.9 | 423 | 0.6 | 29.2 | 72.1 | 1011.0 |
| 2013-09-06T22:34 | 2 | 609 | 5.2 | 293 | 4.3 | 423 | 0.4 | 29.0 | 72.2 | 1011.0 |
| 2013-09-06T22:35 | 2 | 627 | 3.9 | 309 | 3.7 | 424 | 1.3 | 29.0 | 73.5 | 1011.0 |
| 2013-09-06T22:36 | 2 | 626 | 1.8 | 305 | 2.6 | 424 | 0.5 | 29.2 | 73.3 | 1011.0 |
| 2013-09-06T22:37 | 2 | 614 | 7.4 | 289 | 8.9 | 424 | 0.8 | 29.3 | 72.5 | 1011.0 |
| 2013-09-06T22:38 | 2 | 601 | 3.0 | 272 | 3.0 | 423 | 0.6 | 29.2 | 72.1 | 1011.0 |
| 2013-09-06T22:39 | 2 | 610 | 7.2 | 282 | 8.0 | 424 | 0.6 | 29.3 | 72.6 | 1011.0 |
| 2013-09-06T22:40 | 2 | 625 | 6.6 | 300 | 7.2 | 424 | 0.8 | 29.3 | 72.2 | 1011.0 |
| 2013-09-06T22:41 | 2 | 615 | 2.6 | 288 | 2.9 | 425 | 1.0 | 29.3 | 73.3 | 1011.0 |
| 2013-09-06T22:42 | 2 | 623 | 4.2 | 297 | 4.5 | 424 | 0.7 | 29.4 | 72.3 | 1011.0 |
| 2013-09-06T22:43 | 2 | 621 | 3.3 | 295 | 3.7 | 425 | 0.9 | 29.5 | 73.1 | 1011.0 |
| 2013-09-06T22:44 | 2 | 635 | 4.4 | 312 | 5.1 | 425 | 0.7 | 29.6 | 73.5 | 1011.0 |
| 2013-09-06T22:45 | 2 | 654 | 8.6 | 333 | 9.1 | 423 | 0.5 | 29.6 | 70.9 | 1011.0 |
| 2013-09-06T22:46 | 2 | 676 | 9.6 | 356 | 10.5 | 424 | 0.4 | 29.5 | 72.3 | 1011.0 |
| 2013-09-06T22:47 | 2 | 703 | 10.2 | 386 | 11.2 | 423 | 0.6 | 29.4 | 71.7 | 1011.0 |
| 2013-09-06T22:48 | 2 | 756 | 12.2 | 446 | 13.9 | 423 | 0.7 | 29.4 | 72.3 | 1011.0 |
| 2013-09-06T22:49 | 2 | 789 | 9.9 | 484 | 11.4 | 424 | 0.5 | 29.4 | 72.6 | 1011.0 |
| 2013-09-06T22:50 | 2 | 834 | 8.2 | 536 | 9.9 | 423 | 1.3 | 29.5 | 72.3 | 1011.0 |
| 2013-09-06T22:51 | 2 | 842 | 5.5 | 546 | 6.7 | 424 | 1.4 | 29.4 | 72.7 | 1011.0 |
| 2013-09-06T22:52 | 2 | 855 | 4.2 | 564 | 4.8 | 423 | 1.2 | 29.5 | 71.3 | 1011.0 |
| 2013-09-06T22:53 | 2 | 872 | 3.9 | 583 | 4.3 | 423 | 0.7 | 29.4 | 71.6 | 1011.0 |
| 2013-09-06T22:54 | 2 | 861 | 9.9 | 571 | 10.2 | 426 | 1.0 | 29.5 | 73.3 | 1011.0 |
| 2013-09-06T22:55 | 2 | 834 | 2.9 | 543 | 3.0 | 424 | 0.5 | 29.7 | 72.0 | 1011.0 |
| 2013-09-06T22:56 | 2 | 825 | 4.0 | 532 | 4.7 | 425 | 1.0 | 29.9 | 71.7 | 1011.0 |
| 2013-09-06T22:57 | 2 | 816 | 14.6 | 519 | 16.2 | 423 | 0.6 | 29.9 | 70.6 | 1011.0 |
| 2013-09-06T22:58 | 2 | 742 | 29.3 | 436 | 31.9 | 423 | 0.9 | 29.8 | 70.2 | 1011.0 |
| 2013-09-06T22:59 | 2 | 624 | 27.8 | 306 | 31.0 | 423 | 0.6 | 29.7 | 70.4 | 1011.0 |
| 2013-09-06T23:00 | 2 | 565 | 22.9 | 241 | 24.1 | 424 | 0.5 | 29.7 | 71.4 | 1011.0 |
| 2013-09-06T23:01 | 2 | 507 | 10.0 | 179 | 11.2 | 423 | 0.7 | 29.7 | 71.1 | 1011.0 |
| 2013-09-06T23:02 | 2 | 504 | 13.7 | 173 | 13.9 | 423 | 0.6 | 29.7 | 71.3 | 1011.0 |
| 2013-09-06T23:03 | 2 | 499 | 13.6 | 167 | 14.8 | 423 | 0.9 | 29.7 | 71.3 | 1011.0 |
| 2013-09-06T23:04 | 2 | 454 | 17.3 | 117 | 18.7 | 423 | 0.7 | 29.6 | 70.7 | 1011.0 |
| 2013-09-06T23:05 | 2 | 387 | 14.1 | 47 | 15.1 | 423 | 0.7 | 29.6 | 70.7 | 1011.0 |
| 2013-09-06T23:06 | 2 | 376 | 12.4 | 34 | 12.9 | 423 | 0.5 | 29.5 | 70.9 | 1011.0 |
| 2013-09-06T23:07 | 2 | 410 | 2.5 | 69 | 2.7 | 423 | 0.8 | 29.3 | 71.8 | 1011.0 |
| 2013-09-06T23:08 | 2 | 419 | 7.9 | 75 | 7.2 | 424 | 0.7 | 29.3 | 72.4 | 1011.0 |
| 2013-09-06T23:09 | 2 | 442 | 10.5 | 95 | 9.8 | 424 | 0.9 | 29.3 | 72.5 | 1011.0 |
| 2013-09-06T23:10 | 2 | 454 | 6.4 | 104 | 7.3 | 425 | 0.9 | 29.2 | 73.0 | 1011.0 |
| 2013-09-06T23:11 | 2 | 450 | 3.1 | 98 | 3.7 | 425 | 0.6 | 29.3 | 73.7 | 1011.0 |
| 2013-09-06T23:12 | 2 | 428 | 10.9 | 72 | 12.2 | 425 | 0.9 | 29.4 | 73.5 | 1011.0 |
| 2013-09-06T23:13 | 2 | 396 | 5.5 | 35 | 6.7 | 424 | 0.5 | 29.3 | 72.4 | 1011.0 |
| 2013-09-06T23:14 | 2 | 393 | 1.4 | 29 | 0.5 | 424 | 0.5 | 29.2 | 72.7 | 1011.0 |
| 2013-09-06T23:15 | 2 | 404 | 3.7 | 36 | 2.6 | 425 | 0.6 | 29.1 | 73.0 | 1011.0 |
| 2013-09-06T23:16 | 2 | 407 | 0.7 | 35 | 1.6 | 426 | 1.0 | 29.2 | 73.8 | 1011.0 |
| 2013-09-06T23:17 | 2 | 406 | 2.3 | 28 | 4.0 | 427 | 0.7 | 29.3 | 74.0 | 1011.0 |
| 2013-09-06T23:18 | 2 | 410 | 10.3 | 24 | 7.6 | 426 | 1.0 | 29.3 | 73.1 | 1011.0 |
| 2013-09-06T23:19 | 2 | 460 | 17.2 | 64 | 14.8 | 427 | 0.9 | 29.3 | 73.5 | 1011.0 |
| 2013-09-06T23:20 | 2 | 507 | 10.4 | 101 | 7.5 | 427 | 0.5 | 29.2 | 72.5 | 1011.0 |
| 2013-09-06T23:21 | 2 | 549 | 15.7 | 132 | 13.4 | 428 | 0.4 | 29.2 | 73.5 | 1011.0 |
| 2013-09-06T23:22 | 2 | 581 | 10.7 | 157 | 12.6 | 428 | 0.6 | 29.2 | 72.7 | 1011.0 |
| 2013-09-06T23:23 | 2 | 556 | 4.9 | 126 | 5.3 | 429 | 0.4 | 29.1 | 73.5 | 1011.0 |
| 2013-09-06T23:24 | 2 | 545 | 9.3 | 109 | 9.6 | 430 | 0.3 | 29.1 | 73.3 | 1011.0 |
| 2013-09-06T23:25 | 2 | 550 | 22.5 | 111 | 21.5 | 430 | 0.4 | 29.1 | 73.5 | 1011.0 |
| 2013-09-06T23:26 | 2 | 525 | 29.6 | 83 | 29.1 | 431 | 0.5 | 29.2 | 74.1 | 1011.0 |
| 2013-09-06T23:27 | 2 | 581 | 48.5 | 137 | 47.2 | 432 | 0.4 | 29.2 | 73.4 | 1011.0 |
| 2013-09-06T23:28 | 2 | 536 | 59.6 | 102 | 53.8 | 432 | 0.9 | 29.2 | 73.8 | 1011.0 |
| 2013-09-06T23:29 | 2 | 443 | 18.6 | 25 | 18.1 | 433 | 0.4 | 29.2 | 73.0 | 1011.0 |
| 2013-09-06T23:30 | 2 | 413 | 17.8 | 11 | 15.5 | 433 | 0.2 | 29.1 | 72.7 | 1011.0 |
| 2013-09-06T23:31 | 2 | 470 | 11.8 | 60 | 10.6 | 432 | 0.3 | 29.1 | 73.1 | 1011.0 |
| 2013-09-06T23:32 | 2 | 448 | 20.3 | 41 | 16.7 | 433 | 0.5 | 29.1 | 73.7 | 1011.0 |
| 2013-09-06T23:33 | 2 | 396 | 6.5 | 8 | 2.3 | 433 | 0.5 | 29.1 | 73.5 | 1011.0 |
| 2013-09-06T23:34 | 2 | 378 | 8.8 | 6 | 3.1 | 434 | 0.3 | 29.1 | 73.8 | 1011.0 |
| 2013-09-06T23:35 | 2 | 361 | 1.8 | 2 | 1.3 | 434 | 0.4 | 29.2 | 73.9 | 1011.0 |
| 2013-09-06T23:36 | 2 | 357 | 4.1 | 0 | 2.6 | 434 | 0.9 | 29.1 | 72.6 | 1011.0 |
| 2013-09-06T23:37 | 2 | 361 | 1.7 | 0 | 0.8 | 433 | 0.5 | 29.1 | 73.4 | 1011.0 |
| 2013-09-06T23:38 | 2 | 368 | 2.5 | 3 | 1.8 | 431 | 0.5 | 29.1 | 73.2 | 1011.0 |
| 2013-09-06T23:39 | 2 | 366 | 2.3 | 2 | 1.3 | 431 | 0.4 | 29.0 | 73.1 | 1011.0 |
| 2013-09-06T23:40 | 2 | 360 | 2.3 | 1 | 1.1 | 432 | 0.3 | 29.0 | 73.2 | 1011.0 |
| 2013-09-06T23:41 | 2 | 356 | 3.5 | 3 | 2.4 | 433 | 0.5 | 28.9 | 72.9 | 1011.0 |
| 2013-09-06T23:42 | 2 | 344 | 2.6 | 0 | 2.0 | 434 | 0.8 | 28.9 | 73.1 | 1011.0 |
| 2013-09-06T23:43 | 2 | 356 | 4.3 | 4 | 0.7 | 435 | 0.4 | 28.9 | 73.4 | 1011.0 |
| 2013-09-06T23:44 | 2 | 377 | 7.3 | 4 | 0.6 | 436 | 0.3 | 29.0 | 74.4 | 1011.0 |
| 2013-09-06T23:45 | 2 | 409 | 12.0 | 13 | 5.3 | 435 | 0.6 | 29.1 | 74.4 | 1011.0 |
| 2013-09-06T23:46 | 2 | 511 | 56.6 | 89 | 48.5 | 434 | 0.4 | 29.1 | 74.0 | 1011.0 |
| 2013-09-06T23:47 | 2 | 673 | 91.8 | 217 | 80.7 | 434 | 1.1 | 29.1 | 74.2 | 1011.0 |
| 2013-09-06T23:48 | 2 | 819 | 42.3 | 337 | 44.2 | 436 | 1.9 | 29.2 | 75.2 | 1011.0 |
| 2013-09-06T23:49 | 2 | 529 | 63.7 | 52 | 55.7 | 436 | 0.7 | 29.3 | 73.1 | 1011.0 |
| 2013-09-06T23:50 | 2 | 556 | 116.6 | 64 | 99.6 | 440 | 1.3 | 29.3 | 73.7 | 1011.0 |
| 2013-09-06T23:51 | 2 | 599 | 129.3 | 101 | 119.6 | 442 | 0.4 | 29.3 | 72.7 | 1011.0 |
| 2013-09-06T23:52 | 2 | 677 | 152.3 | 444 | 1.0 | 29.3 | 73.8 | 1011.0 | ||
| 2013-09-06T23:53 | 2 | 486 | 12.4 | 444 | 0.9 | 29.3 | 73.2 | 1011.0 | ||
| 2013-09-06T23:54 | 2 | 526 | 17.5 | 444 | 0.5 | 29.4 | 73.8 | 1011.0 | ||
| 2013-09-06T23:55 | 2 | 608 | 111.6 | 442 | 0.7 | 29.4 | 73.3 | 1011.0 | ||
| 2013-09-06T23:56 | 2 | 900 | 126.0 | 441 | 0.9 | 29.4 | 73.9 | 1011.0 | ||
| 2013-09-06T23:57 | 2 | 29.4 | 74.4 | 1011.0 | ||||||
| 2013-09-06T23:58 | 2 | 29.6 | 74.7 | 1011.0 | ||||||
| 2013-09-06T23:59 | 2 | 29.8 | 75.0 | 1011.0 | ||||||
| 2013-09-07T00:00 | 2 | 29.8 | 72.5 | 1011.0 | ||||||
| 2013-09-07T00:01 | 2 | 29.8 | 72.3 | 1011.0 | ||||||
| 2013-09-07T00:02 | 2 | 29.7 | 72.2 | 1011.0 | ||||||
| 2013-09-07T00:03 | 2 | 509 | 15.6 | 436 | 2.3 | 29.7 | 72.4 | 1011.0 | ||
| 2013-09-07T00:04 | 2 | 438 | 76.0 | 435 | 1.8 | 29.7 | 72.8 | 1011.0 | ||
| 2013-09-07T00:05 | 2 | 473 | 93.0 | 432 | 1.6 | 29.6 | 71.7 | 1011.0 | ||
| 2013-09-07T00:06 | 2 | 730 | 47.1 | 430 | 1.6 | 29.5 | 72.6 | 1011.0 | ||
| 2013-09-07T00:07 | 2 | 818 | 20.1 | 430 | 1.3 | 29.6 | 73.3 | 1011.0 | ||
| 2013-09-07T00:08 | 2 | 863 | 6.6 | 430 | 0.8 | 29.7 | 73.5 | 1011.0 | ||
| 2013-09-07T00:09 | 2 | 878 | 3.2 | 430 | 0.8 | 29.8 | 73.6 | 1011.0 | ||
| 2013-09-07T00:10 | 2 | 880 | 3.9 | 429 | 0.7 | 29.9 | 71.7 | 1010.0 | ||
| 2013-09-07T00:11 | 2 | 864 | 4.8 | 429 | 1.1 | 29.8 | 72.3 | 1010.0 | ||
| 2013-09-07T00:12 | 2 | 827 | 17.1 | 429 | 0.5 | 29.8 | 71.0 | 1010.0 | ||
| 2013-09-07T00:13 | 2 | 759 | 17.7 | 429 | 0.6 | 29.7 | 71.6 | 1010.0 | ||
| 2013-09-07T00:14 | 2 | 731 | 18.0 | 429 | 1.0 | 29.8 | 73.4 | 1010.0 | ||
| 2013-09-07T00:15 | 2 | 632 | 84.7 | 428 | 0.6 | 29.9 | 71.8 | 1010.0 | ||
| 2013-09-07T00:16 | 2 | 643 | 19.9 | 427 | 1.1 | 29.8 | 72.3 | 1010.0 | ||
| 2013-09-07T00:17 | 2 | 927 | 64.3 | 523 | 64.0 | 426 | 0.4 | 29.7 | 71.0 | 1010.0 |
| 2013-09-07T00:18 | 2 | 747 | 32.9 | 344 | 33.4 | 427 | 0.5 | 29.6 | 72.1 | 1010.0 |
| 2013-09-07T00:19 | 2 | 714 | 17.1 | 306 | 17.2 | 427 | 0.8 | 29.6 | 72.1 | 1010.0 |
| 2013-09-07T00:20 | 2 | 669 | 15.9 | 259 | 15.9 | 428 | 1.0 | 29.7 | 74.2 | 1010.0 |
| 2013-09-07T00:21 | 2 | 652 | 37.6 | 238 | 34.2 | 428 | 0.7 | 29.9 | 72.7 | 1010.0 |
| 2013-09-07T00:22 | 2 | 744 | 8.0 | 322 | 7.1 | 428 | 0.5 | 29.9 | 72.0 | 1010.0 |
| 2013-09-07T00:23 | 2 | 763 | 15.3 | 339 | 14.5 | 428 | 0.6 | 30.0 | 71.0 | 1010.0 |
| 2013-09-07T00:24 | 2 | 733 | 16.1 | 311 | 14.4 | 428 | 1.1 | 29.9 | 71.4 | 1010.0 |
| 2013-09-07T00:25 | 2 | 853 | 62.4 | 429 | 60.5 | 428 | 1.7 | 30.0 | 71.3 | 1010.0 |
| 2013-09-07T00:26 | 2 | 986 | 27.9 | 560 | 27.5 | 427 | 0.9 | 29.9 | 70.9 | 1010.0 |
| 2013-09-07T00:27 | 2 | 1027 | 23.5 | 605 | 23.6 | 428 | 2.9 | 29.9 | 72.8 | 1010.0 |
| 2013-09-07T00:28 | 2 | 1051 | 30.8 | 628 | 30.0 | 427 | 1.2 | 30.1 | 72.5 | 1010.0 |
| 2013-09-07T00:29 | 2 | 1050 | 36.8 | 615 | 33.0 | 426 | 0.6 | 29.9 | 71.0 | 1010.0 |
| 2013-09-07T00:30 | 2 | 1037 | 35.1 | 602 | 32.5 | 426 | 0.8 | 29.9 | 72.3 | 1010.0 |
| 2013-09-07T00:31 | 2 | 922 | 48.5 | 489 | 44.6 | 426 | 1.0 | 29.8 | 72.4 | 1010.0 |
| 2013-09-07T00:32 | 2 | 1161 | 76.4 | 727 | 72.4 | 425 | 0.4 | 29.7 | 71.1 | 1010.0 |
| 2013-09-07T00:33 | 2 | 947 | 49.5 | 546 | 47.2 | 425 | 0.8 | 29.6 | 72.1 | 1010.0 |
| 2013-09-07T00:34 | 2 | 882 | 33.9 | 499 | 32.0 | 425 | 0.9 | 29.6 | 72.9 | 1010.0 |
| 2013-09-07T00:35 | 2 | 897 | 27.8 | 509 | 24.9 | 425 | 0.6 | 29.6 | 72.1 | 1010.0 |
| 2013-09-07T00:36 | 2 | 907 | 97.6 | 504 | 96.5 | 426 | 0.6 | 29.6 | 72.8 | 1010.0 |
| 2013-09-07T00:37 | 2 | 844 | 127.5 | 439 | 133.2 | 426 | 1.2 | 29.6 | 72.4 | 1010.0 |
| 2013-09-07T00:38 | 2 | 964 | 75.9 | 589 | 69.2 | 425 | 0.8 | 29.6 | 72.6 | 1010.0 |
| 2013-09-07T00:39 | 2 | 951 | 24.9 | 571 | 27.2 | 425 | 0.4 | 29.4 | 71.7 | 1010.0 |
| 2013-09-07T00:40 | 2 | 954 | 67.4 | 544 | 66.5 | 425 | 0.2 | 29.4 | 72.1 | 1010.0 |
| 2013-09-07T00:41 | 2 | 806 | 121.3 | 382 | 111.7 | 427 | 0.8 | 29.4 | 73.5 | 1010.0 |
| 2013-09-07T00:42 | 2 | 624 | 118.3 | 217 | 109.1 | 427 | 0.6 | 29.5 | 73.2 | 1010.0 |
| 2013-09-07T00:43 | 2 | 642 | 97.8 | 239 | 94.0 | 426 | 1.2 | 29.5 | 72.4 | 1010.0 |
| 2013-09-07T00:44 | 2 | 528 | 84.6 | 157 | 73.7 | 425 | 1.1 | 29.4 | 72.7 | 1010.0 |
| 2013-09-07T00:45 | 2 | 801 | 100.8 | 424 | 102.4 | 424 | 0.4 | 29.3 | 72.6 | 1010.0 |
| 2013-09-07T00:46 | 2 | 941 | 171.4 | 582 | 170.0 | 423 | 0.7 | 29.3 | 72.8 | 1010.0 |
| 2013-09-07T00:47 | 2 | 1156 | 42.2 | 852 | 39.1 | 423 | 0.9 | 29.3 | 73.3 | 1010.0 |
| 2013-09-07T00:48 | 2 | 1183 | 10.2 | 890 | 8.8 | 424 | 1.5 | 29.5 | 75.1 | 1010.0 |
| 2013-09-07T00:49 | 2 | 1204 | 12.5 | 897 | 6.0 | 425 | 1.8 | 29.6 | 73.4 | 1010.0 |
| 2013-09-07T00:50 | 2 | 1150 | 25.9 | 817 | 27.3 | 425 | 1.9 | 29.9 | 74.6 | 1010.0 |
| 2013-09-07T00:51 | 2 | 1062 | 78.6 | 704 | 81.2 | 425 | 1.1 | 29.9 | 72.6 | 1010.0 |
| 2013-09-07T00:52 | 2 | 685 | 56.8 | 326 | 54.1 | 424 | 2.3 | 29.8 | 71.3 | 1010.0 |
| 2013-09-07T00:53 | 2 | 581 | 158.5 | 242 | 141.7 | 424 | 0.6 | 29.7 | 72.2 | 1010.0 |
| 2013-09-07T00:54 | 2 | 546 | 146.2 | 217 | 133.8 | 424 | 0.4 | 29.7 | 71.6 | 1010.0 |
| 2013-09-07T00:55 | 2 | 987 | 138.3 | 616 | 118.9 | 426 | 2.2 | 29.6 | 72.1 | 1010.0 |
| 2013-09-07T00:56 | 2 | 731 | 270.2 | 336 | 247.2 | 427 | 0.7 | 29.6 | 71.9 | 1010.0 |
| 2013-09-07T00:57 | 2 | 1044 | 167.4 | 635 | 167.7 | 428 | 1.7 | 29.7 | 72.8 | 1010.0 |
| 2013-09-07T00:58 | 2 | 1167 | 44.3 | 802 | 47.2 | 427 | 1.2 | 29.9 | 73.0 | 1010.0 |
| 2013-09-07T00:59 | 2 | 1090 | 101.5 | 740 | 94.2 | 428 | 0.9 | 29.9 | 72.7 | 1010.0 |
| 2013-09-07T01:00 | 2 | 1166 | 76.2 | 835 | 79.6 | 427 | 1.1 | 29.9 | 72.0 | 1010.0 |
| 2013-09-07T01:01 | 2 | 1124 | 98.7 | 806 | 92.1 | 428 | 1.6 | 30.1 | 73.6 | 1010.0 |
| 2013-09-07T01:02 | 2 | 1241 | 10.2 | 925 | 13.3 | 428 | 2.4 | 30.3 | 71.3 | 1010.0 |
| 2013-09-07T01:03 | 2 | 1252 | 13.6 | 928 | 6.9 | 428 | 2.1 | 30.3 | 70.9 | 1010.0 |
| 2013-09-07T01:04 | 2 | 1192 | 33.9 | 840 | 35.8 | 428 | 1.3 | 30.3 | 69.9 | 1010.0 |
| 2013-09-07T01:05 | 2 | 892 | 83.0 | 514 | 85.5 | 429 | 1.3 | 30.4 | 69.5 | 1010.0 |
| 2013-09-07T01:06 | 2 | 1066 | 99.3 | 683 | 96.7 | 428 | 0.9 | 30.2 | 68.2 | 1010.0 |
| 2013-09-07T01:07 | 2 | 1094 | 136.3 | 740 | 124.3 | 428 | 0.5 | 30.1 | 68.9 | 1010.0 |
| 2013-09-07T01:08 | 2 | 1108 | 120.2 | 780 | 127.1 | 428 | 1.1 | 30.1 | 70.9 | 1010.0 |
| 2013-09-07T01:09 | 2 | 1184 | 29.4 | 901 | 36.3 | 427 | 1.0 | 30.2 | 69.3 | 1010.0 |
| 2013-09-07T01:10 | 2 | 1190 | 3.3 | 928 | 1.0 | 428 | 1.2 | 30.3 | 70.6 | 1010.0 |
| 2013-09-07T01:11 | 2 | 1182 | 3.4 | 929 | 1.7 | 426 | 1.4 | 30.4 | 68.4 | 1010.0 |
| 2013-09-07T01:12 | 2 | 1156 | 15.2 | 915 | 15.0 | 426 | 1.0 | 30.3 | 69.8 | 1010.0 |
| 2013-09-07T01:13 | 2 | 1149 | 5.2 | 928 | 0.5 | 425 | 1.9 | 30.3 | 69.4 | 1010.0 |
| 2013-09-07T01:14 | 2 | 1136 | 2.2 | 926 | 0.5 | 424 | 1.0 | 30.2 | 69.6 | 1010.0 |
| 2013-09-07T01:15 | 2 | 1126 | 6.2 | 924 | 7.1 | 425 | 1.3 | 30.3 | 71.8 | 1010.0 |
| 2013-09-07T01:16 | 2 | 1128 | 1.4 | 928 | 0.5 | 424 | 1.3 | 30.4 | 70.1 | 1010.0 |
| 2013-09-07T01:17 | 2 | 1130 | 2.2 | 926 | 1.3 | 424 | 1.2 | 30.4 | 69.6 | 1010.0 |
| 2013-09-07T01:18 | 2 | 1130 | 3.3 | 928 | 2.0 | 423 | 0.6 | 30.3 | 68.3 | 1010.0 |
| 2013-09-07T01:19 | 2 | 1106 | 50.0 | 890 | 41.5 | 424 | 0.8 | 30.2 | 69.6 | 1010.0 |
| 2013-09-07T01:20 | 2 | 1057 | 143.9 | 784 | 150.8 | 424 | 1.5 | 30.1 | 69.8 | 1010.0 |
| 2013-09-07T01:21 | 2 | 675 | 256.6 | 375 | 246.4 | 425 | 0.9 | 30.0 | 70.0 | 1010.0 |
| 2013-09-07T01:22 | 2 | 1074 | 169.6 | 785 | 155.4 | 426 | 2.4 | 30.0 | 71.6 | 1010.0 |
| 2013-09-07T01:23 | 2 | 470 | 85.5 | 197 | 80.8 | 425 | 1.7 | 30.2 | 71.2 | 1010.0 |
| 2013-09-07T01:24 | 2 | 892 | 204.3 | 631 | 208.7 | 423 | 0.7 | 30.1 | 69.2 | 1010.0 |
| 2013-09-07T01:25 | 2 | 1015 | 177.2 | 794 | 188.0 | 423 | 0.9 | 29.9 | 69.7 | 1010.0 |
| 2013-09-07T01:26 | 2 | 1103 | 13.7 | 913 | 11.0 | 424 | 0.9 | 29.8 | 70.0 | 1010.0 |
| 2013-09-07T01:27 | 2 | 1049 | 17.9 | 856 | 15.5 | 424 | 1.1 | 29.7 | 69.7 | 1010.0 |
| 2013-09-07T01:28 | 2 | 1089 | 51.4 | 849 | 58.4 | 426 | 1.7 | 29.7 | 70.8 | 1010.0 |
| 2013-09-07T01:29 | 2 | 776 | 128.6 | 465 | 120.8 | 427 | 2.2 | 29.6 | 70.1 | 1010.0 |
| 2013-09-07T01:30 | 2 | 1113 | 88.4 | 824 | 92.4 | 428 | 1.1 | 29.8 | 71.7 | 1010.0 |
| 2013-09-07T01:31 | 2 | 1154 | 3.9 | 905 | 10.0 | 428 | 1.5 | 30.1 | 72.1 | 1010.0 |
| 2013-09-07T01:32 | 2 | 1134 | 10.4 | 913 | 0.9 | 425 | 1.2 | 30.2 | 69.6 | 1010.0 |
| 2013-09-07T01:33 | 2 | 1087 | 13.2 | 905 | 6.7 | 425 | 1.1 | 30.2 | 71.5 | 1009.0 |
| 2013-09-07T01:34 | 2 | 1076 | 2.4 | 919 | 3.6 | 423 | 1.7 | 30.3 | 70.0 | 1009.0 |
| 2013-09-07T01:35 | 2 | 1066 | 1.5 | 922 | 1.6 | 422 | 1.8 | 30.2 | 68.8 | 1009.0 |
| 2013-09-07T01:36 | 2 | 1062 | 0.8 | 923 | 0.4 | 421 | 1.0 | 30.0 | 68.6 | 1009.0 |
| 2013-09-07T01:37 | 2 | 1062 | 0.5 | 923 | 0.6 | 421 | 1.0 | 29.9 | 70.0 | 1009.0 |
| 2013-09-07T01:38 | 2 | 1052 | 15.8 | 911 | 15.3 | 422 | 0.9 | 29.9 | 70.4 | 1009.0 |
| 2013-09-07T01:39 | 2 | 1068 | 5.4 | 922 | 4.1 | 421 | 0.7 | 29.9 | 69.0 | 1009.0 |
| 2013-09-07T01:40 | 2 | 1079 | 2.1 | 924 | 0.9 | 422 | 1.3 | 29.9 | 70.3 | 1009.0 |
| 2013-09-07T01:41 | 2 | 1086 | 2.8 | 925 | 0.3 | 421 | 0.9 | 29.8 | 69.2 | 1009.0 |
| 2013-09-07T01:42 | 2 | 1090 | 9.9 | 916 | 13.2 | 422 | 1.8 | 29.7 | 69.4 | 1009.0 |
| 2013-09-07T01:43 | 2 | 1004 | 38.9 | 805 | 46.7 | 422 | 0.8 | 29.8 | 70.1 | 1009.0 |
| 2013-09-07T01:44 | 2 | 870 | 97.5 | 654 | 95.8 | 422 | 1.8 | 29.8 | 69.8 | 1009.0 |
| 2013-09-07T01:45 | 2 | 982 | 42.9 | 778 | 48.6 | 421 | 0.8 | 29.7 | 69.3 | 1009.0 |
| 2013-09-07T01:46 | 2 | 1062 | 16.2 | 880 | 15.4 | 422 | 1.0 | 29.7 | 70.3 | 1009.0 |
| 2013-09-07T01:47 | 2 | 1015 | 88.0 | 842 | 84.8 | 421 | 1.3 | 29.7 | 69.9 | 1009.0 |
| 2013-09-07T01:48 | 2 | 1076 | 8.1 | 918 | 10.7 | 421 | 1.2 | 29.8 | 71.1 | 1009.0 |
| 2013-09-07T01:49 | 2 | 1065 | 3.0 | 925 | 0.3 | 422 | 0.7 | 29.9 | 70.9 | 1009.0 |
| 2013-09-07T01:50 | 2 | 1058 | 1.5 | 924 | 0.5 | 422 | 1.1 | 30.0 | 71.4 | 1009.0 |
| 2013-09-07T01:51 | 2 | 1055 | 0.4 | 924 | 0.5 | 421 | 1.5 | 30.1 | 69.8 | 1009.0 |
| 2013-09-07T01:52 | 2 | 1057 | 0.7 | 924 | 0.5 | 421 | 1.4 | 30.0 | 69.9 | 1009.0 |
| 2013-09-07T01:53 | 2 | 1055 | 1.5 | 923 | 0.8 | 421 | 2.1 | 30.1 | 70.4 | 1009.0 |
| 2013-09-07T01:54 | 2 | 1040 | 12.2 | 918 | 11.1 | 420 | 1.0 | 30.1 | 70.2 | 1009.0 |
| 2013-09-07T01:55 | 2 | 1035 | 2.2 | 923 | 0.6 | 421 | 1.7 | 30.2 | 71.3 | 1009.0 |
| 2013-09-07T01:56 | 2 | 1028 | 1.7 | 924 | 0.5 | 418 | 2.0 | 30.2 | 68.8 | 1009.0 |
| 2013-09-07T01:57 | 2 | 1027 | 2.9 | 925 | 3.1 | 419 | 1.3 | 30.1 | 70.0 | 1009.0 |
| 2013-09-07T01:58 | 2 | 963 | 67.4 | 861 | 64.7 | 418 | 1.0 | 30.0 | 69.5 | 1009.0 |
| 2013-09-07T01:59 | 2 | 991 | 43.5 | 880 | 45.4 | 420 | 0.7 | 29.9 | 70.3 | 1009.0 |
| 2013-09-07T02:00 | 2 | 993 | 48.3 | 892 | 47.7 | 420 | 1.8 | 30.0 | 71.2 | 1009.0 |
| 2013-09-07T02:01 | 2 | 1010 | 1.7 | 921 | 0.6 | 420 | 1.4 | 30.0 | 70.8 | 1009.0 |
| 2013-09-07T02:02 | 2 | 1006 | 0.7 | 921 | 0.4 | 420 | 1.3 | 30.1 | 70.9 | 1009.0 |
| 2013-09-07T02:03 | 2 | 1004 | 0.5 | 920 | 0.8 | 419 | 0.9 | 30.0 | 70.6 | 1009.0 |
| 2013-09-07T02:04 | 2 | 1005 | 0.3 | 919 | 0.5 | 419 | 2.6 | 30.0 | 70.8 | 1009.0 |
| 2013-09-07T02:05 | 2 | 1004 | 0.6 | 919 | 0.3 | 419 | 1.8 | 30.0 | 69.9 | 1009.0 |
| 2013-09-07T02:06 | 2 | 985 | 30.1 | 898 | 31.5 | 420 | 2.2 | 29.8 | 70.9 | 1009.0 |
| 2013-09-07T02:07 | 2 | 999 | 0.8 | 918 | 1.1 | 421 | 0.7 | 30.0 | 71.5 | 1009.0 |
| 2013-09-07T02:08 | 2 | 1000 | 0.4 | 919 | 0.9 | 420 | 1.6 | 30.1 | 71.1 | 1009.0 |
| 2013-09-07T02:09 | 2 | 1000 | 1.0 | 919 | 0.9 | 421 | 0.9 | 30.2 | 71.7 | 1009.0 |
| 2013-09-07T02:10 | 2 | 994 | 3.6 | 916 | 5.0 | 421 | 1.6 | 30.3 | 72.2 | 1009.0 |
| 2013-09-07T02:11 | 2 | 992 | 1.0 | 918 | 0.9 | 420 | 0.7 | 30.3 | 70.5 | 1009.0 |
| 2013-09-07T02:12 | 2 | 991 | 0.6 | 920 | 0.7 | 419 | 2.4 | 30.3 | 70.8 | 1009.0 |
| 2013-09-07T02:13 | 2 | 989 | 0.4 | 920 | 0.9 | 420 | 0.8 | 30.3 | 71.5 | 1009.0 |
| 2013-09-07T02:14 | 2 | 988 | 0.5 | 920 | 0.8 | 419 | 0.8 | 30.2 | 69.7 | 1009.0 |
| 2013-09-07T02:15 | 2 | 987 | 0.5 | 918 | 1.4 | 419 | 1.1 | 30.1 | 70.0 | 1009.0 |
| 2013-09-07T02:16 | 2 | 987 | 0.8 | 917 | 0.9 | 420 | 1.5 | 30.0 | 70.4 | 1009.0 |
| 2013-09-07T02:17 | 2 | 992 | 3.0 | 918 | 1.0 | 420 | 1.6 | 30.1 | 71.2 | 1009.0 |
| 2013-09-07T02:18 | 2 | 997 | 33.8 | 902 | 34.8 | 420 | 0.6 | 30.0 | 70.3 | 1009.0 |
| 2013-09-07T02:19 | 2 | 933 | 65.1 | 797 | 67.7 | 421 | 2.3 | 30.0 | 70.9 | 1009.0 |
| 2013-09-07T02:20 | 2 | 941 | 30.2 | 844 | 31.8 | 421 | 1.7 | 30.0 | 72.3 | 1009.0 |
| 2013-09-07T02:21 | 2 | 861 | 29.0 | 781 | 31.0 | 419 | 0.7 | 30.0 | 70.3 | 1009.0 |
| 2013-09-07T02:22 | 2 | 927 | 32.8 | 859 | 35.7 | 418 | 0.6 | 29.9 | 69.9 | 1009.0 |
| 2013-09-07T02:23 | 2 | 976 | 1.1 | 917 | 0.6 | 418 | 1.4 | 29.9 | 70.7 | 1009.0 |
| 2013-09-07T02:24 | 2 | 974 | 0.5 | 917 | 0.4 | 418 | 0.7 | 29.7 | 69.2 | 1009.0 |
| 2013-09-07T02:25 | 2 | 972 | 0.2 | 916 | 0.3 | 419 | 1.1 | 29.6 | 69.9 | 1009.0 |
| 2013-09-07T02:26 | 2 | 972 | 0.5 | 916 | 0.4 | 418 | 0.7 | 29.6 | 70.2 | 1009.0 |
| 2013-09-07T02:27 | 2 | 970 | 0.5 | 914 | 0.4 | 420 | 2.2 | 29.7 | 71.9 | 1008.0 |
| 2013-09-07T02:28 | 2 | 969 | 0.3 | 915 | 0.7 | 420 | 1.5 | 29.9 | 71.2 | 1008.0 |
| 2013-09-07T02:29 | 2 | 968 | 0.9 | 915 | 1.0 | 419 | 1.1 | 29.8 | 70.1 | 1008.0 |
| 2013-09-07T02:30 | 2 | 966 | 0.3 | 913 | 0.4 | 419 | 0.8 | 29.7 | 70.0 | 1008.0 |
| 2013-09-07T02:31 | 2 | 964 | 1.0 | 910 | 2.2 | 420 | 1.3 | 29.6 | 70.8 | 1008.0 |
| 2013-09-07T02:32 | 2 | 964 | 0.5 | 911 | 1.6 | 421 | 2.1 | 29.9 | 72.1 | 1008.0 |
| 2013-09-07T02:33 | 2 | 964 | 0.4 | 910 | 1.9 | 420 | 0.8 | 29.9 | 70.2 | 1008.0 |
| 2013-09-07T02:34 | 2 | 967 | 0.7 | 908 | 1.3 | 420 | 1.4 | 29.9 | 70.1 | 1008.0 |
| 2013-09-07T02:35 | 2 | 962 | 1.8 | 906 | 0.5 | 421 | 1.0 | 29.8 | 71.4 | 1008.0 |
| 2013-09-07T02:36 | 2 | 958 | 0.5 | 906 | 0.6 | 422 | 1.9 | 30.0 | 71.9 | 1008.0 |
| 2013-09-07T02:37 | 2 | 961 | 1.8 | 908 | 1.0 | 421 | 1.1 | 30.1 | 71.2 | 1008.0 |
| 2013-09-07T02:38 | 2 | 974 | 7.2 | 909 | 0.5 | 421 | 1.2 | 30.0 | 70.5 | 1008.0 |
| 2013-09-07T02:39 | 2 | 813 | 187.3 | 673 | 219.3 | 423 | 0.9 | 30.1 | 72.1 | 1008.0 |
| 2013-09-07T02:40 | 2 | 992 | 3.6 | 907 | 1.3 | 422 | 1.5 | 30.2 | 70.4 | 1008.0 |
| 2013-09-07T02:41 | 2 | 962 | 47.6 | 872 | 50.4 | 424 | 1.4 | 30.2 | 71.7 | 1008.0 |
| 2013-09-07T02:42 | 2 | 975 | 6.0 | 894 | 3.1 | 423 | 1.2 | 30.3 | 70.7 | 1008.0 |
| 2013-09-07T02:43 | 2 | 951 | 7.4 | 882 | 8.2 | 422 | 2.5 | 30.2 | 69.3 | 1008.0 |
| 2013-09-07T02:44 | 2 | 960 | 2.1 | 899 | 1.9 | 422 | 0.9 | 30.0 | 70.2 | 1008.0 |
| 2013-09-07T02:45 | 2 | 968 | 7.5 | 901 | 1.8 | 423 | 1.5 | 30.1 | 71.1 | 1008.0 |
| 2013-09-07T02:46 | 2 | 861 | 165.1 | 716 | 186.0 | 423 | 1.0 | 30.2 | 70.8 | 1008.0 |
| 2013-09-07T02:47 | 2 | 797 | 118.5 | 623 | 135.4 | 423 | 0.8 | 30.1 | 70.6 | 1008.0 |
| 2013-09-07T02:48 | 2 | 997 | 13.4 | 897 | 15.5 | 422 | 1.3 | 30.0 | 70.4 | 1008.0 |
| 2013-09-07T02:49 | 2 | 898 | 98.8 | 787 | 111.4 | 423 | 1.9 | 30.0 | 71.4 | 1008.0 |
| 2013-09-07T02:50 | 2 | 861 | 93.3 | 722 | 103.6 | 423 | 0.6 | 30.1 | 70.3 | 1008.0 |
| 2013-09-07T02:51 | 2 | 967 | 28.2 | 873 | 36.4 | 423 | 1.3 | 30.0 | 70.2 | 1008.0 |
| 2013-09-07T02:52 | 2 | 972 | 2.4 | 900 | 0.5 | 424 | 0.7 | 30.1 | 70.7 | 1008.0 |
| 2013-09-07T02:53 | 2 | 968 | 0.4 | 899 | 0.6 | 425 | 1.0 | 30.1 | 70.7 | 1008.0 |
| 2013-09-07T02:54 | 2 | 951 | 14.4 | 880 | 15.7 | 425 | 0.8 | 30.2 | 70.6 | 1008.0 |
| 2013-09-07T02:55 | 2 | 926 | 4.5 | 844 | 2.5 | 426 | 1.1 | 30.2 | 69.8 | 1008.0 |
| 2013-09-07T02:56 | 2 | 953 | 12.5 | 427 | 1.0 | 30.2 | 69.7 | 1008.0 | ||
| 2013-09-07T02:57 | 2 | 30.1 | 70.7 | 1008.0 | ||||||
| 2013-09-07T02:58 | 2 | 30.1 | 70.4 | 1008.0 | ||||||
| 2013-09-07T02:59 | 2 | 30.2 | 71.1 | 1008.0 | ||||||
| 2013-09-07T03:00 | 2 | 30.2 | 70.7 | 1008.0 | ||||||
| 2013-09-07T03:01 | 2 | 30.3 | 70.5 | 1008.0 | ||||||
| 2013-09-07T03:02 | 2 | 30.3 | 69.8 | 1008.0 | ||||||
| 2013-09-07T03:03 | 2 | 30.1 | 69.8 | 1008.0 | ||||||
| 2013-09-07T03:04 | 2 | 440 | 1.8 | 30.1 | 69.9 | 1008.0 | ||||
| 2013-09-07T03:05 | 2 | 439 | 1.5 | 30.0 | 70.3 | 1008.0 | ||||
| 2013-09-07T03:06 | 2 | 439 | 1.9 | 30.0 | 70.2 | 1008.0 | ||||
| 2013-09-07T03:07 | 2 | 440 | 2.0 | 29.9 | 69.8 | 1008.0 | ||||
| 2013-09-07T03:08 | 2 | 784 | 240.2 | 628 | 273.7 | 443 | 2.6 | 29.8 | 70.6 | 1008.0 |
| 2013-09-07T03:09 | 2 | 220 | 13.1 | -2 | 4.5 | 447 | 1.4 | 29.8 | 70.0 | 1008.0 |
| 2013-09-07T03:10 | 2 | 197 | 4.5 | 453 | 2.7 | 29.7 | 70.3 | 1008.0 | ||
| 2013-09-07T03:11 | 2 | 177 | 7.0 | 456 | 1.1 | 29.8 | 70.6 | 1009.0 | ||
| 2013-09-07T03:12 | 2 | 147 | 9.4 | 458 | 0.5 | 29.7 | 70.4 | 1008.0 | ||
| 2013-09-07T03:13 | 2 | 123 | 4.0 | 459 | 0.7 | 29.6 | 71.6 | 1008.0 | ||
| 2013-09-07T03:14 | 2 | 119 | 0.7 | 459 | 0.6 | 29.5 | 71.6 | 1008.0 | ||
| 2013-09-07T03:15 | 2 | 124 | 2.6 | 458 | 0.9 | 29.5 | 72.0 | 1008.0 | ||
| 2013-09-07T03:16 | 2 | 139 | 6.9 | 458 | 1.5 | 29.4 | 72.6 | 1008.0 | ||
| 2013-09-07T03:17 | 2 | 164 | 5.8 | 458 | 1.2 | 29.4 | 73.1 | 1008.0 | ||
| 2013-09-07T03:18 | 2 | 173 | 1.3 | 457 | 0.7 | 29.4 | 73.1 | 1008.0 | ||
| 2013-09-07T03:19 | 2 | 168 | 0.9 | 456 | 0.9 | 29.3 | 72.6 | 1008.0 | ||
| 2013-09-07T03:20 | 2 | 170 | 1.9 | 454 | 0.3 | 29.2 | 73.4 | 1008.0 | ||
| 2013-09-07T03:21 | 2 | 175 | 0.6 | 450 | 3.3 | 29.2 | 73.5 | 1008.0 | ||
| 2013-09-07T03:22 | 2 | 176 | 0.6 | 444 | 0.5 | 29.1 | 73.4 | 1008.0 | ||
| 2013-09-07T03:23 | 2 | 178 | 2.0 | 442 | 0.2 | 29.1 | 73.2 | 1008.0 | ||
| 2013-09-07T03:24 | 2 | 201 | 12.5 | 443 | 0.9 | 29.0 | 73.1 | 1008.0 | ||
| 2013-09-07T03:25 | 2 | 254 | 15.7 | -2 | 1.1 | 440 | 0.6 | 29.2 | 74.1 | 1008.0 |
| 2013-09-07T03:26 | 2 | 273 | 47.6 | 12 | 51.1 | 434 | 2.1 | 29.2 | 74.3 | 1008.0 |
| 2013-09-07T03:27 | 2 | 792 | 108.6 | 651 | 130.4 | 432 | 2.0 | 29.2 | 75.0 | 1008.0 |
| 2013-09-07T03:28 | 2 | 571 | 166.2 | 259 | 188.5 | 437 | 2.0 | 29.3 | 75.4 | 1008.0 |
| 2013-09-07T03:29 | 2 | 890 | 120.6 | 644 | 145.0 | 444 | 2.6 | 29.3 | 75.8 | 1008.0 |
| 2013-09-07T03:30 | 2 | 725 | 251.1 | 380 | 318.5 | 450 | 1.7 | 29.4 | 76.2 | 1008.0 |
| 2013-09-07T03:31 | 2 | 652 | 193.0 | 270 | 225.4 | 453 | 0.4 | 29.5 | 76.1 | 1008.0 |
| 2013-09-07T03:32 | 2 | 299 | 55.8 | 0 | 1.1 | 454 | 3.5 | 29.5 | 76.2 | 1008.0 |
| 2013-09-07T03:33 | 2 | 142 | 29.9 | 452 | 2.3 | 29.3 | 75.5 | 1008.0 | ||
| 2013-09-07T03:34 | 2 | 83 | 6.5 | 451 | 2.8 | 29.0 | 76.9 | 1008.0 | ||
| 2013-09-07T03:35 | 2 | 74 | 1.6 | 448 | 3.7 | 28.7 | 76.8 | 1008.0 | ||
| 2013-09-07T03:36 | 2 | 77 | 2.6 | 450 | 9.8 | 28.4 | 78.2 | 1008.0 | ||
| 2013-09-07T03:37 | 2 | 85 | 2.2 | 455 | 6.6 | 28.1 | 79.8 | 1008.0 | ||
| 2013-09-07T03:38 | 2 | 91 | 1.4 | 454 | 2.8 | 27.9 | 81.3 | 1008.0 | ||
| 2013-09-07T03:39 | 2 | 96 | 1.6 | 447 | 3.2 | 27.7 | 81.6 | 1008.0 | ||
| 2013-09-07T03:40 | 2 | 104 | 3.5 | 444 | 0.6 | 27.5 | 82.4 | 1008.0 | ||
| 2013-09-07T03:41 | 2 | 124 | 8.4 | 441 | 1.4 | 27.3 | 82.7 | 1008.0 | ||
| 2013-09-07T03:42 | 2 | 160 | 12.0 | 439 | 2.6 | 27.0 | 83.4 | 1008.0 | ||
| 2013-09-07T03:43 | 2 | 210 | 22.2 | 0 | 9.3 | 436 | 1.7 | 27.0 | 84.2 | 1008.0 |
| 2013-09-07T03:44 | 2 | 459 | 128.0 | 238 | 161.3 | 432 | 0.4 | 26.9 | 84.4 | 1008.0 |
| 2013-09-07T03:45 | 2 | 394 | 44.9 | 110 | 41.4 | 429 | 0.9 | 26.9 | 84.7 | 1008.0 |
| 2013-09-07T03:46 | 2 | 567 | 129.3 | 290 | 152.6 | 427 | 1.1 | 26.9 | 84.3 | 1008.0 |
| 2013-09-07T03:47 | 2 | 700 | 52.5 | 482 | 52.6 | 425 | 2.1 | 26.7 | 83.9 | 1008.0 |
| 2013-09-07T03:48 | 2 | 511 | 43.7 | 275 | 49.6 | 423 | 2.0 | 26.6 | 84.6 | 1008.0 |
| 2013-09-07T03:49 | 2 | 375 | 29.0 | 118 | 34.3 | 420 | 0.9 | 26.7 | 84.7 | 1008.0 |
| 2013-09-07T03:50 | 2 | 542 | 63.0 | 340 | 82.1 | 419 | 0.3 | 26.6 | 83.7 | 1008.0 |
| 2013-09-07T03:51 | 2 | 673 | 58.2 | 527 | 77.0 | 418 | 0.7 | 26.6 | 83.6 | 1008.0 |
| 2013-09-07T03:52 | 2 | 512 | 58.0 | 334 | 75.9 | 416 | 0.5 | 26.7 | 83.6 | 1008.0 |
| 2013-09-07T03:53 | 2 | 424 | 50.6 | 240 | 74.8 | 414 | 0.9 | 26.7 | 82.7 | 1008.0 |
| 2013-09-07T03:54 | 2 | 536 | 85.4 | 417 | 120.9 | 414 | 0.3 | 26.8 | 82.5 | 1008.0 |
| 2013-09-07T03:55 | 2 | 642 | 60.0 | 589 | 96.4 | 414 | 0.8 | 26.9 | 82.6 | 1008.0 |
| 2013-09-07T03:56 | 2 | 708 | 32.3 | 714 | 50.6 | 414 | 0.7 | 27.0 | 82.1 | 1008.0 |
| 2013-09-07T03:57 | 2 | 690 | 15.0 | 703 | 21.4 | 414 | 0.4 | 27.2 | 82.0 | 1008.0 |
| 2013-09-07T03:58 | 2 | 665 | 27.3 | 670 | 37.7 | 414 | 1.1 | 27.3 | 81.2 | 1008.0 |
| 2013-09-07T03:59 | 2 | 675 | 23.6 | 679 | 32.6 | 414 | 0.9 | 27.4 | 80.8 | 1008.0 |
| 2013-09-07T04:00 | 2 | 721 | 6.6 | 738 | 8.8 | 414 | 0.4 | 27.5 | 80.1 | 1008.0 |
| 2013-09-07T04:01 | 2 | 692 | 23.1 | 700 | 30.6 | 414 | 0.7 | 27.5 | 80.2 | 1008.0 |
| 2013-09-07T04:02 | 2 | 665 | 26.8 | 671 | 41.9 | 414 | 0.5 | 27.6 | 80.3 | 1008.0 |
| 2013-09-07T04:03 | 2 | 696 | 4.9 | 726 | 5.9 | 414 | 0.6 | 27.7 | 80.2 | 1008.0 |
| 2013-09-07T04:04 | 2 | 524 | 79.6 | 483 | 117.8 | 414 | 0.9 | 27.8 | 80.1 | 1008.0 |
| 2013-09-07T04:05 | 2 | 544 | 83.5 | 517 | 124.4 | 414 | 0.6 | 27.9 | 80.2 | 1008.0 |
| 2013-09-07T04:06 | 2 | 624 | 30.9 | 644 | 46.5 | 415 | 0.7 | 28.0 | 80.1 | 1008.0 |
| 2013-09-07T04:07 | 2 | 589 | 24.5 | 595 | 36.0 | 416 | 0.9 | 28.0 | 80.1 | 1008.0 |
| 2013-09-07T04:08 | 2 | 464 | 62.0 | 411 | 92.9 | 415 | 0.9 | 28.1 | 79.9 | 1008.0 |
| 2013-09-07T04:09 | 2 | 491 | 50.7 | 461 | 74.2 | 414 | 1.2 | 28.0 | 78.8 | 1008.0 |
| 2013-09-07T04:10 | 2 | 659 | 5.3 | 732 | 6.8 | 414 | 0.7 | 28.0 | 78.8 | 1008.0 |
| 2013-09-07T04:11 | 2 | 640 | 5.1 | 721 | 3.8 | 415 | 0.9 | 27.9 | 79.0 | 1008.0 |
| 2013-09-07T04:12 | 2 | 629 | 1.5 | 717 | 1.4 | 415 | 0.7 | 28.0 | 79.0 | 1008.0 |
| 2013-09-07T04:13 | 2 | 624 | 2.1 | 719 | 1.1 | 415 | 1.1 | 28.0 | 78.7 | 1008.0 |
| 2013-09-07T04:14 | 2 | 619 | 1.1 | 722 | 1.2 | 414 | 1.6 | 28.1 | 77.8 | 1008.0 |
| 2013-09-07T04:15 | 2 | 611 | 3.2 | 716 | 3.0 | 414 | 0.6 | 28.0 | 77.8 | 1008.0 |
| 2013-09-07T04:16 | 2 | 603 | 1.5 | 711 | 1.1 | 414 | 0.6 | 28.1 | 78.5 | 1008.0 |
| 2013-09-07T04:17 | 2 | 603 | 1.0 | 717 | 3.0 | 414 | 1.0 | 28.2 | 77.9 | 1008.0 |
| 2013-09-07T04:18 | 2 | 605 | 0.7 | 725 | 1.6 | 414 | 0.8 | 28.1 | 77.4 | 1008.0 |
| 2013-09-07T04:19 | 2 | 603 | 1.2 | 727 | 1.0 | 414 | 0.8 | 28.1 | 77.4 | 1008.0 |
| 2013-09-07T04:20 | 2 | 599 | 1.6 | 725 | 1.5 | 414 | 0.8 | 28.1 | 77.9 | 1008.0 |
| 2013-09-07T04:21 | 2 | 591 | 3.2 | 717 | 3.8 | 414 | 1.3 | 28.2 | 78.6 | 1008.0 |
| 2013-09-07T04:22 | 2 | 581 | 2.2 | 706 | 2.2 | 414 | 0.9 | 28.3 | 78.3 | 1008.0 |
| 2013-09-07T04:23 | 2 | 576 | 1.3 | 702 | 1.6 | 414 | 1.4 | 28.3 | 78.1 | 1008.0 |
| 2013-09-07T04:24 | 2 | 573 | 1.5 | 701 | 0.9 | 413 | 1.1 | 28.3 | 78.5 | 1008.0 |
| 2013-09-07T04:25 | 2 | 567 | 2.6 | 697 | 2.9 | 414 | 0.8 | 28.3 | 79.0 | 1008.0 |
| 2013-09-07T04:26 | 2 | 547 | 7.7 | 669 | 12.0 | 413 | 0.9 | 28.3 | 78.8 | 1008.0 |
| 2013-09-07T04:27 | 2 | 516 | 13.6 | 621 | 20.7 | 414 | 0.9 | 28.2 | 78.8 | 1008.0 |
| 2013-09-07T04:28 | 2 | 463 | 11.2 | 537 | 18.1 | 414 | 1.0 | 28.2 | 79.3 | 1008.0 |
| 2013-09-07T04:29 | 2 | 442 | 3.7 | 505 | 5.3 | 414 | 1.8 | 28.2 | 79.5 | 1008.0 |
| 2013-09-07T04:30 | 2 | 463 | 13.2 | 543 | 24.3 | 414 | 1.0 | 28.2 | 80.0 | 1008.0 |
| 2013-09-07T04:31 | 2 | 489 | 2.7 | 591 | 5.2 | 414 | 1.2 | 28.2 | 80.1 | 1008.0 |
| 2013-09-07T04:32 | 2 | 488 | 2.0 | 589 | 1.8 | 416 | 0.9 | 28.2 | 80.5 | 1008.0 |
| 2013-09-07T04:33 | 2 | 483 | 1.8 | 584 | 3.3 | 415 | 1.0 | 28.2 | 80.6 | 1008.0 |
| 2013-09-07T04:34 | 2 | 454 | 51.6 | 516 | 97.3 | 415 | 0.6 | 28.1 | 80.2 | 1008.0 |
| 2013-09-07T04:35 | 2 | 470 | 32.3 | 557 | 67.3 | 415 | 0.8 | 28.2 | 81.2 | 1008.0 |
| 2013-09-07T04:36 | 2 | 431 | 15.2 | 483 | 35.5 | 415 | 1.2 | 28.1 | 80.6 | 1008.0 |
| 2013-09-07T04:37 | 2 | 395 | 4.7 | 427 | 10.7 | 416 | 1.4 | 28.2 | 81.4 | 1008.0 |
| 2013-09-07T04:38 | 2 | 391 | 5.9 | 446 | 7.4 | 415 | 0.9 | 28.2 | 81.0 | 1008.0 |
| 2013-09-07T04:39 | 2 | 366 | 7.4 | 407 | 13.6 | 414 | 1.0 | 28.1 | 80.7 | 1008.0 |
| 2013-09-07T04:40 | 2 | 350 | 7.4 | 383 | 11.2 | 414 | 0.7 | 28.0 | 80.6 | 1008.0 |
| 2013-09-07T04:41 | 2 | 338 | 2.6 | 367 | 5.4 | 413 | 0.8 | 27.9 | 80.0 | 1008.0 |
| 2013-09-07T04:42 | 2 | 365 | 9.3 | 425 | 19.4 | 413 | 1.1 | 27.8 | 80.3 | 1008.0 |
| 2013-09-07T04:43 | 2 | 376 | 1.0 | 450 | 3.4 | 413 | 1.2 | 27.8 | 80.6 | 1008.0 |
| 2013-09-07T04:44 | 2 | 357 | 12.0 | 422 | 21.0 | 413 | 0.9 | 27.8 | 80.4 | 1008.0 |
| 2013-09-07T04:45 | 2 | 318 | 9.0 | 354 | 15.5 | 413 | 0.6 | 27.8 | 80.4 | 1008.0 |
| 2013-09-07T04:46 | 2 | 298 | 3.2 | 322 | 4.4 | 413 | 1.0 | 27.8 | 80.4 | 1009.0 |
| 2013-09-07T04:47 | 2 | 294 | 0.6 | 319 | 2.5 | 412 | 0.7 | 27.7 | 80.4 | 1009.0 |
| 2013-09-07T04:48 | 2 | 299 | 1.9 | 333 | 5.2 | 412 | 0.4 | 27.7 | 80.2 | 1009.0 |
| 2013-09-07T04:49 | 2 | 300 | 0.5 | 339 | 1.3 | 413 | 0.8 | 27.8 | 80.7 | 1009.0 |
| 2013-09-07T04:50 | 2 | 299 | 1.4 | 342 | 1.2 | 413 | 1.3 | 27.8 | 80.6 | 1009.0 |
| 2013-09-07T04:51 | 2 | 292 | 2.1 | 333 | 2.7 | 413 | 0.8 | 27.8 | 80.6 | 1008.0 |
| 2013-09-07T04:52 | 2 | 286 | 1.5 | 327 | 1.3 | 412 | 0.8 | 27.8 | 79.9 | 1008.0 |
| 2013-09-07T04:53 | 2 | 275 | 4.9 | 312 | 8.2 | 412 | 0.6 | 27.7 | 79.9 | 1008.0 |
| 2013-09-07T04:54 | 2 | 260 | 2.8 | 287 | 4.4 | 413 | 0.7 | 27.7 | 79.5 | 1008.0 |
| 2013-09-07T04:55 | 2 | 257 | 0.5 | 286 | 1.8 | 413 | 0.4 | 27.7 | 79.3 | 1008.0 |
| 2013-09-07T04:56 | 2 | 252 | 2.9 | 282 | 4.1 | 413 | 0.8 | 27.6 | 78.9 | 1008.0 |
| 2013-09-07T04:57 | 2 | 242 | 2.2 | 268 | 2.7 | 413 | 0.6 | 27.7 | 79.7 | 1008.0 |
| 2013-09-07T04:58 | 2 | 237 | 1.2 | 262 | 0.9 | 413 | 0.3 | 27.7 | 78.9 | 1008.0 |
| 2013-09-07T04:59 | 2 | 232 | 1.7 | 258 | 1.9 | 413 | 0.8 | 27.8 | 79.6 | 1008.0 |
| 2013-09-07T05:00 | 2 | 226 | 1.2 | 252 | 1.2 | 413 | 0.7 | 27.9 | 80.0 | 1008.0 |
| 2013-09-07T05:01 | 2 | 223 | 1.1 | 248 | 0.9 | 413 | 0.6 | 28.0 | 79.9 | 1008.0 |
| 2013-09-07T05:02 | 2 | 218 | 1.7 | 243 | 2.3 | 412 | 0.7 | 28.0 | 79.2 | 1008.0 |
| 2013-09-07T05:03 | 2 | 212 | 1.7 | 235 | 2.2 | 412 | 0.7 | 27.9 | 78.1 | 1008.0 |
| 2013-09-07T05:04 | 2 | 208 | 0.3 | 233 | 1.2 | 412 | 0.6 | 27.8 | 78.3 | 1008.0 |
| 2013-09-07T05:05 | 2 | 209 | 0.5 | 239 | 2.1 | 412 | 1.0 | 27.8 | 78.6 | 1008.0 |
| 2013-09-07T05:06 | 2 | 210 | 0.3 | 247 | 1.4 | 412 | 0.9 | 27.9 | 79.1 | 1008.0 |
| 2013-09-07T05:07 | 2 | 209 | 0.5 | 249 | 0.2 | 412 | 0.7 | 27.9 | 78.9 | 1008.0 |
| 2013-09-07T05:08 | 2 | 207 | 0.6 | 249 | 0.4 | 412 | 0.7 | 27.9 | 79.1 | 1008.0 |
| 2013-09-07T05:09 | 2 | 206 | 0.6 | 252 | 2.4 | 412 | 0.5 | 27.8 | 78.0 | 1008.0 |
| 2013-09-07T05:10 | 2 | 209 | 1.6 | 263 | 5.0 | 412 | 0.5 | 27.8 | 78.9 | 1008.0 |
| 2013-09-07T05:11 | 2 | 213 | 4.3 | 277 | 9.8 | 412 | 0.6 | 27.9 | 78.9 | 1009.0 |
| 2013-09-07T05:12 | 2 | 221 | 1.6 | 301 | 5.7 | 412 | 0.6 | 27.9 | 79.0 | 1009.0 |
| 2013-09-07T05:13 | 2 | 225 | 0.7 | 316 | 3.1 | 412 | 0.7 | 27.9 | 79.1 | 1009.0 |
| 2013-09-07T05:14 | 2 | 223 | 1.1 | 320 | 1.1 | 412 | 0.5 | 27.9 | 78.8 | 1009.0 |
| 2013-09-07T05:15 | 2 | 218 | 2.0 | 312 | 3.1 | 411 | 0.4 | 27.8 | 78.6 | 1009.0 |
| 2013-09-07T05:16 | 2 | 212 | 1.1 | 304 | 1.6 | 411 | 0.6 | 27.8 | 78.8 | 1009.0 |
| 2013-09-07T05:17 | 2 | 210 | 1.2 | 304 | 3.2 | 412 | 0.9 | 27.9 | 79.3 | 1009.0 |
| 2013-09-07T05:18 | 2 | 212 | 0.5 | 313 | 2.9 | 412 | 0.7 | 28.0 | 79.7 | 1009.0 |
| 2013-09-07T05:19 | 2 | 213 | 0.5 | 323 | 2.7 | 412 | 0.9 | 27.9 | 78.9 | 1009.0 |
| 2013-09-07T05:20 | 2 | 215 | 0.8 | 332 | 3.5 | 413 | 1.0 | 28.0 | 79.4 | 1009.0 |
| 2013-09-07T05:21 | 2 | 217 | 0.4 | 344 | 2.2 | 413 | 0.6 | 28.0 | 78.7 | 1009.0 |
| 2013-09-07T05:22 | 2 | 215 | 1.3 | 343 | 2.5 | 413 | 0.5 | 27.9 | 78.7 | 1009.0 |
| 2013-09-07T05:23 | 2 | 211 | 0.9 | 336 | 1.1 | 413 | 0.4 | 27.9 | 78.5 | 1009.0 |
| 2013-09-07T05:24 | 2 | 210 | 0.4 | 341 | 3.0 | 413 | 0.4 | 27.8 | 78.3 | 1009.0 |
| 2013-09-07T05:25 | 2 | 210 | 0.3 | 350 | 2.1 | 413 | 0.6 | 27.9 | 78.9 | 1009.0 |
| 2013-09-07T05:26 | 2 | 208 | 1.3 | 351 | 1.6 | 413 | 0.6 | 28.0 | 78.8 | 1009.0 |
| 2013-09-07T05:27 | 2 | 201 | 2.3 | 340 | 4.3 | 412 | 0.8 | 28.0 | 78.7 | 1009.0 |
| 2013-09-07T05:28 | 2 | 193 | 2.2 | 325 | 4.0 | 412 | 0.4 | 28.0 | 78.7 | 1009.0 |
| 2013-09-07T05:29 | 2 | 187 | 1.3 | 314 | 1.9 | 412 | 0.6 | 28.0 | 78.4 | 1009.0 |
| 2013-09-07T05:30 | 2 | 182 | 0.9 | 306 | 2.9 | 413 | 0.7 | 28.0 | 78.5 | 1009.0 |
| 2013-09-07T05:31 | 2 | 181 | 0.6 | 310 | 0.9 | 412 | 0.6 | 28.1 | 78.9 | 1009.0 |
| 2013-09-07T05:32 | 2 | 176 | 2.2 | 304 | 4.6 | 412 | 0.6 | 28.1 | 78.5 | 1009.0 |
| 2013-09-07T05:33 | 2 | 167 | 2.7 | 282 | 6.3 | 412 | 0.4 | 28.1 | 78.7 | 1009.0 |
| 2013-09-07T05:34 | 2 | 159 | 1.8 | 263 | 4.0 | 412 | 0.5 | 28.2 | 79.1 | 1009.0 |
| 2013-09-07T05:35 | 2 | 153 | 1.4 | 252 | 2.1 | 413 | 0.4 | 28.2 | 79.1 | 1009.0 |
| 2013-09-07T05:36 | 2 | 150 | 1.5 | 251 | 3.5 | 412 | 0.6 | 28.2 | 79.1 | 1009.0 |
| 2013-09-07T05:37 | 2 | 149 | 0.8 | 256 | 0.8 | 412 | 0.2 | 28.0 | 78.5 | 1009.0 |
| 2013-09-07T05:38 | 2 | 145 | 1.6 | 250 | 3.5 | 412 | 0.3 | 28.0 | 78.8 | 1009.0 |
| 2013-09-07T05:39 | 2 | 139 | 1.8 | 236 | 4.3 | 412 | 0.6 | 28.0 | 78.9 | 1009.0 |
| 2013-09-07T05:40 | 2 | 133 | 1.7 | 222 | 4.0 | 412 | 0.7 | 28.0 | 79.5 | 1009.0 |
| 2013-09-07T05:41 | 2 | 128 | 1.2 | 212 | 2.6 | 412 | 0.6 | 28.0 | 79.0 | 1009.0 |
| 2013-09-07T05:42 | 2 | 118 | 7.9 | 183 | 25.0 | 413 | 0.8 | 28.0 | 79.1 | 1009.0 |
| 2013-09-07T05:43 | 2 | 105 | 12.2 | 143 | 42.3 | 413 | 0.6 | 28.0 | 79.3 | 1009.0 |
| 2013-09-07T05:44 | 2 | 113 | 1.6 | 175 | 4.0 | 412 | 0.7 | 28.0 | 78.8 | 1009.0 |
| 2013-09-07T05:45 | 2 | 108 | 1.3 | 162 | 3.0 | 412 | 0.6 | 27.9 | 78.8 | 1009.0 |
| 2013-09-07T05:46 | 2 | 104 | 1.1 | 154 | 2.3 | 413 | 0.5 | 27.9 | 78.4 | 1009.0 |
| 2013-09-07T05:47 | 2 | 101 | 1.1 | 144 | 3.0 | 414 | 0.5 | 27.9 | 78.7 | 1009.0 |
| 2013-09-07T05:48 | 2 | 97 | 1.2 | 133 | 4.1 | 414 | 0.8 | 28.0 | 79.1 | 1009.0 |
| 2013-09-07T05:49 | 2 | 94 | 0.4 | 121 | 2.4 | 415 | 0.5 | 28.0 | 79.1 | 1009.0 |
| 2013-09-07T05:50 | 2 | 89 | 3.6 | 100 | 14.3 | 415 | 0.6 | 28.0 | 78.5 | 1009.0 |
| 2013-09-07T05:51 | 2 | 85 | 3.6 | 96 | 15.5 | 416 | 0.4 | 28.0 | 79.1 | 1009.0 |
| 2013-09-07T05:52 | 2 | 83 | 1.6 | 99 | 4.8 | 415 | 0.7 | 28.0 | 78.7 | 1009.0 |
| 2013-09-07T05:53 | 2 | 83 | 1.1 | 100 | 4.2 | 415 | 0.9 | 27.9 | 79.0 | 1009.0 |
| 2013-09-07T05:54 | 2 | 67 | 8.1 | 40 | 32.8 | 415 | 0.6 | 27.9 | 78.7 | 1009.0 |
| 2013-09-07T05:55 | 2 | 77 | 2.0 | 86 | 5.3 | 416 | 0.4 | 27.9 | 79.2 | 1009.0 |
| 2013-09-07T05:56 | 2 | 70 | 4.4 | 67 | 17.4 | 415 | 0.5 | 28.0 | 79.4 | 1009.0 |
| 2013-09-07T05:57 | 2 | 55 | 3.7 | 11 | 16.1 | 415 | 0.4 | 28.0 | 79.1 | 1009.0 |
| 2013-09-07T05:58 | 2 | 57 | 4.2 | 25 | 19.2 | 415 | 0.5 | 27.9 | 78.9 | 1009.0 |
| 2013-09-07T05:59 | 2 | 58 | 2.5 | 41 | 13.0 | 415 | 0.5 | 27.8 | 78.6 | 1009.0 |
| 2013-09-07T06:00 | 2 | 49 | 1.0 | 3 | 4.4 | 416 | 0.6 | 27.8 | 79.1 | 1009.0 |
| 2013-09-07T06:01 | 2 | 48 | 0.5 | 1 | 0.8 | 417 | 0.7 | 27.8 | 79.2 | 1009.0 |
| 2013-09-07T06:02 | 2 | 49 | 0.9 | 3 | 2.2 | 419 | 0.8 | 27.8 | 79.1 | 1009.0 |
| 2013-09-07T06:03 | 2 | 48 | 1.6 | 7 | 7.4 | 419 | 0.4 | 27.9 | 79.9 | 1009.0 |
| 2013-09-07T06:04 | 2 | 47 | 1.7 | 10 | 8.7 | 419 | 0.7 | 27.9 | 79.6 | 1009.0 |
| 2013-09-07T06:05 | 2 | 46 | 1.1 | 3 | 2.0 | 421 | 1.4 | 28.0 | 79.8 | 1009.0 |
| 2013-09-07T06:06 | 2 | 47 | 1.3 | 5 | 4.3 | 424 | 0.4 | 28.0 | 79.9 | 1009.0 |
| 2013-09-07T06:07 | 2 | 45 | 1.0 | 10 | 2.6 | 423 | 1.0 | 28.0 | 79.9 | 1009.0 |
| 2013-09-07T06:08 | 2 | 46 | 0.8 | 18 | 3.3 | 425 | 1.7 | 27.9 | 79.5 | 1009.0 |
| 2013-09-07T06:09 | 2 | 48 | 0.8 | 16 | 1.3 | 429 | 0.8 | 27.9 | 80.1 | 1009.0 |
| 2013-09-07T06:10 | 2 | 49 | 0.0 | 21 | 1.4 | 428 | 0.5 | 27.9 | 79.8 | 1009.0 |
| 2013-09-07T06:11 | 2 | 48 | 0.7 | 27 | 1.1 | 428 | 0.7 | 28.0 | 80.2 | 1009.0 |
| 2013-09-07T06:12 | 2 | 46 | 0.7 | 26 | 0.6 | 426 | 0.4 | 27.9 | 80.0 | 1009.0 |
| 2013-09-07T06:13 | 2 | 44 | 0.7 | 24 | 0.9 | 425 | 0.5 | 27.9 | 79.5 | 1009.0 |
| 2013-09-07T06:14 | 2 | 41 | 0.8 | 20 | 1.3 | 424 | 0.3 | 27.9 | 80.1 | 1009.0 |
| 2013-09-07T06:15 | 2 | 39 | 0.7 | 16 | 1.6 | 422 | 0.7 | 27.8 | 79.0 | 1009.0 |
| 2013-09-07T06:16 | 2 | 37 | 0.7 | 12 | 1.4 | 421 | 0.4 | 27.8 | 79.9 | 1009.0 |
| 2013-09-07T06:17 | 2 | 34 | 0.8 | 8 | 1.2 | 420 | 0.5 | 27.8 | 79.8 | 1009.0 |
| 2013-09-07T06:18 | 2 | 32 | 0.5 | 6 | 0.5 | 419 | 0.7 | 27.8 | 79.7 | 1009.0 |
| 2013-09-07T06:19 | 2 | 31 | 0.5 | 5 | 0.4 | 418 | 1.1 | 27.8 | 79.3 | 1009.0 |
| 2013-09-07T06:20 | 2 | 29 | 0.7 | 3 | 0.4 | 417 | 0.4 | 27.8 | 79.4 | 1009.0 |
| 2013-09-07T06:21 | 2 | 27 | 0.5 | 3 | 0.3 | 415 | 0.6 | 27.8 | 79.4 | 1009.0 |
| 2013-09-07T06:22 | 2 | 25 | 0.5 | 3 | 0.1 | 415 | 0.3 | 27.8 | 79.4 | 1009.0 |
| 2013-09-07T06:23 | 2 | 24 | 0.5 | 3 | 0.1 | 414 | 0.5 | 27.8 | 79.1 | 1009.0 |
| 2013-09-07T06:24 | 2 | 23 | 0.5 | 3 | 0.2 | 413 | 0.4 | 27.8 | 79.4 | 1009.0 |
| 2013-09-07T06:25 | 2 | 22 | 0.5 | 3 | 0.2 | 413 | 0.5 | 27.8 | 79.1 | 1009.0 |
| 2013-09-07T06:26 | 2 | 21 | 0.4 | 4 | 0.1 | 414 | 0.3 | 27.8 | 79.5 | 1009.0 |
| 2013-09-07T06:27 | 2 | 20 | 0.3 | 4 | 0.2 | 414 | 0.9 | 27.8 | 79.7 | 1009.0 |
| 2013-09-07T06:28 | 2 | 19 | 0.1 | 2 | 1.4 | 416 | 1.0 | 27.8 | 79.7 | 1009.0 |
| 2013-09-07T06:29 | 2 | 19 | 0.0 | 6 | 2.5 | 417 | 0.1 | 27.9 | 80.0 | 1009.0 |
| 2013-09-07T06:30 | 2 | 18 | 0.6 | 7 | 1.3 | 416 | 0.9 | 27.9 | 80.1 | 1009.0 |
| 2013-09-07T06:31 | 2 | 17 | 0.4 | 7 | 0.4 | 415 | 0.4 | 27.9 | 80.0 | 1009.0 |
| 2013-09-07T06:32 | 2 | 15 | 0.5 | 5 | 1.6 | 415 | 0.4 | 27.9 | 79.9 | 1009.0 |
| 2013-09-07T06:33 | 2 | 14 | 0.5 | 1 | 0.9 | 416 | 0.5 | 27.8 | 79.9 | 1009.0 |
| 2013-09-07T06:34 | 2 | 14 | 0.2 | 0 | 0.1 | 419 | 0.9 | 27.8 | 80.1 | 1009.0 |
| 2013-09-07T06:35 | 2 | 13 | 0.4 | 1 | 0.3 | 420 | 1.0 | 27.9 | 80.3 | 1009.0 |
| 2013-09-07T06:36 | 2 | 11 | 0.5 | 0 | 0.0 | 417 | 0.5 | 27.9 | 80.1 | 1009.0 |
| 2013-09-07T06:37 | 2 | 10 | 0.5 | 0 | 0.1 | 416 | 0.3 | 27.9 | 79.8 | 1009.0 |
| 2013-09-07T06:38 | 2 | 9 | 0.5 | 0 | 0.1 | 417 | 1.0 | 27.8 | 79.8 | 1009.0 |
| 2013-09-07T06:39 | 2 | 8 | 0.4 | 0 | 0.1 | 417 | 0.3 | 27.8 | 80.0 | 1009.0 |
| 2013-09-07T06:40 | 2 | 8 | 0.1 | 0 | 0.0 | 417 | 0.7 | 27.8 | 79.4 | 1009.0 |
| 2013-09-07T06:41 | 2 | 7 | 0.2 | 0 | 0.0 | 417 | 0.5 | 27.7 | 79.2 | 1009.0 |
| 2013-09-07T06:42 | 2 | 6 | 0.4 | 0 | 0.1 | 418 | 0.4 | 27.7 | 79.8 | 1009.0 |
| 2013-09-07T06:43 | 2 | 6 | 0.0 | 0 | 0.0 | 420 | 0.3 | 27.8 | 79.9 | 1009.0 |
| 2013-09-07T06:44 | 2 | 5 | 0.4 | 0 | 0.0 | 421 | 0.7 | 27.9 | 79.8 | 1009.0 |
| 2013-09-07T06:45 | 2 | 4 | 0.5 | 0 | 0.0 | 422 | 0.5 | 27.9 | 79.5 | 1009.0 |
| 2013-09-07T06:46 | 2 | 4 | 0.3 | 0 | 0.0 | 424 | 0.7 | 27.9 | 79.3 | 1010.0 |
| 2013-09-07T06:47 | 2 | 3 | 0.3 | 0 | 0.0 | 427 | 0.4 | 27.8 | 79.0 | 1010.0 |
| 2013-09-07T06:48 | 2 | 2 | 0.1 | 0 | 0.0 | 427 | 0.3 | 27.8 | 79.7 | 1010.0 |
| 2013-09-07T06:49 | 2 | 1 | 0.2 | 0 | 0.0 | 425 | 0.4 | 27.9 | 79.5 | 1010.0 |
| 2013-09-07T06:50 | 2 | 0 | 0.3 | 0 | 0.0 | 425 | 0.3 | 27.9 | 79.3 | 1010.0 |
| 2013-09-07T06:51 | 2 | 0 | 0.1 | 0 | 0.0 | 426 | 0.6 | 27.8 | 78.3 | 1010.0 |
| 2013-09-07T06:52 | 2 | 0 | 0.3 | 0 | 0.0 | 429 | 1.3 | 27.8 | 78.2 | 1010.0 |
| 2013-09-07T06:53 | 2 | 0 | 0.2 | 0 | 0.0 | 432 | 0.8 | 27.8 | 78.5 | 1010.0 |
| 2013-09-07T06:54 | 2 | -1 | 0.0 | 0 | 0.0 | 436 | 1.6 | 27.9 | 78.6 | 1010.0 |
| 2013-09-07T06:55 | 2 | -1 | 0.3 | 0 | 0.0 | 442 | 1.3 | 27.9 | 78.5 | 1010.0 |
| 2013-09-07T06:56 | 2 | -1 | 0.2 | 0 | 0.0 | 444 | 0.3 | 27.9 | 79.3 | 1010.0 |
| 2013-09-07T06:57 | 2 | -2 | 0.1 | 0 | 0.0 | 441 | 1.6 | 28.0 | 78.5 | 1010.0 |
| 2013-09-07T06:58 | 2 | -2 | 0.0 | 0 | 0.0 | 436 | 1.2 | 27.9 | 78.2 | 1010.0 |
| 2013-09-07T06:59 | 2 | -2 | 0.0 | 0 | 0.0 | 433 | 0.7 | 27.8 | 78.7 | 1010.0 |
| 2013-09-07T07:00 | 2 | -2 | 0.1 | 0 | 0.0 | 431 | 0.4 | 27.9 | 78.8 | 1010.0 |
| 2013-09-07T07:01 | 2 | -2 | 0.2 | 0 | 0.0 | 430 | 0.4 | 27.9 | 78.3 | 1010.0 |
| 2013-09-07T07:02 | 2 | 0 | 0.0 | 428 | 0.5 | 27.9 | 77.9 | 1010.0 | ||
| 2013-09-07T07:03 | 2 | 0 | 0.0 | 429 | 0.7 | 27.8 | 77.8 | 1010.0 | ||
| 2013-09-07T07:04 | 2 | 0 | 0.0 | 433 | 1.2 | 27.9 | 77.9 | 1010.0 | ||
| 2013-09-07T07:05 | 2 | 0 | 0.0 | 433 | 1.8 | 27.9 | 77.9 | 1010.0 | ||
| 2013-09-07T07:06 | 2 | 0 | 0.0 | 427 | 1.1 | 27.9 | 78.4 | 1010.0 | ||
| 2013-09-07T07:07 | 2 | 0 | 0.0 | 0 | 0.0 | 425 | 0.3 | 28.0 | 78.3 | 1010.0 |
| 2013-09-07T07:08 | 2 | 0 | 0.0 | 0 | 0.0 | 425 | 0.2 | 28.0 | 78.2 | 1010.0 |
| 2013-09-07T07:09 | 2 | 0 | 0.0 | 0 | 0.0 | 424 | 1.0 | 28.0 | 78.8 | 1010.0 |
| 2013-09-07T07:10 | 2 | 0 | 0.0 | 0 | 0.0 | 422 | 0.3 | 28.0 | 77.8 | 1010.0 |
| 2013-09-07T07:11 | 2 | 0 | 0.0 | 0 | 0.0 | 422 | 0.2 | 28.0 | 77.8 | 1010.0 |
| 2013-09-07T07:12 | 2 | 0 | 0.0 | 0 | 0.0 | 422 | 0.3 | 27.9 | 77.4 | 1010.0 |
| 2013-09-07T07:13 | 2 | 0 | 0.0 | 0 | 0.0 | 422 | 0.4 | 27.9 | 78.0 | 1010.0 |
| 2013-09-07T07:14 | 2 | 0 | 0.0 | 0 | 0.0 | 421 | 0.3 | 27.9 | 77.8 | 1010.0 |
| 2013-09-07T07:15 | 2 | 0 | 0.0 | 0 | 0.0 | 423 | 1.4 | 27.9 | 77.9 | 1010.0 |
| 2013-09-07T07:16 | 2 | 0 | 0.0 | 0 | 0.0 | 431 | 3.3 | 28.0 | 77.9 | 1010.0 |
| 2013-09-07T07:17 | 2 | 0 | 0.0 | 0 | 0.0 | 442 | 2.8 | 28.0 | 78.4 | 1010.0 |
| 2013-09-07T07:18 | 2 | 0 | 0.0 | 0 | 0.0 | 449 | 1.5 | 28.0 | 78.2 | 1010.0 |
| 2013-09-07T07:19 | 2 | 0 | 0.0 | 0 | 0.0 | 450 | 0.4 | 28.0 | 79.0 | 1010.0 |
| 2013-09-07T07:20 | 2 | 0 | 0.0 | 0 | 0.0 | 449 | 0.5 | 28.0 | 78.1 | 1010.0 |
| 2013-09-07T07:21 | 2 | 0 | 0.0 | 0 | 0.0 | 448 | 0.3 | 28.0 | 78.2 | 1010.0 |
| 2013-09-07T07:22 | 2 | 0 | 0.0 | 0 | 0.0 | 445 | 0.6 | 27.9 | 77.9 | 1010.0 |
| 2013-09-07T07:23 | 2 | 0 | 0.0 | 0 | 0.0 | 444 | 0.1 | 27.9 | 77.9 | 1010.0 |
| 2013-09-07T07:24 | 2 | 0 | 0.0 | 0 | 0.0 | 445 | 0.8 | 28.0 | 78.5 | 1010.0 |
| 2013-09-07T07:25 | 2 | 0 | 0.0 | 0 | 0.0 | 447 | 0.6 | 28.0 | 78.4 | 1010.0 |
| 2013-09-07T07:26 | 2 | 0 | 0.0 | 0 | 0.0 | 447 | 0.4 | 28.1 | 78.5 | 1010.0 |
| 2013-09-07T07:27 | 2 | 0 | 0.0 | 0 | 0.0 | 448 | 0.2 | 28.1 | 78.5 | 1010.0 |
| 2013-09-07T07:28 | 2 | 0 | 0.0 | 0 | 0.0 | 447 | 0.3 | 28.1 | 78.2 | 1010.0 |
| 2013-09-07T07:29 | 2 | 0 | 0.0 | 0 | 0.0 | 446 | 0.7 | 28.1 | 78.3 | 1010.0 |
| 2013-09-07T07:30 | 2 | 0 | 0.0 | 0 | 0.0 | 445 | 0.8 | 28.1 | 78.6 | 1010.0 |
| 2013-09-07T07:31 | 2 | 0 | 0.0 | 0 | 0.0 | 442 | 1.5 | 28.1 | 78.5 | 1010.0 |
| 2013-09-07T07:32 | 2 | 0 | 0.0 | 0 | 0.0 | 437 | 1.2 | 28.0 | 77.8 | 1010.0 |
| 2013-09-07T07:33 | 2 | 0 | 0.0 | 0 | 0.0 | 435 | 0.5 | 28.0 | 78.5 | 1010.0 |
| 2013-09-07T07:34 | 2 | 0 | 0.0 | 0 | 0.0 | 440 | 1.7 | 28.0 | 78.9 | 1010.0 |
| 2013-09-07T07:35 | 2 | 0 | 0.0 | 0 | 0.0 | 447 | 1.7 | 28.0 | 79.6 | 1010.0 |
| 2013-09-07T07:36 | 2 | 0 | 0.0 | 0 | 0.0 | 447 | 0.3 | 28.0 | 80.0 | 1010.0 |
| 2013-09-07T07:37 | 2 | 0 | 0.0 | 0 | 0.0 | 445 | 1.2 | 27.9 | 80.1 | 1010.0 |
| 2013-09-07T07:38 | 2 | 0 | 0.0 | 0 | 0.0 | 441 | 0.8 | 27.7 | 79.6 | 1010.0 |
| 2013-09-07T07:39 | 2 | 0 | 0.0 | 0 | 0.0 | 436 | 1.9 | 27.6 | 80.2 | 1010.0 |
| 2013-09-07T07:40 | 2 | 0 | 0.0 | 0 | 0.0 | 432 | 1.2 | 27.5 | 80.2 | 1010.0 |
| 2013-09-07T07:41 | 2 | 0 | 0.0 | 0 | 0.0 | 429 | 1.2 | 27.5 | 80.7 | 1010.0 |
| 2013-09-07T07:42 | 2 | 0 | 0.0 | 0 | 0.0 | 428 | 0.7 | 27.4 | 80.8 | 1010.0 |
| 2013-09-07T07:43 | 2 | 0 | 0.0 | 0 | 0.0 | 427 | 0.4 | 27.3 | 80.4 | 1010.0 |
| 2013-09-07T07:44 | 2 | 0 | 0.0 | 0 | 0.0 | 428 | 0.4 | 27.2 | 81.2 | 1010.0 |
| 2013-09-07T07:45 | 2 | 0 | 0.0 | 0 | 0.0 | 430 | 0.9 | 27.1 | 81.8 | 1010.0 |
| 2013-09-07T07:46 | 2 | 0 | 0.0 | 0 | 0.0 | 431 | 0.4 | 27.1 | 81.6 | 1010.0 |
| 2013-09-07T07:47 | 2 | 0 | 0.0 | 0 | 0.0 | 433 | 0.8 | 27.1 | 82.1 | 1010.0 |
| 2013-09-07T07:48 | 2 | 0 | 0.0 | 0 | 0.0 | 434 | 1.0 | 27.0 | 81.8 | 1010.0 |
| 2013-09-07T07:49 | 2 | 0 | 0.0 | 0 | 0.0 | 435 | 0.6 | 27.0 | 81.7 | 1010.0 |
| 2013-09-07T07:50 | 2 | 0 | 0.0 | 0 | 0.0 | 437 | 0.7 | 26.8 | 81.8 | 1010.0 |
| 2013-09-07T07:51 | 2 | 0 | 0.0 | 0 | 0.0 | 438 | 0.3 | 26.7 | 82.0 | 1010.0 |
| 2013-09-07T07:52 | 2 | 0 | 0.0 | 0 | 0.0 | 438 | 0.5 | 26.7 | 82.4 | 1010.0 |
| 2013-09-07T07:53 | 2 | 0 | 0.0 | 0 | 0.0 | 439 | 0.3 | 26.7 | 82.8 | 1010.0 |
| 2013-09-07T07:54 | 2 | 0 | 0.0 | 0 | 0.0 | 440 | 0.4 | 26.7 | 83.4 | 1010.0 |
| 2013-09-07T07:55 | 2 | 0 | 0.0 | 0 | 0.0 | 439 | 0.4 | 26.7 | 82.6 | 1010.0 |
| 2013-09-07T07:56 | 2 | 0 | 0.0 | 0 | 0.0 | 439 | 1.0 | 26.6 | 82.9 | 1010.0 |
| 2013-09-07T07:57 | 2 | 0 | 0.0 | 0 | 0.0 | 439 | 0.5 | 26.5 | 83.4 | 1010.0 |
| 2013-09-07T07:58 | 2 | 0 | 0.0 | 0 | 0.0 | 440 | 0.9 | 26.5 | 83.8 | 1010.0 |
| 2013-09-07T07:59 | 2 | 0 | 0.0 | 0 | 0.0 | 442 | 5.7 | 26.5 | 83.9 | 1010.0 |
| 2013-09-07T08:00 | 2 | 0 | 0.0 | 0 | 0.0 | 445 | 1.9 | 26.5 | 84.3 | 1010.0 |
| 2013-09-07T08:01 | 2 | 0 | 0.0 | 444 | 0.6 | 26.5 | 84.0 | 1010.0 | ||
| 2013-09-07T08:02 | 2 | 0 | 0.0 | 443 | 0.7 | 26.4 | 84.2 | 1010.0 | ||
| 2013-09-07T08:03 | 2 | 0 | 0.0 | 442 | 1.3 | 26.4 | 84.6 | 1010.0 | ||
| 2013-09-07T08:04 | 2 | 0 | 0.0 | 440 | 0.5 | 26.3 | 84.7 | 1010.0 | ||
| 2013-09-07T08:05 | 2 | 0 | 0.0 | 437 | 0.7 | 26.2 | 84.6 | 1010.0 | ||
| 2013-09-07T08:06 | 2 | 0 | 0.0 | 435 | 0.3 | 26.1 | 85.0 | 1010.0 | ||
| 2013-09-07T08:07 | 2 | 0 | 0.0 | 433 | 0.3 | 26.0 | 85.0 | 1010.0 | ||
| 2013-09-07T08:08 | 2 | 0 | 0.0 | 431 | 0.6 | 26.0 | 85.7 | 1010.0 | ||
| 2013-09-07T08:09 | 2 | 0 | 0.0 | 430 | 0.5 | 26.0 | 85.6 | 1010.0 | ||
| 2013-09-07T08:10 | 2 | 0 | 0.0 | 429 | 0.5 | 25.9 | 85.7 | 1010.0 | ||
| 2013-09-07T08:11 | 2 | 0 | 0.0 | 428 | 0.3 | 25.9 | 86.0 | 1010.0 | ||
| 2013-09-07T08:12 | 2 | 0 | 0.0 | 427 | 0.2 | 26.0 | 86.5 | 1010.0 | ||
| 2013-09-07T08:13 | 2 | 0 | 0.0 | 426 | 0.3 | 26.1 | 86.5 | 1010.0 | ||
| 2013-09-07T08:14 | 2 | 0 | 0.0 | 424 | 0.3 | 26.1 | 85.8 | 1010.0 | ||
| 2013-09-07T08:15 | 2 | 0 | 0.0 | 424 | 0.2 | 26.0 | 86.2 | 1010.0 | ||
| 2013-09-07T08:16 | 2 | 0 | 0.0 | 423 | 0.4 | 26.1 | 86.0 | 1010.0 | ||
| 2013-09-07T08:17 | 2 | 0 | 0.0 | 423 | 0.3 | 26.0 | 85.8 | 1010.0 | ||
| 2013-09-07T08:18 | 2 | 0 | 0.0 | 423 | 1.4 | 26.0 | 85.3 | 1010.0 | ||
| 2013-09-07T08:19 | 2 | 0 | 0.0 | 0 | 0.0 | 423 | 0.7 | 25.9 | 85.3 | 1010.0 |
| 2013-09-07T08:20 | 2 | 0 | 0.0 | 0 | 0.0 | 422 | 0.2 | 25.9 | 85.7 | 1010.0 |
| 2013-09-07T08:21 | 2 | 0 | 0.0 | 0 | 0.0 | 421 | 0.4 | 25.9 | 84.7 | 1010.0 |
| 2013-09-07T08:22 | 2 | 0 | 0.0 | 0 | 0.0 | 419 | 0.4 | 25.9 | 85.1 | 1010.0 |
| 2013-09-07T08:23 | 2 | 0 | 0.0 | 0 | 0.0 | 419 | 0.2 | 26.0 | 85.0 | 1010.0 |
| 2013-09-07T08:24 | 2 | 0 | 0.0 | 0 | 0.0 | 418 | 0.2 | 26.0 | 84.8 | 1010.0 |
| 2013-09-07T08:25 | 2 | 0 | 0.0 | 0 | 0.0 | 417 | 0.4 | 26.1 | 84.9 | 1010.0 |
| 2013-09-07T08:26 | 2 | 0 | 0.0 | 0 | 0.0 | 416 | 0.4 | 26.2 | 84.6 | 1010.0 |
| 2013-09-07T08:27 | 2 | 0 | 0.0 | 0 | 0.0 | 415 | 0.5 | 26.3 | 84.0 | 1010.0 |
| 2013-09-07T08:28 | 2 | 0 | 0.0 | 0 | 0.0 | 415 | 0.2 | 26.3 | 83.8 | 1010.0 |
| 2013-09-07T08:29 | 2 | 0 | 0.0 | 0 | 0.0 | 415 | 0.3 | 26.4 | 84.2 | 1010.0 |
| 2013-09-07T08:30 | 2 | 0 | 0.0 | 0 | 0.0 | 415 | 0.2 | 26.5 | 84.1 | 1010.0 |
| 2013-09-07T08:31 | 2 | 0 | 0.0 | 0 | 0.0 | 415 | 0.3 | 26.5 | 83.8 | 1010.0 |
| 2013-09-07T08:32 | 2 | 0 | 0.0 | 0 | 0.0 | 415 | 0.2 | 26.5 | 83.9 | 1010.0 |
| 2013-09-07T08:33 | 2 | 0 | 0.0 | 0 | 0.0 | 416 | 0.2 | 26.5 | 83.6 | 1010.0 |
| 2013-09-07T08:34 | 2 | 0 | 0.0 | 0 | 0.0 | 416 | 0.1 | 26.4 | 83.0 | 1010.0 |
| 2013-09-07T08:35 | 2 | 0 | 0.0 | 0 | 0.0 | 416 | 0.2 | 26.4 | 83.1 | 1010.0 |
| 2013-09-07T08:36 | 2 | 0 | 0.0 | 0 | 0.0 | 416 | 0.2 | 26.4 | 83.2 | 1010.0 |
| 2013-09-07T08:37 | 2 | 0 | 0.0 | 0 | 0.0 | 416 | 0.2 | 26.5 | 83.4 | 1010.0 |
| 2013-09-07T08:38 | 2 | 0 | 0.0 | 0 | 0.0 | 416 | 0.2 | 26.6 | 83.7 | 1010.0 |
| 2013-09-07T08:39 | 2 | 0 | 0.0 | 0 | 0.0 | 416 | 0.5 | 26.6 | 83.0 | 1010.0 |
| 2013-09-07T08:40 | 2 | 0 | 0.0 | 0 | 0.0 | 416 | 0.3 | 26.6 | 83.3 | 1010.0 |
| 2013-09-07T08:41 | 2 | 0 | 0.0 | 0 | 0.0 | 416 | 0.1 | 26.6 | 83.1 | 1010.0 |
| 2013-09-07T08:42 | 2 | 0 | 0.0 | 0 | 0.0 | 416 | 0.2 | 26.6 | 83.3 | 1010.0 |
| 2013-09-07T08:43 | 2 | 0 | 0.0 | 0 | 0.0 | 416 | 0.2 | 26.6 | 83.2 | 1010.0 |
| 2013-09-07T08:44 | 2 | 0 | 0.0 | 0 | 0.0 | 416 | 0.2 | 26.6 | 83.3 | 1010.0 |
| 2013-09-07T08:45 | 2 | 0 | 0.0 | 0 | 0.0 | 416 | 0.2 | 26.6 | 83.6 | 1010.0 |
| 2013-09-07T08:46 | 2 | 0 | 0.0 | 0 | 0.0 | 416 | 0.2 | 26.7 | 83.5 | 1010.0 |
| 2013-09-07T08:47 | 2 | 0 | 0.0 | 0 | 0.0 | 416 | 0.1 | 26.7 | 83.8 | 1010.0 |
| 2013-09-07T08:48 | 2 | 0 | 0.0 | 0 | 0.0 | 416 | 0.1 | 26.7 | 83.6 | 1010.0 |
| 2013-09-07T08:49 | 2 | 0 | 0.0 | 0 | 0.0 | 416 | 0.1 | 26.7 | 83.7 | 1010.0 |
| 2013-09-07T08:50 | 2 | 0 | 0.0 | 0 | 0.0 | 416 | 0.1 | 26.7 | 83.8 | 1010.0 |
| 2013-09-07T08:51 | 2 | 0 | 0.0 | 0 | 0.0 | 416 | 0.1 | 26.7 | 83.3 | 1010.0 |
| 2013-09-07T08:52 | 2 | 0 | 0.0 | 0 | 0.0 | 416 | 0.2 | 26.6 | 83.2 | 1010.0 |
| 2013-09-07T08:53 | 2 | 0 | 0.0 | 0 | 0.0 | 416 | 0.1 | 26.6 | 83.0 | 1010.0 |
| 2013-09-07T08:54 | 2 | 0 | 0.0 | 0 | 0.0 | 416 | 0.1 | 26.6 | 83.2 | 1010.0 |
| 2013-09-07T08:55 | 2 | 0 | 0.0 | 0 | 0.0 | 416 | 0.1 | 26.6 | 83.1 | 1010.0 |
| 2013-09-07T08:56 | 2 | 0 | 0.0 | 0 | 0.0 | 416 | 0.2 | 26.6 | 83.2 | 1011.0 |
| 2013-09-07T08:57 | 2 | 0 | 0.0 | 0 | 0.0 | 416 | 0.3 | 26.6 | 83.0 | 1011.0 |
| 2013-09-07T08:58 | 2 | 0 | 0.0 | 0 | 0.0 | 416 | 0.1 | 26.6 | 83.0 | 1011.0 |
| 2013-09-07T08:59 | 2 | 0 | 0.0 | 0 | 0.0 | 416 | 0.2 | 26.5 | 82.4 | 1011.0 |
| 2013-09-07T09:00 | 2 | 0 | 0.0 | 0 | 0.0 | 416 | 0.1 | 26.6 | 82.7 | 1011.0 |
| 2013-09-07T09:01 | 2 | 0 | 0.0 | 0 | 0.0 | 416 | 0.1 | 26.6 | 82.4 | 1011.0 |
| 2013-09-07T09:02 | 2 | 0 | 0.0 | 0 | 0.0 | 416 | 0.1 | 26.6 | 82.5 | 1011.0 |
| 2013-09-07T09:03 | 2 | 0 | 0.0 | 0 | 0.0 | 416 | 0.1 | 26.6 | 82.2 | 1011.0 |
| 2013-09-07T09:04 | 2 | 0 | 0.0 | 0 | 0.0 | 416 | 0.1 | 26.7 | 82.1 | 1011.0 |
| 2013-09-07T09:05 | 2 | 0 | 0.0 | 0 | 0.0 | 416 | 0.1 | 26.7 | 81.9 | 1011.0 |
| 2013-09-07T09:06 | 2 | 0 | 0.0 | 0 | 0.0 | 416 | 0.1 | 26.7 | 81.8 | 1011.0 |
| 2013-09-07T09:07 | 2 | 0 | 0.0 | 0 | 0.0 | 416 | 0.1 | 26.7 | 81.8 | 1011.0 |
| 2013-09-07T09:08 | 2 | 0 | 0.0 | 0 | 0.0 | 416 | 0.1 | 26.7 | 81.6 | 1011.0 |
| 2013-09-07T09:09 | 2 | 0 | 0.0 | 0 | 0.0 | 416 | 0.1 | 26.7 | 81.5 | 1011.0 |
| 2013-09-07T09:10 | 2 | 0 | 0.0 | 0 | 0.0 | 416 | 0.1 | 26.8 | 81.5 | 1011.0 |
| 2013-09-07T09:11 | 2 | 0 | 0.0 | 0 | 0.0 | 416 | 0.1 | 26.8 | 81.6 | 1011.0 |
| 2013-09-07T09:12 | 2 | 0 | 0.0 | 0 | 0.0 | 416 | 0.1 | 26.9 | 81.2 | 1011.0 |
| 2013-09-07T09:13 | 2 | 0 | 0.0 | 0 | 0.0 | 416 | 0.1 | 26.8 | 80.5 | 1011.0 |
| 2013-09-07T09:14 | 2 | 0 | 0.0 | 0 | 0.0 | 416 | 0.1 | 26.8 | 80.5 | 1011.0 |
| 2013-09-07T09:15 | 2 | 0 | 0.0 | 0 | 0.0 | 416 | 0.1 | 26.8 | 80.5 | 1011.0 |
| 2013-09-07T09:16 | 2 | 0 | 0.0 | 0 | 0.0 | 416 | 0.1 | 26.8 | 80.1 | 1011.0 |
| 2013-09-07T09:17 | 2 | 0 | 0.0 | 0 | 0.0 | 416 | 0.2 | 26.9 | 80.1 | 1011.0 |
| 2013-09-07T09:18 | 2 | 0 | 0.0 | 0 | 0.0 | 416 | 0.2 | 26.9 | 80.1 | 1011.0 |
| 2013-09-07T09:19 | 2 | 0 | 0.0 | 0 | 0.0 | 415 | 0.1 | 26.8 | 79.5 | 1011.0 |
| 2013-09-07T09:20 | 2 | 0 | 0.0 | 0 | 0.0 | 415 | 0.2 | 26.6 | 79.5 | 1011.0 |
| 2013-09-07T09:21 | 2 | 0 | 0.0 | 0 | 0.0 | 415 | 0.1 | 26.6 | 79.4 | 1011.0 |
| 2013-09-07T09:22 | 2 | 0 | 0.0 | 0 | 0.0 | 416 | 0.1 | 26.7 | 79.4 | 1011.0 |
| 2013-09-07T09:23 | 2 | 0 | 0.0 | 0 | 0.0 | 416 | 0.1 | 26.9 | 79.2 | 1011.0 |
| 2013-09-07T09:24 | 2 | 0 | 0.0 | 0 | 0.0 | 416 | 0.1 | 26.9 | 79.0 | 1011.0 |
| 2013-09-07T09:25 | 2 | 0 | 0.0 | 0 | 0.0 | 416 | 0.1 | 26.9 | 78.9 | 1011.0 |
| 2013-09-07T09:26 | 2 | 0 | 0.0 | 0 | 0.0 | 416 | 0.1 | 27.0 | 78.5 | 1011.0 |
| 2013-09-07T09:27 | 2 | 0 | 0.0 | 0 | 0.0 | 416 | 0.1 | 27.0 | 78.1 | 1011.0 |
| 2013-09-07T09:28 | 2 | 0 | 0.0 | 0 | 0.0 | 416 | 0.1 | 27.0 | 78.3 | 1011.0 |
| 2013-09-07T09:29 | 2 | 0 | 0.0 | 0 | 0.0 | 416 | 0.1 | 27.0 | 77.9 | 1011.0 |
| 2013-09-07T09:30 | 2 | 0 | 0.0 | 0 | 0.0 | 416 | 0.1 | 27.0 | 77.7 | 1011.0 |
| 2013-09-07T09:31 | 2 | 0 | 0.0 | 0 | 0.0 | 416 | 0.1 | 27.1 | 77.5 | 1011.0 |
| 2013-09-07T09:32 | 2 | 0 | 0.0 | 0 | 0.0 | 416 | 0.2 | 27.1 | 77.8 | 1011.0 |
| 2013-09-07T09:33 | 2 | 0 | 0.0 | 0 | 0.0 | 416 | 0.1 | 27.1 | 77.3 | 1011.0 |
| 2013-09-07T09:34 | 2 | 0 | 0.0 | 0 | 0.0 | 416 | 0.1 | 27.1 | 77.4 | 1011.0 |
| 2013-09-07T09:35 | 2 | 0 | 0.0 | 0 | 0.0 | 416 | 0.1 | 27.2 | 77.5 | 1011.0 |
| 2013-09-07T09:36 | 2 | 0 | 0.0 | 0 | 0.0 | 416 | 0.1 | 27.2 | 77.4 | 1011.0 |
| 2013-09-07T09:37 | 2 | 0 | 0.0 | 0 | 0.0 | 416 | 0.1 | 27.2 | 77.2 | 1011.0 |
| 2013-09-07T09:38 | 2 | 0 | 0.0 | 0 | 0.0 | 416 | 0.2 | 27.2 | 77.6 | 1011.0 |
| 2013-09-07T09:39 | 2 | 0 | 0.0 | 0 | 0.0 | 416 | 0.1 | 27.2 | 77.8 | 1011.0 |
| 2013-09-07T09:40 | 2 | 0 | 0.0 | 0 | 0.0 | 416 | 0.1 | 27.2 | 77.7 | 1011.0 |
| 2013-09-07T09:41 | 2 | 0 | 0.0 | 0 | 0.0 | 416 | 0.1 | 27.2 | 77.9 | 1011.0 |
| 2013-09-07T09:42 | 2 | 0 | 0.0 | 0 | 0.0 | 416 | 0.1 | 27.2 | 77.9 | 1011.0 |
| 2013-09-07T09:43 | 2 | 0 | 0.0 | 0 | 0.0 | 417 | 0.1 | 27.2 | 78.0 | 1011.0 |
| 2013-09-07T09:44 | 2 | 0 | 0.0 | 0 | 0.0 | 417 | 0.1 | 27.2 | 78.5 | 1011.0 |
| 2013-09-07T09:45 | 2 | 0 | 0.0 | 0 | 0.0 | 417 | 0.1 | 27.3 | 78.4 | 1011.0 |
| 2013-09-07T09:46 | 2 | 0 | 0.0 | 0 | 0.0 | 417 | 0.1 | 27.3 | 78.5 | 1011.0 |
| 2013-09-07T09:47 | 2 | 0 | 0.0 | 0 | 0.0 | 417 | 0.1 | 27.3 | 78.7 | 1011.0 |
| 2013-09-07T09:48 | 2 | 0 | 0.0 | 0 | 0.0 | 418 | 0.1 | 27.3 | 78.7 | 1011.0 |
| 2013-09-07T09:49 | 2 | 0 | 0.0 | 0 | 0.0 | 418 | 0.1 | 27.3 | 78.2 | 1011.0 |
| 2013-09-07T09:50 | 2 | 0 | 0.0 | 0 | 0.0 | 418 | 0.1 | 27.2 | 78.3 | 1011.0 |
| 2013-09-07T09:51 | 2 | 0 | 0.0 | 0 | 0.0 | 418 | 0.2 | 27.2 | 78.2 | 1011.0 |
| 2013-09-07T09:52 | 2 | 0 | 0.0 | 0 | 0.0 | 418 | 0.1 | 27.2 | 78.1 | 1011.0 |
| 2013-09-07T09:53 | 2 | 0 | 0.0 | 0 | 0.0 | 418 | 0.2 | 27.2 | 78.5 | 1011.0 |
| 2013-09-07T09:54 | 2 | 0 | 0.0 | 0 | 0.0 | 418 | 0.2 | 27.2 | 78.6 | 1011.0 |
| 2013-09-07T09:55 | 2 | 0 | 0.0 | 0 | 0.0 | 418 | 0.1 | 27.3 | 78.6 | 1011.0 |
| 2013-09-07T09:56 | 2 | 0 | 0.0 | 0 | 0.0 | 419 | 0.1 | 27.3 | 78.8 | 1011.0 |
| 2013-09-07T09:57 | 2 | 0 | 0.0 | 0 | 0.0 | 419 | 0.2 | 27.3 | 78.4 | 1011.0 |
| 2013-09-07T09:58 | 2 | 0 | 0.0 | 0 | 0.0 | 419 | 0.1 | 27.2 | 78.1 | 1011.0 |
| 2013-09-07T09:59 | 2 | 0 | 0.0 | 0 | 0.0 | 419 | 0.2 | 27.2 | 78.2 | 1011.0 |
| 2013-09-07T10:00 | 2 | 0 | 0.0 | 0 | 0.0 | 419 | 0.2 | 27.2 | 78.6 | 1011.0 |
| 2013-09-07T10:01 | 2 | 0 | 0.0 | 0 | 0.0 | 419 | 0.1 | 27.3 | 78.4 | 1011.0 |
| 2013-09-07T10:02 | 2 | 0 | 0.0 | 0 | 0.0 | 419 | 0.2 | 27.3 | 78.3 | 1011.0 |
| 2013-09-07T10:03 | 2 | 0 | 0.0 | 0 | 0.0 | 419 | 0.1 | 27.3 | 78.5 | 1011.0 |
| 2013-09-07T10:04 | 2 | 0 | 0.0 | 0 | 0.0 | 419 | 0.1 | 27.3 | 78.8 | 1011.0 |
| 2013-09-07T10:05 | 2 | 0 | 0.0 | 0 | 0.0 | 419 | 0.1 | 27.3 | 78.8 | 1011.0 |
| 2013-09-07T10:06 | 2 | 0 | 0.0 | 0 | 0.0 | 419 | 0.1 | 27.3 | 78.8 | 1011.0 |
| 2013-09-07T10:07 | 2 | 0 | 0.0 | 0 | 0.0 | 419 | 0.2 | 27.3 | 78.9 | 1011.0 |
| 2013-09-07T10:08 | 2 | 0 | 0.0 | 0 | 0.0 | 420 | 0.1 | 27.3 | 79.1 | 1011.0 |
| 2013-09-07T10:09 | 2 | 0 | 0.0 | 0 | 0.0 | 419 | 0.1 | 27.3 | 78.7 | 1011.0 |
| 2013-09-07T10:10 | 2 | 0 | 0.0 | 0 | 0.0 | 420 | 0.2 | 27.3 | 78.9 | 1011.0 |
| 2013-09-07T10:11 | 2 | 0 | 0.0 | 0 | 0.0 | 420 | 0.1 | 27.3 | 79.4 | 1011.0 |
| 2013-09-07T10:12 | 2 | 0 | 0.0 | 0 | 0.0 | 420 | 0.2 | 27.3 | 79.3 | 1011.0 |
| 2013-09-07T10:13 | 2 | 0 | 0.0 | 0 | 0.0 | 419 | 0.1 | 27.3 | 79.3 | 1011.0 |
| 2013-09-07T10:14 | 2 | 0 | 0.0 | 0 | 0.0 | 419 | 0.2 | 27.3 | 79.4 | 1011.0 |
| 2013-09-07T10:15 | 2 | 0 | 0.0 | 0 | 0.0 | 419 | 0.1 | 27.3 | 79.2 | 1011.0 |
| 2013-09-07T10:16 | 2 | 0 | 0.0 | 0 | 0.0 | 419 | 0.1 | 27.3 | 79.3 | 1011.0 |
| 2013-09-07T10:17 | 2 | 0 | 0.0 | 0 | 0.0 | 419 | 0.2 | 27.3 | 79.4 | 1011.0 |
| 2013-09-07T10:18 | 2 | 0 | 0.0 | 0 | 0.0 | 419 | 0.1 | 27.3 | 79.6 | 1011.0 |
| 2013-09-07T10:19 | 2 | 0 | 0.0 | 0 | 0.0 | 419 | 0.1 | 27.3 | 79.5 | 1011.0 |
| 2013-09-07T10:20 | 2 | 0 | 0.0 | 0 | 0.0 | 419 | 0.2 | 27.3 | 79.5 | 1011.0 |
| 2013-09-07T10:21 | 2 | 0 | 0.0 | 0 | 0.0 | 419 | 0.2 | 27.3 | 79.6 | 1011.0 |
| 2013-09-07T10:22 | 2 | 0 | 0.0 | 0 | 0.0 | 419 | 0.2 | 27.3 | 79.4 | 1012.0 |
| 2013-09-07T10:23 | 2 | 0 | 0.0 | 0 | 0.0 | 419 | 0.3 | 27.2 | 79.2 | 1012.0 |
| 2013-09-07T10:24 | 2 | 0 | 0.0 | 0 | 0.0 | 419 | 0.1 | 27.2 | 79.6 | 1012.0 |
| 2013-09-07T10:25 | 2 | 0 | 0.0 | 0 | 0.0 | 418 | 0.2 | 27.3 | 79.9 | 1012.0 |
| 2013-09-07T10:26 | 2 | 0 | 0.0 | 0 | 0.0 | 418 | 0.2 | 27.3 | 79.6 | 1012.0 |
| 2013-09-07T10:27 | 2 | 0 | 0.0 | 0 | 0.0 | 418 | 0.2 | 27.3 | 79.3 | 1012.0 |
| 2013-09-07T10:28 | 2 | 0 | 0.0 | 0 | 0.0 | 418 | 0.2 | 27.3 | 79.5 | 1012.0 |
| 2013-09-07T10:29 | 2 | 0 | 0.0 | 0 | 0.0 | 417 | 0.3 | 27.3 | 79.6 | 1012.0 |
| 2013-09-07T10:30 | 2 | 0 | 0.0 | 0 | 0.0 | 417 | 0.1 | 27.2 | 79.5 | 1012.0 |
| 2013-09-07T10:31 | 2 | 0 | 0.0 | 0 | 0.0 | 417 | 0.2 | 27.3 | 79.8 | 1012.0 |
| 2013-09-07T10:32 | 2 | 0 | 0.0 | 0 | 0.0 | 417 | 0.1 | 27.3 | 79.5 | 1012.0 |
| 2013-09-07T10:33 | 2 | 0 | 0.0 | 0 | 0.0 | 416 | 0.2 | 27.3 | 79.7 | 1012.0 |
| 2013-09-07T10:34 | 2 | 0 | 0.0 | 0 | 0.0 | 416 | 0.3 | 27.3 | 79.8 | 1012.0 |
| 2013-09-07T10:35 | 2 | 0 | 0.0 | 0 | 0.0 | 415 | 0.2 | 27.3 | 79.7 | 1012.0 |
| 2013-09-07T10:36 | 2 | 0 | 0.0 | 0 | 0.0 | 415 | 0.3 | 27.3 | 79.1 | 1012.0 |
| 2013-09-07T10:37 | 2 | 0 | 0.0 | 0 | 0.0 | 414 | 0.1 | 27.2 | 79.0 | 1012.0 |
| 2013-09-07T10:38 | 2 | 0 | 0.0 | 0 | 0.0 | 414 | 0.1 | 27.2 | 79.5 | 1012.0 |
| 2013-09-07T10:39 | 2 | 0 | 0.0 | 0 | 0.0 | 414 | 0.1 | 27.3 | 79.8 | 1012.0 |
| 2013-09-07T10:40 | 2 | 0 | 0.0 | 0 | 0.0 | 413 | 0.1 | 27.3 | 79.2 | 1012.0 |
| 2013-09-07T10:41 | 2 | 0 | 0.0 | 0 | 0.0 | 413 | 0.2 | 27.3 | 79.4 | 1012.0 |
| 2013-09-07T10:42 | 2 | 0 | 0.0 | 0 | 0.0 | 413 | 0.1 | 27.3 | 79.5 | 1012.0 |
| 2013-09-07T10:43 | 2 | 0 | 0.0 | 0 | 0.0 | 412 | 0.2 | 27.3 | 79.0 | 1012.0 |
| 2013-09-07T10:44 | 2 | 0 | 0.0 | 0 | 0.0 | 412 | 0.1 | 27.2 | 78.9 | 1012.0 |
| 2013-09-07T10:45 | 2 | 0 | 0.0 | 0 | 0.0 | 412 | 0.1 | 27.2 | 79.0 | 1012.0 |
| 2013-09-07T10:46 | 2 | 0 | 0.0 | 0 | 0.0 | 411 | 0.1 | 27.2 | 79.0 | 1012.0 |
| 2013-09-07T10:47 | 2 | 0 | 0.0 | 0 | 0.0 | 411 | 0.1 | 27.2 | 79.3 | 1012.0 |
| 2013-09-07T10:48 | 2 | 0 | 0.0 | 0 | 0.0 | 411 | 0.1 | 27.2 | 79.3 | 1012.0 |
| 2013-09-07T10:49 | 2 | 0 | 0.0 | 0 | 0.0 | 411 | 0.4 | 27.3 | 79.6 | 1012.0 |
| 2013-09-07T10:50 | 2 | 0 | 0.0 | 0 | 0.0 | 410 | 0.2 | 27.3 | 79.4 | 1012.0 |
| 2013-09-07T10:51 | 2 | 0 | 0.0 | 0 | 0.0 | 410 | 0.1 | 27.2 | 79.1 | 1012.0 |
| 2013-09-07T10:52 | 2 | 0 | 0.0 | 0 | 0.0 | 410 | 0.2 | 27.3 | 79.3 | 1012.0 |
| 2013-09-07T10:53 | 2 | 0 | 0.0 | 0 | 0.0 | 409 | 0.1 | 27.2 | 79.3 | 1012.0 |
| 2013-09-07T10:54 | 2 | 0 | 0.0 | 0 | 0.0 | 409 | 0.1 | 27.2 | 79.5 | 1012.0 |
| 2013-09-07T10:55 | 2 | 0 | 0.0 | 0 | 0.0 | 409 | 0.1 | 27.2 | 80.0 | 1012.0 |
| 2013-09-07T10:56 | 2 | 0 | 0.0 | 0 | 0.0 | 410 | 0.1 | 27.3 | 79.9 | 1012.0 |
| 2013-09-07T10:57 | 2 | 0 | 0.0 | 0 | 0.0 | 410 | 0.1 | 27.3 | 80.0 | 1012.0 |
| 2013-09-07T10:58 | 2 | 0 | 0.0 | 0 | 0.0 | 410 | 0.1 | 27.3 | 80.0 | 1012.0 |
| 2013-09-07T10:59 | 2 | 0 | 0.0 | 0 | 0.0 | 410 | 0.2 | 27.3 | 79.7 | 1012.0 |
| 2013-09-07T11:00 | 2 | 0 | 0.0 | 0 | 0.0 | 409 | 0.1 | 27.2 | 80.0 | 1012.0 |
| 2013-09-07T11:01 | 2 | 0 | 0.0 | 0 | 0.0 | 409 | 0.1 | 27.2 | 80.0 | 1012.0 |
| 2013-09-07T11:02 | 2 | 0 | 0.0 | 0 | 0.0 | 410 | 0.1 | 27.3 | 80.3 | 1012.0 |
| 2013-09-07T11:03 | 2 | 0 | 0.0 | 0 | 0.0 | 410 | 0.1 | 27.3 | 80.2 | 1012.0 |
| 2013-09-07T11:04 | 2 | 0 | 0.0 | 0 | 0.0 | 410 | 0.1 | 27.3 | 80.5 | 1012.0 |
| 2013-09-07T11:05 | 2 | 0 | 0.0 | 0 | 0.0 | 410 | 0.1 | 27.3 | 80.5 | 1012.0 |
| 2013-09-07T11:06 | 2 | 0 | 0.0 | 0 | 0.0 | 410 | 0.1 | 27.3 | 80.6 | 1012.0 |
| 2013-09-07T11:07 | 2 | 0 | 0.0 | 0 | 0.0 | 410 | 0.2 | 27.3 | 80.1 | 1012.0 |
| 2013-09-07T11:08 | 2 | 0 | 0.0 | 0 | 0.0 | 411 | 0.1 | 27.3 | 80.2 | 1012.0 |
| 2013-09-07T11:09 | 2 | 0 | 0.0 | 0 | 0.0 | 411 | 0.2 | 27.2 | 80.2 | 1012.0 |
| 2013-09-07T11:10 | 2 | 0 | 0.0 | 0 | 0.0 | 411 | 0.1 | 27.2 | 80.6 | 1012.0 |
| 2013-09-07T11:11 | 2 | 0 | 0.0 | 0 | 0.0 | 411 | 0.1 | 27.3 | 80.6 | 1012.0 |
| 2013-09-07T11:12 | 2 | 0 | 0.0 | 0 | 0.0 | 411 | 0.1 | 27.3 | 80.4 | 1012.0 |
| 2013-09-07T11:13 | 2 | 0 | 0.0 | 0 | 0.0 | 412 | 0.1 | 27.2 | 80.4 | 1012.0 |
| 2013-09-07T11:14 | 2 | 0 | 0.0 | 0 | 0.0 | 412 | 0.2 | 27.2 | 80.4 | 1012.0 |
| 2013-09-07T11:15 | 2 | 0 | 0.0 | 0 | 0.0 | 412 | 0.2 | 27.2 | 80.5 | 1012.0 |
| 2013-09-07T11:16 | 2 | 0 | 0.0 | 0 | 0.0 | 412 | 0.1 | 27.2 | 80.4 | 1012.0 |
| 2013-09-07T11:17 | 2 | 0 | 0.0 | 0 | 0.0 | 412 | 0.1 | 27.2 | 80.5 | 1012.0 |
| 2013-09-07T11:18 | 2 | 0 | 0.0 | 0 | 0.0 | 412 | 0.2 | 27.2 | 80.6 | 1012.0 |
| 2013-09-07T11:19 | 2 | 0 | 0.0 | 0 | 0.0 | 412 | 0.1 | 27.2 | 80.6 | 1012.0 |
| 2013-09-07T11:20 | 2 | 0 | 0.0 | 0 | 0.0 | 412 | 0.1 | 27.2 | 80.5 | 1012.0 |
| 2013-09-07T11:21 | 2 | 0 | 0.0 | 0 | 0.0 | 412 | 0.1 | 27.2 | 80.4 | 1012.0 |
| 2013-09-07T11:22 | 2 | 0 | 0.0 | 0 | 0.0 | 412 | 0.1 | 27.2 | 80.7 | 1012.0 |
| 2013-09-07T11:23 | 2 | 0 | 0.0 | 0 | 0.0 | 412 | 0.1 | 27.2 | 80.7 | 1012.0 |
| 2013-09-07T11:24 | 2 | 0 | 0.0 | 0 | 0.0 | 412 | 0.1 | 27.2 | 80.6 | 1012.0 |
| 2013-09-07T11:25 | 2 | 0 | 0.0 | 0 | 0.0 | 412 | 0.1 | 27.2 | 80.8 | 1012.0 |
| 2013-09-07T11:26 | 2 | 0 | 0.0 | 0 | 0.0 | 412 | 0.1 | 27.2 | 80.7 | 1012.0 |
| 2013-09-07T11:27 | 2 | 0 | 0.0 | 0 | 0.0 | 412 | 0.1 | 27.2 | 80.7 | 1012.0 |
| 2013-09-07T11:28 | 2 | 0 | 0.0 | 0 | 0.0 | 412 | 0.1 | 27.2 | 80.7 | 1012.0 |
| 2013-09-07T11:29 | 2 | 0 | 0.0 | 0 | 0.0 | 412 | 0.1 | 27.2 | 80.8 | 1012.0 |
| 2013-09-07T11:30 | 2 | 0 | 0.0 | 0 | 0.0 | 412 | 0.1 | 27.2 | 80.9 | 1012.0 |
| 2013-09-07T11:31 | 2 | 0 | 0.0 | 0 | 0.0 | 412 | 0.1 | 27.2 | 80.8 | 1012.0 |
| 2013-09-07T11:32 | 2 | 0 | 0.0 | 0 | 0.0 | 412 | 0.1 | 27.2 | 80.9 | 1012.0 |
| 2013-09-07T11:33 | 2 | 0 | 0.0 | 0 | 0.0 | 413 | 0.1 | 27.2 | 80.8 | 1012.0 |
| 2013-09-07T11:34 | 2 | 0 | 0.0 | 0 | 0.0 | 413 | 0.1 | 27.2 | 80.9 | 1012.0 |
| 2013-09-07T11:35 | 2 | 0 | 0.0 | 0 | 0.0 | 413 | 0.1 | 27.2 | 81.0 | 1012.0 |
| 2013-09-07T11:36 | 2 | 0 | 0.0 | 0 | 0.0 | 413 | 0.1 | 27.2 | 81.0 | 1012.0 |
| 2013-09-07T11:37 | 2 | 0 | 0.0 | 0 | 0.0 | 413 | 0.1 | 27.2 | 81.2 | 1012.0 |
| 2013-09-07T11:38 | 2 | 0 | 0.0 | 0 | 0.0 | 413 | 0.1 | 27.2 | 81.3 | 1012.0 |
| 2013-09-07T11:39 | 2 | 0 | 0.0 | 0 | 0.0 | 413 | 0.1 | 27.2 | 81.3 | 1012.0 |
| 2013-09-07T11:40 | 2 | 0 | 0.0 | 0 | 0.0 | 413 | 0.1 | 27.2 | 81.3 | 1012.0 |
| 2013-09-07T11:41 | 2 | 0 | 0.0 | 0 | 0.0 | 413 | 0.1 | 27.2 | 81.1 | 1012.0 |
| 2013-09-07T11:42 | 2 | 0 | 0.0 | 0 | 0.0 | 413 | 0.1 | 27.2 | 81.1 | 1012.0 |
| 2013-09-07T11:43 | 2 | 0 | 0.0 | 0 | 0.0 | 413 | 0.1 | 27.2 | 81.1 | 1012.0 |
| 2013-09-07T11:44 | 2 | 0 | 0.0 | 0 | 0.0 | 413 | 0.1 | 27.2 | 81.3 | 1012.0 |
| 2013-09-07T11:45 | 2 | 0 | 0.0 | 0 | 0.0 | 413 | 0.2 | 27.1 | 81.2 | 1012.0 |
| 2013-09-07T11:46 | 2 | 0 | 0.0 | 0 | 0.0 | 413 | 0.1 | 27.2 | 81.3 | 1012.0 |
| 2013-09-07T11:47 | 2 | 0 | 0.0 | 0 | 0.0 | 413 | 0.1 | 27.2 | 81.1 | 1012.0 |
| 2013-09-07T11:48 | 2 | 0 | 0.0 | 0 | 0.0 | 414 | 0.1 | 27.2 | 81.1 | 1011.0 |
| 2013-09-07T11:49 | 2 | 0 | 0.0 | 0 | 0.0 | 414 | 0.1 | 27.2 | 81.0 | 1011.0 |
| 2013-09-07T11:50 | 2 | 0 | 0.0 | 0 | 0.0 | 414 | 0.2 | 27.2 | 81.1 | 1011.0 |
| 2013-09-07T11:51 | 2 | 0 | 0.0 | 0 | 0.0 | 414 | 0.1 | 27.2 | 81.1 | 1011.0 |
| 2013-09-07T11:52 | 2 | 0 | 0.0 | 0 | 0.0 | 414 | 0.1 | 27.2 | 81.1 | 1011.0 |
| 2013-09-07T11:53 | 2 | 0 | 0.0 | 0 | 0.0 | 415 | 0.1 | 27.3 | 81.0 | 1011.0 |
| 2013-09-07T11:54 | 2 | 0 | 0.0 | 0 | 0.0 | 415 | 0.2 | 27.3 | 81.0 | 1011.0 |
| 2013-09-07T11:55 | 2 | 0 | 0.0 | 0 | 0.0 | 416 | 0.5 | 27.3 | 81.0 | 1011.0 |
| 2013-09-07T11:56 | 2 | 0 | 0.0 | 0 | 0.0 | 418 | 0.7 | 27.3 | 80.9 | 1011.0 |
| 2013-09-07T11:57 | 2 | 0 | 0.0 | 0 | 0.0 | 419 | 0.2 | 27.3 | 80.9 | 1011.0 |
| 2013-09-07T11:58 | 2 | 0 | 0.0 | 0 | 0.0 | 418 | 0.5 | 27.3 | 80.9 | 1011.0 |
| 2013-09-07T11:59 | 2 | 0 | 0.0 | 0 | 0.0 | 416 | 0.6 | 27.3 | 80.8 | 1011.0 |
| 2013-09-07T12:00 | 2 | 0 | 0.0 | 0 | 0.0 | 415 | 0.2 | 27.3 | 81.1 | 1012.0 |
| 2013-09-07T12:01 | 2 | 0 | 0.0 | 0 | 0.0 | 415 | 0.1 | 27.3 | 81.1 | 1012.0 |
| 2013-09-07T12:02 | 2 | 0 | 0.0 | 0 | 0.0 | 415 | 0.2 | 27.3 | 81.3 | 1012.0 |
| 2013-09-07T12:03 | 2 | 0 | 0.0 | 0 | 0.0 | 414 | 0.1 | 27.3 | 81.3 | 1012.0 |
| 2013-09-07T12:04 | 2 | 0 | 0.0 | 0 | 0.0 | 415 | 0.2 | 27.4 | 81.1 | 1012.0 |
| 2013-09-07T12:05 | 2 | 0 | 0.0 | 0 | 0.0 | 414 | 0.1 | 27.3 | 81.2 | 1012.0 |
| 2013-09-07T12:06 | 2 | 0 | 0.0 | 0 | 0.0 | 414 | 0.1 | 27.3 | 81.2 | 1012.0 |
| 2013-09-07T12:07 | 2 | 0 | 0.0 | 0 | 0.0 | 414 | 0.1 | 27.3 | 81.1 | 1012.0 |
| 2013-09-07T12:08 | 2 | 0 | 0.0 | 0 | 0.0 | 414 | 0.2 | 27.3 | 81.2 | 1012.0 |
| 2013-09-07T12:09 | 2 | 0 | 0.0 | 0 | 0.0 | 414 | 0.1 | 27.3 | 81.1 | 1012.0 |
| 2013-09-07T12:10 | 2 | 0 | 0.0 | 0 | 0.0 | 415 | 0.1 | 27.3 | 81.2 | 1012.0 |
| 2013-09-07T12:11 | 2 | 0 | 0.0 | 0 | 0.0 | 415 | 0.1 | 27.3 | 81.1 | 1012.0 |
| 2013-09-07T12:12 | 2 | 0 | 0.0 | 0 | 0.0 | 415 | 0.1 | 27.3 | 81.1 | 1012.0 |
| 2013-09-07T12:13 | 2 | 0 | 0.0 | 0 | 0.0 | 415 | 0.1 | 27.3 | 81.2 | 1012.0 |
| 2013-09-07T12:14 | 2 | 0 | 0.0 | 0 | 0.0 | 415 | 0.2 | 27.3 | 81.1 | 1012.0 |
| 2013-09-07T12:15 | 2 | 0 | 0.0 | 0 | 0.0 | 415 | 0.2 | 27.3 | 81.0 | 1012.0 |
| 2013-09-07T12:16 | 2 | 0 | 0.0 | 0 | 0.0 | 415 | 0.2 | 27.3 | 81.0 | 1012.0 |
| 2013-09-07T12:17 | 2 | 0 | 0.0 | 0 | 0.0 | 415 | 0.1 | 27.3 | 80.9 | 1012.0 |
| 2013-09-07T12:18 | 2 | 0 | 0.0 | 0 | 0.0 | 415 | 0.1 | 27.3 | 80.8 | 1012.0 |
| 2013-09-07T12:19 | 2 | 0 | 0.0 | 0 | 0.0 | 415 | 0.2 | 27.3 | 81.0 | 1012.0 |
| 2013-09-07T12:20 | 2 | 0 | 0.0 | 0 | 0.0 | 415 | 0.1 | 27.3 | 81.0 | 1012.0 |
| 2013-09-07T12:21 | 2 | 0 | 0.0 | 0 | 0.0 | 414 | 0.1 | 27.3 | 81.0 | 1011.0 |
| 2013-09-07T12:22 | 2 | 0 | 0.0 | 0 | 0.0 | 415 | 0.1 | 27.3 | 81.2 | 1011.0 |
| 2013-09-07T12:23 | 2 | 0 | 0.0 | 0 | 0.0 | 415 | 0.1 | 27.3 | 81.2 | 1011.0 |
| 2013-09-07T12:24 | 2 | 0 | 0.0 | 0 | 0.0 | 415 | 0.2 | 27.3 | 81.2 | 1011.0 |
| 2013-09-07T12:25 | 2 | 0 | 0.0 | 0 | 0.0 | 415 | 0.1 | 27.3 | 81.2 | 1011.0 |
| 2013-09-07T12:26 | 2 | 0 | 0.0 | 0 | 0.0 | 416 | 0.2 | 27.2 | 81.2 | 1011.0 |
| 2013-09-07T12:27 | 2 | 0 | 0.0 | 0 | 0.0 | 416 | 0.2 | 27.1 | 81.3 | 1011.0 |
| 2013-09-07T12:28 | 2 | 0 | 0.0 | 0 | 0.0 | 417 | 0.5 | 27.3 | 81.4 | 1011.0 |
| 2013-09-07T12:29 | 2 | 0 | 0.0 | 0 | 0.0 | 418 | 0.1 | 27.3 | 81.4 | 1011.0 |
| 2013-09-07T12:30 | 2 | 0 | 0.0 | 0 | 0.0 | 416 | 0.5 | 27.3 | 81.4 | 1011.0 |
| 2013-09-07T12:31 | 2 | 0 | 0.0 | 0 | 0.0 | 415 | 0.2 | 27.3 | 81.3 | 1011.0 |
| 2013-09-07T12:32 | 2 | 0 | 0.0 | 0 | 0.0 | 415 | 0.1 | 27.3 | 81.3 | 1011.0 |
| 2013-09-07T12:33 | 2 | 0 | 0.0 | 0 | 0.0 | 415 | 0.1 | 27.3 | 81.3 | 1011.0 |
| 2013-09-07T12:34 | 2 | 0 | 0.0 | 0 | 0.0 | 415 | 0.1 | 27.3 | 81.1 | 1011.0 |
| 2013-09-07T12:35 | 2 | 0 | 0.0 | 0 | 0.0 | 415 | 0.1 | 27.3 | 81.1 | 1011.0 |
| 2013-09-07T12:36 | 2 | 0 | 0.0 | 0 | 0.0 | 415 | 0.2 | 27.3 | 81.3 | 1011.0 |
| 2013-09-07T12:37 | 2 | 0 | 0.0 | 0 | 0.0 | 416 | 0.1 | 27.3 | 81.3 | 1011.0 |
| 2013-09-07T12:38 | 2 | 0 | 0.0 | 0 | 0.0 | 416 | 0.1 | 27.4 | 81.2 | 1011.0 |
| 2013-09-07T12:39 | 2 | 0 | 0.0 | 0 | 0.0 | 416 | 0.0 | 27.3 | 81.1 | 1011.0 |
| 2013-09-07T12:40 | 2 | 0 | 0.0 | 0 | 0.0 | 416 | 0.2 | 27.3 | 81.2 | 1011.0 |
| 2013-09-07T12:41 | 2 | 0 | 0.0 | 0 | 0.0 | 416 | 0.2 | 27.3 | 81.3 | 1011.0 |
| 2013-09-07T12:42 | 2 | 0 | 0.0 | 0 | 0.0 | 416 | 0.2 | 27.3 | 81.3 | 1011.0 |
| 2013-09-07T12:43 | 2 | 0 | 0.0 | 0 | 0.0 | 415 | 0.1 | 27.3 | 81.0 | 1011.0 |
| 2013-09-07T12:44 | 2 | 0 | 0.0 | 0 | 0.0 | 415 | 0.1 | 27.3 | 81.0 | 1011.0 |
| 2013-09-07T12:45 | 2 | 0 | 0.0 | 0 | 0.0 | 415 | 0.1 | 27.3 | 81.0 | 1011.0 |
| 2013-09-07T12:46 | 2 | 0 | 0.0 | 0 | 0.0 | 415 | 0.1 | 27.3 | 81.0 | 1011.0 |
| 2013-09-07T12:47 | 2 | 0 | 0.0 | 0 | 0.0 | 415 | 0.1 | 27.3 | 81.0 | 1011.0 |
| 2013-09-07T12:48 | 2 | 0 | 0.0 | 0 | 0.0 | 415 | 0.1 | 27.3 | 81.0 | 1011.0 |
| 2013-09-07T12:49 | 2 | 0 | 0.0 | 0 | 0.0 | 416 | 0.1 | 27.3 | 81.2 | 1011.0 |
| 2013-09-07T12:50 | 2 | 0 | 0.0 | 0 | 0.0 | 416 | 0.1 | 27.3 | 81.2 | 1011.0 |
| 2013-09-07T12:51 | 2 | 0 | 0.0 | 0 | 0.0 | 416 | 0.1 | 27.3 | 80.9 | 1011.0 |
| 2013-09-07T12:52 | 2 | 0 | 0.0 | 0 | 0.0 | 416 | 0.2 | 27.3 | 80.9 | 1011.0 |
| 2013-09-07T12:53 | 2 | 0 | 0.0 | 0 | 0.0 | 416 | 0.2 | 27.3 | 80.9 | 1011.0 |
| 2013-09-07T12:54 | 2 | 0 | 0.0 | 0 | 0.0 | 416 | 0.1 | 27.3 | 80.9 | 1011.0 |
| 2013-09-07T12:55 | 2 | 0 | 0.0 | 0 | 0.0 | 416 | 0.1 | 27.3 | 80.9 | 1011.0 |
| 2013-09-07T12:56 | 2 | 0 | 0.0 | 0 | 0.0 | 416 | 0.2 | 27.4 | 81.0 | 1011.0 |
| 2013-09-07T12:57 | 2 | 0 | 0.0 | 0 | 0.0 | 416 | 0.1 | 27.4 | 80.9 | 1011.0 |
| 2013-09-07T12:58 | 2 | 0 | 0.0 | 0 | 0.0 | 417 | 0.1 | 27.4 | 80.8 | 1011.0 |
| 2013-09-07T12:59 | 2 | 0 | 0.0 | 0 | 0.0 | 417 | 0.1 | 27.4 | 80.9 | 1011.0 |
| 2013-09-07T13:00 | 2 | 0 | 0.0 | 0 | 0.0 | 417 | 0.1 | 27.4 | 80.8 | 1011.0 |
| 2013-09-07T13:01 | 2 | 0 | 0.0 | 0 | 0.0 | 417 | 0.1 | 27.4 | 80.8 | 1011.0 |
| 2013-09-07T13:02 | 2 | 0 | 0.0 | 0 | 0.0 | 417 | 0.1 | 27.4 | 80.8 | 1011.0 |
| 2013-09-07T13:03 | 2 | 0 | 0.0 | 0 | 0.0 | 418 | 0.2 | 27.4 | 80.8 | 1011.0 |
| 2013-09-07T13:04 | 2 | 0 | 0.0 | 0 | 0.0 | 418 | 0.1 | 27.3 | 80.9 | 1011.0 |
| 2013-09-07T13:05 | 2 | 0 | 0.0 | 0 | 0.0 | 418 | 0.1 | 27.3 | 80.8 | 1011.0 |
| 2013-09-07T13:06 | 2 | 0 | 0.0 | 0 | 0.0 | 418 | 0.1 | 27.3 | 80.7 | 1011.0 |
| 2013-09-07T13:07 | 2 | 0 | 0.0 | 0 | 0.0 | 419 | 0.1 | 27.3 | 80.7 | 1011.0 |
| 2013-09-07T13:08 | 2 | 0 | 0.0 | 0 | 0.0 | 419 | 0.1 | 27.2 | 80.8 | 1011.0 |
| 2013-09-07T13:09 | 2 | 0 | 0.0 | 0 | 0.0 | 419 | 0.1 | 27.2 | 81.2 | 1011.0 |
| 2013-09-07T13:10 | 2 | 0 | 0.0 | 0 | 0.0 | 419 | 0.3 | 27.2 | 81.4 | 1011.0 |
| 2013-09-07T13:11 | 2 | 0 | 0.0 | 0 | 0.0 | 420 | 0.2 | 27.2 | 81.5 | 1011.0 |
| 2013-09-07T13:12 | 2 | 0 | 0.0 | 0 | 0.0 | 420 | 0.1 | 27.1 | 81.5 | 1011.0 |
| 2013-09-07T13:13 | 2 | 0 | 0.0 | 0 | 0.0 | 420 | 0.2 | 27.1 | 81.6 | 1011.0 |
| 2013-09-07T13:14 | 2 | 0 | 0.0 | 0 | 0.0 | 421 | 0.2 | 27.1 | 81.7 | 1011.0 |
| 2013-09-07T13:15 | 2 | 0 | 0.0 | 0 | 0.0 | 422 | 0.3 | 27.2 | 81.8 | 1011.0 |
| 2013-09-07T13:16 | 2 | 0 | 0.0 | 0 | 0.0 | 422 | 0.3 | 27.2 | 81.7 | 1011.0 |
| 2013-09-07T13:17 | 2 | 0 | 0.0 | 0 | 0.0 | 423 | 0.4 | 27.2 | 81.7 | 1011.0 |
| 2013-09-07T13:18 | 2 | 0 | 0.0 | 0 | 0.0 | 425 | 0.6 | 27.2 | 81.7 | 1011.0 |
| 2013-09-07T13:19 | 2 | 0 | 0.0 | 0 | 0.0 | 427 | 0.5 | 27.1 | 81.6 | 1011.0 |
| 2013-09-07T13:20 | 2 | 0 | 0.0 | 0 | 0.0 | 428 | 0.3 | 27.1 | 81.7 | 1011.0 |
| 2013-09-07T13:21 | 2 | 0 | 0.0 | 0 | 0.0 | 428 | 0.2 | 27.1 | 81.9 | 1011.0 |
| 2013-09-07T13:22 | 2 | 0 | 0.0 | 0 | 0.0 | 427 | 0.3 | 27.1 | 81.9 | 1011.0 |
| 2013-09-07T13:23 | 2 | 0 | 0.0 | 0 | 0.0 | 427 | 0.2 | 27.1 | 82.1 | 1011.0 |
| 2013-09-07T13:24 | 2 | 0 | 0.0 | 0 | 0.0 | 427 | 0.1 | 27.0 | 81.9 | 1011.0 |
| 2013-09-07T13:25 | 2 | 0 | 0.0 | 0 | 0.0 | 427 | 0.3 | 27.0 | 82.1 | 1011.0 |
| 2013-09-07T13:26 | 2 | 0 | 0.0 | 0 | 0.0 | 426 | 0.2 | 27.1 | 82.1 | 1011.0 |
| 2013-09-07T13:27 | 2 | 0 | 0.0 | 0 | 0.0 | 426 | 0.1 | 27.1 | 82.2 | 1011.0 |
| 2013-09-07T13:28 | 2 | 0 | 0.0 | 0 | 0.0 | 426 | 0.1 | 27.1 | 82.3 | 1011.0 |
| 2013-09-07T13:29 | 2 | 0 | 0.0 | 0 | 0.0 | 426 | 0.2 | 27.1 | 82.2 | 1011.0 |
| 2013-09-07T13:30 | 2 | 0 | 0.0 | 0 | 0.0 | 426 | 0.1 | 27.1 | 82.3 | 1011.0 |
| 2013-09-07T13:31 | 2 | 0 | 0.0 | 0 | 0.0 | 426 | 0.1 | 27.1 | 82.3 | 1011.0 |
| 2013-09-07T13:32 | 2 | 0 | 0.0 | 0 | 0.0 | 426 | 0.1 | 27.1 | 82.4 | 1011.0 |
| 2013-09-07T13:33 | 2 | 0 | 0.0 | 0 | 0.0 | 427 | 0.1 | 27.1 | 82.3 | 1011.0 |
| 2013-09-07T13:34 | 2 | 0 | 0.0 | 0 | 0.0 | 427 | 0.2 | 27.1 | 82.2 | 1011.0 |
| 2013-09-07T13:35 | 2 | 0 | 0.0 | 0 | 0.0 | 427 | 0.1 | 27.1 | 81.8 | 1011.0 |
| 2013-09-07T13:36 | 2 | 0 | 0.0 | 0 | 0.0 | 426 | 0.2 | 27.1 | 82.0 | 1011.0 |
| 2013-09-07T13:37 | 2 | 0 | 0.0 | 0 | 0.0 | 427 | 0.1 | 27.1 | 82.0 | 1011.0 |
| 2013-09-07T13:38 | 2 | 0 | 0.0 | 0 | 0.0 | 427 | 0.2 | 27.2 | 82.0 | 1011.0 |
| 2013-09-07T13:39 | 2 | 0 | 0.0 | 0 | 0.0 | 427 | 0.2 | 27.2 | 81.8 | 1011.0 |
| 2013-09-07T13:40 | 2 | 0 | 0.0 | 0 | 0.0 | 427 | 0.3 | 27.2 | 81.9 | 1011.0 |
| 2013-09-07T13:41 | 2 | 0 | 0.0 | 0 | 0.0 | 427 | 0.2 | 27.3 | 81.8 | 1011.0 |
| 2013-09-07T13:42 | 2 | 0 | 0.0 | 0 | 0.0 | 428 | 0.2 | 27.3 | 81.7 | 1011.0 |
| 2013-09-07T13:43 | 2 | 0 | 0.0 | 0 | 0.0 | 428 | 0.3 | 27.3 | 81.7 | 1011.0 |
| 2013-09-07T13:44 | 2 | 0 | 0.0 | 0 | 0.0 | 429 | 0.2 | 27.3 | 81.2 | 1011.0 |
| 2013-09-07T13:45 | 2 | 0 | 0.0 | 0 | 0.0 | 430 | 0.3 | 27.2 | 80.6 | 1011.0 |
| 2013-09-07T13:46 | 2 | 0 | 0.0 | 0 | 0.0 | 430 | 0.2 | 27.2 | 80.4 | 1011.0 |
| 2013-09-07T13:47 | 2 | 0 | 0.0 | 0 | 0.0 | 430 | 0.1 | 27.2 | 80.2 | 1011.0 |
| 2013-09-07T13:48 | 2 | 0 | 0.0 | 0 | 0.0 | 431 | 0.2 | 27.3 | 79.7 | 1011.0 |
| 2013-09-07T13:49 | 2 | 0 | 0.0 | 0 | 0.0 | 431 | 0.2 | 27.3 | 79.5 | 1011.0 |
| 2013-09-07T13:50 | 2 | 0 | 0.0 | 0 | 0.0 | 431 | 0.1 | 27.4 | 78.7 | 1011.0 |
| 2013-09-07T13:51 | 2 | 0 | 0.0 | 0 | 0.0 | 432 | 0.2 | 27.4 | 78.4 | 1011.0 |
| 2013-09-07T13:52 | 2 | 0 | 0.0 | 0 | 0.0 | 432 | 0.1 | 27.5 | 77.8 | 1011.0 |
| 2013-09-07T13:53 | 2 | 0 | 0.0 | 0 | 0.0 | 432 | 0.2 | 27.5 | 77.4 | 1011.0 |
| 2013-09-07T13:54 | 2 | 0 | 0.0 | 0 | 0.0 | 433 | 0.1 | 27.6 | 77.2 | 1011.0 |
| 2013-09-07T13:55 | 2 | 0 | 0.0 | 0 | 0.0 | 433 | 0.1 | 27.6 | 76.8 | 1011.0 |
| 2013-09-07T13:56 | 2 | 0 | 0.0 | 0 | 0.0 | 433 | 0.2 | 27.7 | 76.7 | 1011.0 |
| 2013-09-07T13:57 | 2 | 0 | 0.0 | 0 | 0.0 | 434 | 0.1 | 27.7 | 76.4 | 1011.0 |
| 2013-09-07T13:58 | 2 | 0 | 0.0 | 0 | 0.0 | 434 | 0.1 | 27.8 | 76.5 | 1011.0 |
| 2013-09-07T13:59 | 2 | 0 | 0.0 | 0 | 0.0 | 434 | 0.1 | 27.8 | 76.8 | 1011.0 |
| 2013-09-07T14:00 | 2 | 0 | 0.0 | 0 | 0.0 | 434 | 0.1 | 27.9 | 76.6 | 1011.0 |
| 2013-09-07T14:01 | 2 | 0 | 0.0 | 0 | 0.0 | 435 | 0.2 | 27.9 | 76.5 | 1011.0 |
| 2013-09-07T14:02 | 2 | 0 | 0.0 | 0 | 0.0 | 435 | 0.1 | 27.9 | 76.6 | 1011.0 |
| 2013-09-07T14:03 | 2 | 0 | 0.0 | 0 | 0.0 | 436 | 0.1 | 27.9 | 76.5 | 1011.0 |
| 2013-09-07T14:04 | 2 | 0 | 0.0 | 0 | 0.0 | 436 | 0.2 | 27.9 | 76.3 | 1011.0 |
| 2013-09-07T14:05 | 2 | 0 | 0.0 | 0 | 0.0 | 436 | 0.1 | 27.9 | 76.7 | 1011.0 |
| 2013-09-07T14:06 | 2 | 0 | 0.0 | 0 | 0.0 | 436 | 0.2 | 27.9 | 77.0 | 1011.0 |
| 2013-09-07T14:07 | 2 | 0 | 0.0 | 0 | 0.0 | 437 | 0.3 | 27.9 | 77.2 | 1011.0 |
| 2013-09-07T14:08 | 2 | 0 | 0.0 | 0 | 0.0 | 438 | 0.1 | 27.9 | 76.7 | 1011.0 |
| 2013-09-07T14:09 | 2 | 0 | 0.0 | 0 | 0.0 | 438 | 0.1 | 27.8 | 76.4 | 1011.0 |
| 2013-09-07T14:10 | 2 | 0 | 0.0 | 0 | 0.0 | 439 | 0.1 | 27.9 | 76.5 | 1011.0 |
| 2013-09-07T14:11 | 2 | 0 | 0.0 | 0 | 0.0 | 439 | 0.2 | 27.9 | 76.4 | 1011.0 |
| 2013-09-07T14:12 | 2 | 0 | 0.0 | 0 | 0.0 | 439 | 0.1 | 27.9 | 76.2 | 1011.0 |
| 2013-09-07T14:13 | 2 | 0 | 0.0 | 0 | 0.0 | 439 | 0.2 | 27.9 | 75.7 | 1011.0 |
| 2013-09-07T14:14 | 2 | 0 | 0.0 | 0 | 0.0 | 439 | 0.2 | 27.8 | 75.7 | 1011.0 |
| 2013-09-07T14:15 | 2 | 0 | 0.0 | 0 | 0.0 | 438 | 0.1 | 27.9 | 75.7 | 1011.0 |
| 2013-09-07T14:16 | 2 | 0 | 0.0 | 0 | 0.0 | 438 | 0.1 | 27.9 | 75.3 | 1011.0 |
| 2013-09-07T14:17 | 2 | 0 | 0.0 | 0 | 0.0 | 438 | 0.1 | 27.9 | 75.1 | 1011.0 |
| 2013-09-07T14:18 | 2 | 0 | 0.0 | 0 | 0.0 | 438 | 0.1 | 27.9 | 75.6 | 1011.0 |
| 2013-09-07T14:19 | 2 | 0 | 0.0 | 0 | 0.0 | 438 | 0.3 | 28.0 | 75.3 | 1011.0 |
| 2013-09-07T14:20 | 2 | 0 | 0.0 | 0 | 0.0 | 437 | 0.4 | 28.0 | 75.3 | 1011.0 |
| 2013-09-07T14:21 | 2 | 0 | 0.0 | 0 | 0.0 | 436 | 0.3 | 28.0 | 75.4 | 1011.0 |
| 2013-09-07T14:22 | 2 | 0 | 0.0 | 0 | 0.0 | 435 | 0.3 | 28.0 | 75.6 | 1011.0 |
| 2013-09-07T14:23 | 2 | 0 | 0.0 | 0 | 0.0 | 434 | 0.4 | 28.0 | 75.3 | 1011.0 |
| 2013-09-07T14:24 | 2 | 0 | 0.0 | 0 | 0.0 | 433 | 0.3 | 28.0 | 75.2 | 1011.0 |
| 2013-09-07T14:25 | 2 | 0 | 0.0 | 0 | 0.0 | 432 | 0.2 | 28.0 | 75.3 | 1011.0 |
| 2013-09-07T14:26 | 2 | 0 | 0.0 | 0 | 0.0 | 432 | 0.2 | 28.0 | 75.1 | 1011.0 |
| 2013-09-07T14:27 | 2 | 0 | 0.0 | 0 | 0.0 | 432 | 0.0 | 28.0 | 74.8 | 1011.0 |
| 2013-09-07T14:28 | 2 | 0 | 0.0 | 0 | 0.0 | 432 | 0.3 | 28.0 | 75.1 | 1011.0 |
| 2013-09-07T14:29 | 2 | 0 | 0.0 | 0 | 0.0 | 433 | 0.2 | 28.0 | 75.0 | 1011.0 |
| 2013-09-07T14:30 | 2 | 0 | 0.0 | 0 | 0.0 | 433 | 0.1 | 28.0 | 75.2 | 1011.0 |
| 2013-09-07T14:31 | 2 | 0 | 0.0 | 0 | 0.0 | 433 | 0.5 | 28.0 | 75.5 | 1011.0 |
| 2013-09-07T14:32 | 2 | 0 | 0.0 | 0 | 0.0 | 431 | 0.6 | 28.0 | 75.3 | 1011.0 |
| 2013-09-07T14:33 | 2 | 0 | 0.0 | 0 | 0.0 | 430 | 0.4 | 28.0 | 75.1 | 1011.0 |
| 2013-09-07T14:34 | 2 | 0 | 0.0 | 0 | 0.0 | 430 | 0.2 | 28.0 | 75.0 | 1011.0 |
| 2013-09-07T14:35 | 2 | 0 | 0.0 | 0 | 0.0 | 431 | 0.3 | 28.0 | 74.9 | 1011.0 |
| 2013-09-07T14:36 | 2 | 0 | 0.0 | 0 | 0.0 | 432 | 0.3 | 28.0 | 74.9 | 1011.0 |
| 2013-09-07T14:37 | 2 | 0 | 0.0 | 0 | 0.0 | 433 | 0.2 | 27.9 | 74.5 | 1011.0 |
| 2013-09-07T14:38 | 2 | 0 | 0.0 | 0 | 0.0 | 433 | 0.1 | 27.9 | 74.8 | 1011.0 |
| 2013-09-07T14:39 | 2 | 0 | 0.0 | 0 | 0.0 | 433 | 0.2 | 28.0 | 74.9 | 1011.0 |
| 2013-09-07T14:40 | 2 | 0 | 0.0 | 0 | 0.0 | 432 | 0.4 | 28.0 | 74.7 | 1011.0 |
| 2013-09-07T14:41 | 2 | 0 | 0.0 | 0 | 0.0 | 431 | 0.5 | 28.0 | 74.9 | 1011.0 |
| 2013-09-07T14:42 | 2 | 0 | 0.0 | 0 | 0.0 | 430 | 0.2 | 28.0 | 75.0 | 1011.0 |
| 2013-09-07T14:43 | 2 | 0 | 0.0 | 0 | 0.0 | 429 | 0.2 | 28.0 | 75.0 | 1011.0 |
| 2013-09-07T14:44 | 2 | 0 | 0.0 | 0 | 0.0 | 429 | 0.1 | 28.0 | 75.2 | 1011.0 |
| 2013-09-07T14:45 | 2 | 0 | 0.0 | 0 | 0.0 | 430 | 0.2 | 28.0 | 75.2 | 1011.0 |
| 2013-09-07T14:46 | 2 | 0 | 0.0 | 0 | 0.0 | 431 | 0.3 | 27.9 | 74.6 | 1011.0 |
| 2013-09-07T14:47 | 2 | 0 | 0.0 | 0 | 0.0 | 432 | 0.3 | 27.9 | 74.4 | 1011.0 |
| 2013-09-07T14:48 | 2 | 0 | 0.0 | 0 | 0.0 | 433 | 0.2 | 28.0 | 74.8 | 1011.0 |
| 2013-09-07T14:49 | 2 | 0 | 0.0 | 0 | 0.0 | 432 | 0.1 | 28.0 | 74.6 | 1011.0 |
| 2013-09-07T14:50 | 2 | 0 | 0.0 | 0 | 0.0 | 432 | 0.1 | 28.0 | 74.2 | 1011.0 |
| 2013-09-07T14:51 | 2 | 0 | 0.0 | 0 | 0.0 | 432 | 0.4 | 28.0 | 74.8 | 1011.0 |
| 2013-09-07T14:52 | 2 | 0 | 0.0 | 0 | 0.0 | 434 | 0.4 | 28.0 | 74.8 | 1011.0 |
| 2013-09-07T14:53 | 2 | 0 | 0.0 | 0 | 0.0 | 435 | 0.4 | 28.0 | 75.0 | 1011.0 |
| 2013-09-07T14:54 | 2 | 0 | 0.0 | 0 | 0.0 | 435 | 0.1 | 28.0 | 74.8 | 1011.0 |
| 2013-09-07T14:55 | 2 | 0 | 0.0 | 0 | 0.0 | 436 | 0.2 | 28.0 | 74.4 | 1011.0 |
| 2013-09-07T14:56 | 2 | 0 | 0.0 | 0 | 0.0 | 435 | 0.1 | 27.9 | 73.7 | 1011.0 |
| 2013-09-07T14:57 | 2 | 0 | 0.0 | 0 | 0.0 | 434 | 0.3 | 27.9 | 73.7 | 1011.0 |
| 2013-09-07T14:58 | 2 | 0 | 0.0 | 0 | 0.0 | 434 | 0.2 | 28.0 | 73.8 | 1011.0 |
| 2013-09-07T14:59 | 2 | 0 | 0.0 | 0 | 0.0 | 433 | 0.1 | 28.0 | 73.8 | 1011.0 |
| 2013-09-07T15:00 | 2 | 0 | 0.0 | 0 | 0.0 | 434 | 0.1 | 28.0 | 73.2 | 1011.0 |
| 2013-09-07T15:01 | 2 | 0 | 0.0 | 0 | 0.0 | 434 | 0.1 | 28.0 | 73.4 | 1011.0 |
| 2013-09-07T15:02 | 2 | 0 | 0.0 | 0 | 0.0 | 433 | 0.1 | 28.1 | 73.5 | 1011.0 |
| 2013-09-07T15:03 | 2 | 0 | 0.0 | 0 | 0.0 | 433 | 0.1 | 28.1 | 73.3 | 1011.0 |
| 2013-09-07T15:04 | 2 | 0 | 0.0 | 0 | 0.0 | 433 | 0.2 | 28.1 | 73.3 | 1011.0 |
| 2013-09-07T15:05 | 2 | 0 | 0.0 | 0 | 0.0 | 433 | 0.1 | 28.1 | 73.1 | 1011.0 |
| 2013-09-07T15:06 | 2 | 0 | 0.0 | 0 | 0.0 | 433 | 0.1 | 28.1 | 73.2 | 1011.0 |
| 2013-09-07T15:07 | 2 | 0 | 0.0 | 0 | 0.0 | 433 | 0.1 | 28.1 | 73.3 | 1011.0 |
| 2013-09-07T15:08 | 2 | 0 | 0.0 | 0 | 0.0 | 433 | 0.2 | 28.2 | 73.6 | 1011.0 |
| 2013-09-07T15:09 | 2 | 0 | 0.0 | 0 | 0.0 | 433 | 0.2 | 28.2 | 73.5 | 1011.0 |
| 2013-09-07T15:10 | 2 | 0 | 0.0 | 0 | 0.0 | 434 | 0.1 | 28.1 | 73.2 | 1011.0 |
| 2013-09-07T15:11 | 2 | 0 | 0.0 | 0 | 0.0 | 434 | 0.1 | 28.1 | 73.4 | 1011.0 |
| 2013-09-07T15:12 | 2 | 0 | 0.0 | 0 | 0.0 | 434 | 0.2 | 28.1 | 73.5 | 1011.0 |
| 2013-09-07T15:13 | 2 | 0 | 0.0 | 0 | 0.0 | 433 | 0.2 | 28.1 | 73.5 | 1011.0 |
| 2013-09-07T15:14 | 2 | 0 | 0.0 | 0 | 0.0 | 433 | 0.1 | 28.1 | 73.2 | 1011.0 |
| 2013-09-07T15:15 | 2 | 0 | 0.0 | 0 | 0.0 | 433 | 0.1 | 28.1 | 73.5 | 1011.0 |
| 2013-09-07T15:16 | 2 | 0 | 0.0 | 0 | 0.0 | 433 | 0.2 | 28.1 | 73.7 | 1011.0 |
| 2013-09-07T15:17 | 2 | 0 | 0.0 | 0 | 0.0 | 433 | 0.1 | 28.1 | 73.1 | 1011.0 |
| 2013-09-07T15:18 | 2 | 0 | 0.0 | 0 | 0.0 | 433 | 0.1 | 28.1 | 73.0 | 1011.0 |
| 2013-09-07T15:19 | 2 | 0 | 0.0 | 0 | 0.0 | 434 | 0.1 | 28.1 | 72.9 | 1011.0 |
| 2013-09-07T15:20 | 2 | 0 | 0.0 | 0 | 0.0 | 434 | 0.2 | 28.1 | 73.0 | 1011.0 |
| 2013-09-07T15:21 | 2 | 0 | 0.0 | 0 | 0.0 | 434 | 0.1 | 28.2 | 72.8 | 1011.0 |
| 2013-09-07T15:22 | 2 | 0 | 0.0 | 0 | 0.0 | 434 | 0.1 | 28.1 | 72.5 | 1011.0 |
| 2013-09-07T15:23 | 2 | 0 | 0.0 | 0 | 0.0 | 434 | 0.2 | 28.2 | 73.2 | 1011.0 |
| 2013-09-07T15:24 | 2 | 0 | 0.0 | 0 | 0.0 | 434 | 0.1 | 28.2 | 73.3 | 1011.0 |
| 2013-09-07T15:25 | 2 | 0 | 0.0 | 0 | 0.0 | 434 | 0.1 | 28.2 | 73.1 | 1011.0 |
| 2013-09-07T15:26 | 2 | 0 | 0.0 | 0 | 0.0 | 434 | 0.1 | 28.2 | 73.1 | 1011.0 |
| 2013-09-07T15:27 | 2 | 0 | 0.0 | 0 | 0.0 | 434 | 0.0 | 28.1 | 73.0 | 1011.0 |
| 2013-09-07T15:28 | 2 | 0 | 0.0 | 0 | 0.0 | 434 | 0.1 | 28.1 | 72.8 | 1011.0 |
| 2013-09-07T15:29 | 2 | 0 | 0.0 | 0 | 0.0 | 434 | 0.1 | 28.2 | 73.5 | 1011.0 |
| 2013-09-07T15:30 | 2 | 0 | 0.0 | 0 | 0.0 | 434 | 0.1 | 28.2 | 72.9 | 1011.0 |
| 2013-09-07T15:31 | 2 | 0 | 0.0 | 0 | 0.0 | 434 | 0.0 | 28.1 | 72.3 | 1011.0 |
| 2013-09-07T15:32 | 2 | 0 | 0.0 | 0 | 0.0 | 434 | 0.2 | 28.1 | 72.2 | 1011.0 |
| 2013-09-07T15:33 | 2 | 0 | 0.0 | 0 | 0.0 | 435 | 0.3 | 28.1 | 72.5 | 1011.0 |
| 2013-09-07T15:34 | 2 | 0 | 0.0 | 0 | 0.0 | 436 | 0.4 | 28.2 | 71.9 | 1011.0 |
| 2013-09-07T15:35 | 2 | 0 | 0.0 | 0 | 0.0 | 437 | 0.4 | 28.2 | 72.3 | 1011.0 |
| 2013-09-07T15:36 | 2 | 0 | 0.0 | 0 | 0.0 | 438 | 0.2 | 28.2 | 72.5 | 1011.0 |
| 2013-09-07T15:37 | 2 | 0 | 0.0 | 0 | 0.0 | 439 | 0.1 | 28.3 | 72.6 | 1011.0 |
| 2013-09-07T15:38 | 2 | 0 | 0.0 | 0 | 0.0 | 440 | 0.4 | 28.2 | 72.4 | 1011.0 |
| 2013-09-07T15:39 | 2 | 0 | 0.0 | 0 | 0.0 | 440 | 0.2 | 28.2 | 72.9 | 1011.0 |
| 2013-09-07T15:40 | 2 | 0 | 0.0 | 0 | 0.0 | 440 | 0.2 | 28.3 | 73.4 | 1011.0 |
| 2013-09-07T15:41 | 2 | 0 | 0.0 | 0 | 0.0 | 440 | 0.2 | 28.3 | 73.6 | 1010.0 |
| 2013-09-07T15:42 | 2 | 0 | 0.0 | 0 | 0.0 | 440 | 0.2 | 28.3 | 73.9 | 1010.0 |
| 2013-09-07T15:43 | 2 | 0 | 0.0 | 0 | 0.0 | 439 | 0.5 | 28.3 | 74.3 | 1010.0 |
| 2013-09-07T15:44 | 2 | 0 | 0.0 | 0 | 0.0 | 437 | 0.6 | 28.3 | 73.9 | 1010.0 |
| 2013-09-07T15:45 | 2 | 0 | 0.0 | 0 | 0.0 | 435 | 0.4 | 28.2 | 74.1 | 1010.0 |
| 2013-09-07T15:46 | 2 | 0 | 0.0 | 0 | 0.0 | 434 | 0.2 | 28.2 | 73.9 | 1010.0 |
| 2013-09-07T15:47 | 2 | 0 | 0.0 | 0 | 0.0 | 434 | 0.1 | 28.1 | 73.9 | 1010.0 |
| 2013-09-07T15:48 | 2 | 0 | 0.0 | 0 | 0.0 | 434 | 0.2 | 28.2 | 74.7 | 1010.0 |
| 2013-09-07T15:49 | 2 | 0 | 0.0 | 0 | 0.0 | 434 | 0.1 | 28.2 | 74.3 | 1010.0 |
| 2013-09-07T15:50 | 2 | 0 | 0.0 | 0 | 0.0 | 434 | 0.1 | 28.1 | 73.8 | 1010.0 |
| 2013-09-07T15:51 | 2 | 0 | 0.0 | 0 | 0.0 | 434 | 0.1 | 28.1 | 74.0 | 1010.0 |
| 2013-09-07T15:52 | 2 | 0 | 0.0 | 0 | 0.0 | 434 | 0.1 | 28.1 | 74.1 | 1010.0 |
| 2013-09-07T15:53 | 2 | 0 | 0.0 | 0 | 0.0 | 434 | 0.1 | 28.2 | 74.5 | 1010.0 |
| 2013-09-07T15:54 | 2 | 0 | 0.0 | 0 | 0.0 | 434 | 0.1 | 28.2 | 74.7 | 1010.0 |
| 2013-09-07T15:55 | 2 | 0 | 0.0 | 0 | 0.0 | 434 | 0.1 | 28.2 | 74.4 | 1010.0 |
| 2013-09-07T15:56 | 2 | 0 | 0.0 | 0 | 0.0 | 434 | 0.0 | 28.2 | 73.8 | 1010.0 |
| 2013-09-07T15:57 | 2 | 0 | 0.0 | 0 | 0.0 | 435 | 0.1 | 28.1 | 73.5 | 1010.0 |
| 2013-09-07T15:58 | 2 | 0 | 0.0 | 0 | 0.0 | 435 | 0.1 | 28.2 | 74.1 | 1010.0 |
| 2013-09-07T15:59 | 2 | 0 | 0.0 | 0 | 0.0 | 435 | 0.1 | 28.1 | 73.4 | 1010.0 |
| 2013-09-07T16:00 | 2 | 0 | 0.0 | 0 | 0.0 | 435 | 0.1 | 28.1 | 73.8 | 1010.0 |
| 2013-09-07T16:01 | 2 | 0 | 0.0 | 0 | 0.0 | 436 | 0.2 | 28.1 | 74.0 | 1010.0 |
| 2013-09-07T16:02 | 2 | 0 | 0.0 | 0 | 0.0 | 436 | 0.0 | 28.1 | 73.3 | 1010.0 |
| 2013-09-07T16:03 | 2 | 0 | 0.0 | 0 | 0.0 | 436 | 0.0 | 28.1 | 73.5 | 1010.0 |
| 2013-09-07T16:04 | 2 | 0 | 0.0 | 0 | 0.0 | 436 | 0.1 | 28.1 | 73.9 | 1010.0 |
| 2013-09-07T16:05 | 2 | 0 | 0.0 | 0 | 0.0 | 436 | 0.2 | 28.2 | 74.1 | 1010.0 |
| 2013-09-07T16:06 | 2 | 0 | 0.0 | 0 | 0.0 | 436 | 0.1 | 28.2 | 73.5 | 1010.0 |
| 2013-09-07T16:07 | 2 | 0 | 0.0 | 0 | 0.0 | 436 | 0.2 | 28.1 | 73.5 | 1010.0 |
| 2013-09-07T16:08 | 2 | 0 | 0.0 | 0 | 0.0 | 436 | 0.2 | 28.1 | 73.6 | 1010.0 |
| 2013-09-07T16:09 | 2 | 0 | 0.0 | 0 | 0.0 | 437 | 0.2 | 28.1 | 73.3 | 1010.0 |
| 2013-09-07T16:10 | 2 | 0 | 0.0 | 0 | 0.0 | 438 | 0.4 | 28.0 | 72.9 | 1010.0 |
| 2013-09-07T16:11 | 2 | 0 | 0.0 | 0 | 0.0 | 439 | 0.2 | 28.1 | 73.1 | 1010.0 |
| 2013-09-07T16:12 | 2 | 0 | 0.0 | 0 | 0.0 | 439 | 0.2 | 28.1 | 73.3 | 1010.0 |
| 2013-09-07T16:13 | 2 | 0 | 0.0 | 0 | 0.0 | 439 | 0.1 | 28.2 | 73.5 | 1010.0 |
| 2013-09-07T16:14 | 2 | 0 | 0.0 | 0 | 0.0 | 438 | 0.1 | 28.2 | 73.6 | 1010.0 |
| 2013-09-07T16:15 | 2 | 0 | 0.0 | 0 | 0.0 | 438 | 0.1 | 28.2 | 73.7 | 1010.0 |
| 2013-09-07T16:16 | 2 | 0 | 0.0 | 0 | 0.0 | 438 | 0.1 | 28.2 | 73.7 | 1010.0 |
| 2013-09-07T16:17 | 2 | 0 | 0.0 | 0 | 0.0 | 438 | 0.1 | 28.1 | 73.3 | 1010.0 |
| 2013-09-07T16:18 | 2 | 0 | 0.0 | 0 | 0.0 | 438 | 0.1 | 28.1 | 73.5 | 1010.0 |
| 2013-09-07T16:19 | 2 | 0 | 0.0 | 0 | 0.0 | 438 | 0.2 | 28.2 | 73.9 | 1010.0 |
| 2013-09-07T16:20 | 2 | 0 | 0.0 | 0 | 0.0 | 438 | 0.2 | 28.2 | 73.6 | 1010.0 |
| 2013-09-07T16:21 | 2 | 0 | 0.0 | 0 | 0.0 | 438 | 0.1 | 28.1 | 73.5 | 1010.0 |
| 2013-09-07T16:22 | 2 | 0 | 0.0 | 0 | 0.0 | 438 | 0.1 | 28.2 | 74.0 | 1010.0 |
| 2013-09-07T16:23 | 2 | 0 | 0.0 | 0 | 0.0 | 438 | 0.2 | 28.2 | 74.3 | 1010.0 |
| 2013-09-07T16:24 | 2 | 0 | 0.0 | 0 | 0.0 | 438 | 0.1 | 28.2 | 73.4 | 1010.0 |
| 2013-09-07T16:25 | 2 | 0 | 0.0 | 0 | 0.0 | 437 | 0.1 | 28.2 | 73.9 | 1010.0 |
| 2013-09-07T16:26 | 2 | 0 | 0.0 | 0 | 0.0 | 437 | 0.2 | 28.2 | 73.7 | 1010.0 |
| 2013-09-07T16:27 | 2 | 0 | 0.0 | 0 | 0.0 | 437 | 0.2 | 28.1 | 73.7 | 1010.0 |
| 2013-09-07T16:28 | 2 | 0 | 0.0 | 0 | 0.0 | 437 | 0.2 | 28.1 | 73.5 | 1010.0 |
| 2013-09-07T16:29 | 2 | 0 | 0.0 | 0 | 0.0 | 437 | 0.2 | 28.1 | 73.2 | 1010.0 |
| 2013-09-07T16:30 | 2 | 0 | 0.0 | 0 | 0.0 | 438 | 0.2 | 28.1 | 73.4 | 1010.0 |
| 2013-09-07T16:31 | 2 | 0 | 0.0 | 0 | 0.0 | 438 | 0.2 | 28.1 | 73.4 | 1010.0 |
| 2013-09-07T16:32 | 2 | 0 | 0.0 | 0 | 0.0 | 439 | 0.0 | 28.2 | 73.9 | 1010.0 |
| 2013-09-07T16:33 | 2 | 0 | 0.0 | 0 | 0.0 | 439 | 0.1 | 28.2 | 74.1 | 1010.0 |
| 2013-09-07T16:34 | 2 | 0 | 0.0 | 0 | 0.0 | 438 | 0.2 | 28.2 | 73.9 | 1010.0 |
| 2013-09-07T16:35 | 2 | 0 | 0.0 | 0 | 0.0 | 438 | 0.1 | 28.2 | 73.9 | 1010.0 |
| 2013-09-07T16:36 | 2 | 0 | 0.0 | 0 | 0.0 | 438 | 0.1 | 28.2 | 73.9 | 1010.0 |
| 2013-09-07T16:37 | 2 | 0 | 0.0 | 0 | 0.0 | 438 | 0.2 | 28.2 | 73.9 | 1010.0 |
| 2013-09-07T16:38 | 2 | 0 | 0.0 | 0 | 0.0 | 438 | 0.1 | 28.1 | 73.7 | 1010.0 |
| 2013-09-07T16:39 | 2 | 0 | 0.0 | 0 | 0.0 | 438 | 0.2 | 28.1 | 73.9 | 1010.0 |
| 2013-09-07T16:40 | 2 | 0 | 0.0 | 0 | 0.0 | 439 | 0.3 | 28.1 | 74.3 | 1010.0 |
| 2013-09-07T16:41 | 2 | 0 | 0.0 | 0 | 0.0 | 439 | 0.2 | 28.2 | 74.3 | 1010.0 |
| 2013-09-07T16:42 | 2 | 0 | 0.0 | 0 | 0.0 | 439 | 0.1 | 28.2 | 74.4 | 1010.0 |
| 2013-09-07T16:43 | 2 | 0 | 0.0 | 0 | 0.0 | 440 | 0.2 | 28.2 | 74.3 | 1010.0 |
| 2013-09-07T16:44 | 2 | 0 | 0.0 | 0 | 0.0 | 440 | 0.1 | 28.2 | 74.5 | 1010.0 |
| 2013-09-07T16:45 | 2 | 0 | 0.0 | 0 | 0.0 | 440 | 0.1 | 28.2 | 74.2 | 1010.0 |
| 2013-09-07T16:46 | 2 | 0 | 0.0 | 0 | 0.0 | 440 | 0.1 | 28.1 | 73.6 | 1010.0 |
| 2013-09-07T16:47 | 2 | 0 | 0.0 | 0 | 0.0 | 440 | 0.2 | 28.1 | 73.8 | 1010.0 |
| 2013-09-07T16:48 | 2 | 0 | 0.0 | 0 | 0.0 | 439 | 0.3 | 28.2 | 74.0 | 1010.0 |
| 2013-09-07T16:49 | 2 | 0 | 0.0 | 0 | 0.0 | 438 | 0.3 | 28.2 | 74.2 | 1010.0 |
| 2013-09-07T16:50 | 2 | 0 | 0.0 | 0 | 0.0 | 437 | 2.9 | 28.2 | 74.3 | 1010.0 |
| 2013-09-07T16:51 | 2 | 0 | 0.0 | 0 | 0.0 | 438 | 0.5 | 28.2 | 74.2 | 1010.0 |
| 2013-09-07T16:52 | 2 | 0 | 0.0 | 0 | 0.0 | 437 | 0.6 | 28.2 | 74.1 | 1010.0 |
| 2013-09-07T16:53 | 2 | 0 | 0.0 | 0 | 0.0 | 437 | 1.4 | 28.1 | 74.3 | 1010.0 |
| 2013-09-07T16:54 | 2 | 0 | 0.0 | 0 | 0.0 | 436 | 1.0 | 28.1 | 74.2 | 1010.0 |
| 2013-09-07T16:55 | 2 | 0 | 0.0 | 0 | 0.0 | 436 | 0.5 | 28.1 | 74.7 | 1010.0 |
| 2013-09-07T16:56 | 2 | 0 | 0.0 | 0 | 0.0 | 437 | 0.5 | 28.1 | 74.9 | 1010.0 |
| 2013-09-07T16:57 | 2 | 0 | 0.0 | 0 | 0.0 | 437 | 1.0 | 28.1 | 75.0 | 1010.0 |
| 2013-09-07T16:58 | 2 | 0 | 0.0 | 0 | 0.0 | 437 | 0.3 | 28.1 | 74.8 | 1010.0 |
| 2013-09-07T16:59 | 2 | 0 | 0.0 | 0 | 0.0 | 437 | 0.6 | 28.1 | 74.9 | 1010.0 |
| 2013-09-07T17:00 | 2 | 0 | 0.0 | 0 | 0.0 | 438 | 0.3 | 28.1 | 75.1 | 1010.0 |
| 2013-09-07T17:01 | 2 | 0 | 0.0 | 0 | 0.0 | 437 | 0.3 | 28.1 | 75.2 | 1010.0 |
| 2013-09-07T17:02 | 2 | 0 | 0.0 | 0 | 0.0 | 437 | 0.5 | 28.1 | 74.8 | 1010.0 |
| 2013-09-07T17:03 | 2 | 0 | 0.0 | 0 | 0.0 | 437 | 0.4 | 28.1 | 75.0 | 1010.0 |
| 2013-09-07T17:04 | 2 | 0 | 0.0 | 0 | 0.0 | 437 | 0.3 | 28.1 | 75.0 | 1010.0 |
| 2013-09-07T17:05 | 2 | 0 | 0.0 | 0 | 0.0 | 437 | 0.7 | 28.0 | 74.7 | 1010.0 |
| 2013-09-07T17:06 | 2 | 0 | 0.0 | 0 | 0.0 | 437 | 0.4 | 28.0 | 75.1 | 1010.0 |
| 2013-09-07T17:07 | 2 | 0 | 0.0 | 0 | 0.0 | 438 | 0.5 | 28.0 | 75.2 | 1010.0 |
| 2013-09-07T17:08 | 2 | 0 | 0.0 | 0 | 0.0 | 437 | 0.3 | 28.0 | 75.2 | 1010.0 |
| 2013-09-07T17:09 | 2 | 0 | 0.0 | 0 | 0.0 | 437 | 0.1 | 28.0 | 75.6 | 1010.0 |
| 2013-09-07T17:10 | 2 | 0 | 0.0 | 0 | 0.0 | 437 | 0.3 | 28.0 | 75.8 | 1010.0 |
| 2013-09-07T17:11 | 2 | 0 | 0.0 | 0 | 0.0 | 436 | 0.6 | 28.0 | 76.0 | 1010.0 |
| 2013-09-07T17:12 | 2 | 0 | 0.0 | 0 | 0.0 | 436 | 1.3 | 28.0 | 75.8 | 1010.0 |
| 2013-09-07T17:13 | 2 | 0 | 0.0 | 0 | 0.0 | 436 | 1.1 | 28.0 | 75.8 | 1010.0 |
| 2013-09-07T17:14 | 2 | 0 | 0.0 | 0 | 0.0 | 436 | 0.4 | 28.0 | 76.0 | 1010.0 |
| 2013-09-07T17:15 | 2 | 0 | 0.0 | 0 | 0.0 | 437 | 0.5 | 28.0 | 76.0 | 1010.0 |
| 2013-09-07T17:16 | 2 | 0 | 0.0 | 0 | 0.0 | 436 | 0.5 | 28.0 | 75.6 | 1010.0 |
| 2013-09-07T17:17 | 2 | 0 | 0.0 | 0 | 0.0 | 437 | 1.2 | 27.9 | 75.8 | 1010.0 |
| 2013-09-07T17:18 | 2 | 0 | 0.0 | 0 | 0.0 | 437 | 1.1 | 27.9 | 76.1 | 1010.0 |
| 2013-09-07T17:19 | 2 | 0 | 0.0 | 0 | 0.0 | 437 | 0.3 | 27.9 | 75.9 | 1010.0 |
| 2013-09-07T17:20 | 2 | 0 | 0.0 | 0 | 0.0 | 437 | 0.3 | 27.9 | 75.9 | 1010.0 |
| 2013-09-07T17:21 | 2 | 0 | 0.0 | 0 | 0.0 | 437 | 0.4 | 27.9 | 76.4 | 1010.0 |
| 2013-09-07T17:22 | 2 | 0 | 0.0 | 0 | 0.0 | 437 | 0.3 | 28.0 | 76.0 | 1010.0 |
| 2013-09-07T17:23 | 2 | 0 | 0.0 | 0 | 0.0 | 437 | 0.4 | 27.9 | 75.9 | 1010.0 |
| 2013-09-07T17:24 | 2 | 0 | 0.0 | 0 | 0.0 | 437 | 0.2 | 27.9 | 76.1 | 1010.0 |
| 2013-09-07T17:25 | 2 | 0 | 0.0 | 0 | 0.0 | 437 | 0.3 | 28.0 | 76.2 | 1010.0 |
| 2013-09-07T17:26 | 2 | 0 | 0.0 | 0 | 0.0 | 438 | 0.4 | 28.0 | 76.3 | 1010.0 |
| 2013-09-07T17:27 | 2 | 0 | 0.0 | 0 | 0.0 | 439 | 0.3 | 28.0 | 76.2 | 1010.0 |
| 2013-09-07T17:28 | 2 | 0 | 0.0 | 0 | 0.0 | 439 | 0.3 | 27.9 | 76.4 | 1010.0 |
| 2013-09-07T17:29 | 2 | 0 | 0.0 | 0 | 0.0 | 439 | 0.2 | 27.9 | 76.4 | 1010.0 |
| 2013-09-07T17:30 | 2 | 0 | 0.0 | 0 | 0.0 | 439 | 0.4 | 27.9 | 76.4 | 1010.0 |
| 2013-09-07T17:31 | 2 | 0 | 0.0 | 0 | 0.0 | 440 | 0.6 | 27.9 | 76.3 | 1010.0 |
| 2013-09-07T17:32 | 2 | 0 | 0.0 | 0 | 0.0 | 441 | 1.0 | 27.9 | 76.3 | 1011.0 |
| 2013-09-07T17:33 | 2 | 0 | 0.0 | 0 | 0.0 | 441 | 0.3 | 27.9 | 76.6 | 1011.0 |
| 2013-09-07T17:34 | 2 | 0 | 0.0 | 0 | 0.0 | 441 | 0.3 | 27.9 | 76.8 | 1011.0 |
| 2013-09-07T17:35 | 2 | 0 | 0.0 | 0 | 0.0 | 442 | 0.5 | 27.9 | 76.9 | 1011.0 |
| 2013-09-07T17:36 | 2 | 0 | 0.0 | 0 | 0.0 | 443 | 0.6 | 27.9 | 77.1 | 1011.0 |
| 2013-09-07T17:37 | 2 | 0 | 0.0 | 0 | 0.0 | 443 | 1.0 | 27.9 | 77.6 | 1010.0 |
| 2013-09-07T17:38 | 2 | 0 | 0.0 | 0 | 0.0 | 443 | 0.9 | 27.9 | 77.6 | 1010.0 |
| 2013-09-07T17:39 | 2 | 0 | 0.0 | 0 | 0.0 | 445 | 1.8 | 27.9 | 78.0 | 1010.0 |
| 2013-09-07T17:40 | 2 | 0 | 0.0 | 0 | 0.0 | 446 | 1.0 | 27.9 | 78.4 | 1010.0 |
| 2013-09-07T17:41 | 2 | 0 | 0.0 | 0 | 0.0 | 446 | 0.4 | 27.8 | 77.9 | 1010.0 |
| 2013-09-07T17:42 | 2 | 0 | 0.0 | 0 | 0.0 | 444 | 0.5 | 27.7 | 78.1 | 1010.0 |
| 2013-09-07T17:43 | 2 | 0 | 0.0 | 0 | 0.0 | 441 | 0.9 | 27.7 | 78.6 | 1010.0 |
| 2013-09-07T17:44 | 2 | 0 | 0.0 | 0 | 0.0 | 438 | 0.2 | 27.8 | 79.1 | 1010.0 |
| 2013-09-07T17:45 | 2 | 0 | 0.0 | 0 | 0.0 | 438 | 0.3 | 27.8 | 79.0 | 1010.0 |
| 2013-09-07T17:46 | 2 | 0 | 0.0 | 0 | 0.0 | 437 | 0.2 | 27.8 | 78.9 | 1010.0 |
| 2013-09-07T17:47 | 2 | 0 | 0.0 | 0 | 0.0 | 437 | 0.6 | 27.7 | 79.0 | 1010.0 |
| 2013-09-07T17:48 | 2 | 0 | 0.0 | 0 | 0.0 | 437 | 0.3 | 27.7 | 79.0 | 1010.0 |
| 2013-09-07T17:49 | 2 | 0 | 0.0 | 0 | 0.0 | 436 | 0.1 | 27.7 | 79.1 | 1010.0 |
| 2013-09-07T17:50 | 2 | 0 | 0.0 | 0 | 0.0 | 435 | 0.1 | 27.7 | 79.0 | 1010.0 |
| 2013-09-07T17:51 | 2 | 0 | 0.0 | 0 | 0.0 | 435 | 0.3 | 27.6 | 78.4 | 1010.0 |
| 2013-09-07T17:52 | 2 | 0 | 0.0 | 0 | 0.0 | 435 | 0.3 | 27.5 | 78.5 | 1010.0 |
| 2013-09-07T17:53 | 2 | 0 | 0.0 | 0 | 0.0 | 435 | 0.2 | 27.5 | 78.8 | 1010.0 |
| 2013-09-07T17:54 | 2 | 0 | 0.0 | 0 | 0.0 | 435 | 0.2 | 27.6 | 78.6 | 1011.0 |
| 2013-09-07T17:55 | 2 | 0 | 0.0 | 0 | 0.0 | 435 | 0.2 | 27.6 | 78.6 | 1011.0 |
| 2013-09-07T17:56 | 2 | 0 | 0.0 | 0 | 0.0 | 435 | 0.2 | 27.6 | 78.7 | 1011.0 |
| 2013-09-07T17:57 | 2 | 0 | 0.0 | 0 | 0.0 | 435 | 0.2 | 27.6 | 79.0 | 1011.0 |
| 2013-09-07T17:58 | 2 | 0 | 0.0 | 0 | 0.0 | 435 | 0.2 | 27.5 | 78.9 | 1011.0 |
| 2013-09-07T17:59 | 2 | 0 | 0.0 | 0 | 0.0 | 435 | 0.4 | 27.5 | 79.0 | 1011.0 |
| 2013-09-07T18:00 | 2 | 0 | 0.0 | 443 | 20.7 | 27.7 | 79.0 | 1011.0 | ||
| 2013-09-07T18:01 | 2 | 0 | 0.0 | 441 | 3.8 | 27.6 | 79.1 | 1011.0 | ||
| 2013-09-07T18:02 | 2 | 0 | 0.0 | 440 | 1.9 | 27.7 | 78.9 | 1011.0 | ||
| 2013-09-07T18:03 | 2 | 0 | 0.0 | 440 | 1.8 | 27.7 | 79.0 | 1011.0 | ||
| 2013-09-07T18:04 | 2 | 0 | 0.0 | 441 | 2.6 | 27.7 | 78.8 | 1011.0 | ||
| 2013-09-07T18:05 | 2 | 0 | 0.0 | 0 | 0.0 | 443 | 1.9 | 27.7 | 78.7 | 1011.0 |
| 2013-09-07T18:06 | 2 | 0 | 0.0 | 0 | 0.0 | 445 | 1.1 | 27.6 | 78.8 | 1011.0 |
| 2013-09-07T18:07 | 2 | 0 | 0.0 | 0 | 0.0 | 447 | 1.2 | 27.7 | 78.9 | 1011.0 |
| 2013-09-07T18:08 | 2 | 0 | 0.0 | 0 | 0.0 | 449 | 1.0 | 27.7 | 79.1 | 1011.0 |
| 2013-09-07T18:09 | 2 | 0 | 0.0 | 0 | 0.0 | 449 | 0.5 | 27.8 | 78.9 | 1011.0 |
| 2013-09-07T18:10 | 2 | 0 | 0.0 | 0 | 0.0 | 447 | 0.5 | 27.7 | 77.5 | 1011.0 |
| 2013-09-07T18:11 | 2 | 0 | 0.0 | 0 | 0.0 | 446 | 0.2 | 27.5 | 77.3 | 1011.0 |
| 2013-09-07T18:12 | 2 | 0 | 0.0 | 0 | 0.0 | 446 | 0.3 | 27.3 | 77.3 | 1011.0 |
| 2013-09-07T18:13 | 2 | 0 | 0.0 | 0 | 0.0 | 445 | 0.3 | 27.0 | 77.4 | 1011.0 |
| 2013-09-07T18:14 | 2 | 0 | 0.0 | 0 | 0.0 | 445 | 0.3 | 26.9 | 77.8 | 1011.0 |
| 2013-09-07T18:15 | 2 | 0 | 0.0 | 0 | 0.0 | 445 | 0.4 | 26.7 | 78.3 | 1011.0 |
| 2013-09-07T18:16 | 2 | 0 | 0.0 | 0 | 0.0 | 445 | 0.5 | 26.6 | 79.2 | 1011.0 |
| 2013-09-07T18:17 | 2 | 0 | 0.0 | 0 | 0.0 | 446 | 0.4 | 26.6 | 80.0 | 1011.0 |
| 2013-09-07T18:18 | 2 | 0 | 0.0 | 0 | 0.0 | 446 | 0.2 | 26.6 | 80.2 | 1011.0 |
| 2013-09-07T18:19 | 2 | 0 | 0.0 | 0 | 0.0 | 444 | 0.9 | 26.6 | 80.2 | 1011.0 |
| 2013-09-07T18:20 | 2 | 0 | 0.0 | 0 | 0.0 | 440 | 0.6 | 26.5 | 80.3 | 1011.0 |
| 2013-09-07T18:21 | 2 | 0 | 0.0 | 0 | 0.0 | 439 | 0.3 | 26.5 | 80.9 | 1011.0 |
| 2013-09-07T18:22 | 2 | 0 | 0.0 | 0 | 0.0 | 438 | 0.5 | 26.5 | 80.8 | 1011.0 |
| 2013-09-07T18:23 | 2 | 0 | 0.0 | 0 | 0.0 | 438 | 0.4 | 26.5 | 81.1 | 1011.0 |
| 2013-09-07T18:24 | 2 | 0 | 0.0 | 0 | 0.0 | 437 | 0.3 | 26.4 | 81.6 | 1011.0 |
| 2013-09-07T18:25 | 2 | 0 | 0.0 | 0 | 0.0 | 438 | 0.2 | 26.4 | 81.8 | 1011.0 |
| 2013-09-07T18:26 | 2 | 0 | 0.0 | 0 | 0.0 | 437 | 0.1 | 26.3 | 81.9 | 1011.0 |
| 2013-09-07T18:27 | 2 | 1 | 0.3 | 0 | 0.0 | 435 | 0.2 | 26.3 | 82.1 | 1011.0 |
| 2013-09-07T18:28 | 2 | 2 | 0.0 | 0 | 0.0 | 434 | 0.2 | 26.2 | 82.5 | 1011.0 |
| 2013-09-07T18:29 | 2 | 2 | 0.1 | 0 | 0.0 | 435 | 0.5 | 26.2 | 83.0 | 1011.0 |
| 2013-09-07T18:30 | 2 | 2 | 0.3 | 0 | 0.0 | 435 | 0.3 | 26.3 | 83.4 | 1011.0 |
| 2013-09-07T18:31 | 2 | 3 | 0.0 | 0 | 0.0 | 436 | 0.4 | 26.3 | 83.2 | 1011.0 |
| 2013-09-07T18:32 | 2 | 3 | 0.0 | 0 | 0.0 | 437 | 0.5 | 26.2 | 83.2 | 1011.0 |
| 2013-09-07T18:33 | 2 | 3 | 0.1 | 0 | 0.0 | 438 | 0.2 | 26.2 | 83.4 | 1011.0 |
| 2013-09-07T18:34 | 2 | 3 | 0.2 | 0 | 0.0 | 437 | 0.2 | 26.3 | 83.3 | 1011.0 |
| 2013-09-07T18:35 | 2 | 3 | 0.2 | 0 | 0.0 | 436 | 0.2 | 26.2 | 83.3 | 1011.0 |
| 2013-09-07T18:36 | 2 | 4 | 0.1 | 0 | 0.0 | 436 | 0.2 | 26.3 | 82.9 | 1011.0 |
| 2013-09-07T18:37 | 2 | 4 | 0.0 | 2 | 0.0 | 437 | 0.3 | 26.1 | 81.8 | 1011.0 |
| 2013-09-07T18:38 | 2 | 4 | 0.0 | 2 | 0.1 | 437 | 0.2 | 26.1 | 82.1 | 1011.0 |
| 2013-09-07T18:39 | 2 | 4 | 0.0 | 1 | 0.1 | 437 | 0.8 | 26.3 | 82.0 | 1011.0 |
| 2013-09-07T18:40 | 2 | 4 | 0.0 | 1 | 0.1 | 435 | 0.4 | 26.3 | 81.5 | 1011.0 |
| 2013-09-07T18:41 | 2 | 4 | 0.0 | 1 | 0.3 | 434 | 0.2 | 26.3 | 81.3 | 1011.0 |
| 2013-09-07T18:42 | 2 | 4 | 0.1 | 0 | 0.2 | 434 | 0.8 | 26.3 | 81.4 | 1011.0 |
| 2013-09-07T18:43 | 2 | 4 | 0.1 | 0 | 0.2 | 432 | 0.9 | 26.2 | 80.9 | 1011.0 |
| 2013-09-07T18:44 | 2 | 3 | 0.2 | 0 | 0.1 | 431 | 0.3 | 26.1 | 80.8 | 1011.0 |
| 2013-09-07T18:45 | 2 | 3 | 0.2 | 0 | 0.2 | 431 | 0.7 | 26.0 | 81.3 | 1011.0 |
| 2013-09-07T18:46 | 2 | 3 | 0.2 | 0 | 0.1 | 431 | 1.4 | 26.0 | 81.5 | 1011.0 |
| 2013-09-07T18:47 | 2 | 3 | 0.0 | 0 | 0.2 | 430 | 0.5 | 26.0 | 81.6 | 1011.0 |
| 2013-09-07T18:48 | 2 | 3 | 0.0 | 0 | 0.0 | 430 | 0.2 | 26.0 | 81.7 | 1011.0 |
| 2013-09-07T18:49 | 2 | 3 | 0.1 | 0 | 0.2 | 431 | 0.2 | 26.0 | 81.5 | 1011.0 |
| 2013-09-07T18:50 | 2 | 3 | 0.3 | 1 | 0.2 | 430 | 0.1 | 26.0 | 81.4 | 1011.0 |
| 2013-09-07T18:51 | 2 | 4 | 0.1 | 0 | 0.0 | 430 | 0.2 | 26.0 | 81.5 | 1011.0 |
| 2013-09-07T18:52 | 2 | 4 | 0.0 | 0 | 0.1 | 430 | 0.1 | 26.0 | 81.3 | 1011.0 |
| 2013-09-07T18:53 | 2 | 4 | 0.1 | 0 | 0.2 | 430 | 0.9 | 26.0 | 81.3 | 1011.0 |
| 2013-09-07T18:54 | 2 | 4 | 0.1 | 0 | 0.1 | 431 | 0.2 | 25.9 | 81.0 | 1011.0 |
| 2013-09-07T18:55 | 2 | 4 | 0.0 | 0 | 0.1 | 431 | 0.1 | 26.0 | 81.0 | 1011.0 |
| 2013-09-07T18:56 | 2 | 4 | 0.1 | 0 | 0.1 | 431 | 0.3 | 26.1 | 81.1 | 1011.0 |
| 2013-09-07T18:57 | 2 | 4 | 0.1 | 0 | 0.2 | 432 | 0.2 | 26.2 | 81.1 | 1011.0 |
| 2013-09-07T18:58 | 2 | 4 | 0.1 | 0 | 0.2 | 431 | 0.8 | 26.2 | 81.0 | 1011.0 |
| 2013-09-07T18:59 | 2 | 4 | 0.1 | 0 | 0.1 | 431 | 0.5 | 26.2 | 80.8 | 1011.0 |
| 2013-09-07T19:00 | 2 | 4 | 0.1 | 0 | 0.0 | 432 | 0.3 | 26.3 | 81.0 | 1011.0 |
| 2013-09-07T19:01 | 2 | 4 | 0.0 | 0 | 0.0 | 432 | 2.0 | 26.4 | 81.0 | 1011.0 |
| 2013-09-07T19:02 | 2 | 4 | 0.0 | 0 | 0.0 | 433 | 0.4 | 26.3 | 81.1 | 1011.0 |
| 2013-09-07T19:03 | 2 | 3 | 0.3 | 0 | 0.1 | 433 | 1.1 | 26.5 | 81.1 | 1011.0 |
| 2013-09-07T19:04 | 2 | 3 | 0.1 | 0 | 0.2 | 434 | 3.5 | 26.5 | 80.7 | 1011.0 |
| 2013-09-07T19:05 | 2 | 2 | 0.8 | 0 | 0.3 | 434 | 5.1 | 26.5 | 81.1 | 1011.0 |
| 2013-09-07T19:06 | 2 | 0 | 0.7 | -1 | 0.2 | 434 | 0.6 | 26.5 | 81.3 | 1011.0 |
| 2013-09-07T19:07 | 2 | -2 | 0.4 | 0 | 0.0 | 433 | 0.5 | 26.5 | 81.8 | 1011.0 |
| 2013-09-07T19:08 | 2 | 0 | 0.0 | 432 | 0.5 | 26.5 | 81.8 | 1011.0 | ||
| 2013-09-07T19:09 | 2 | -1 | 0.3 | 431 | 0.9 | 26.4 | 81.9 | 1011.0 | ||
| 2013-09-07T19:10 | 2 | -2 | 0.1 | -1 | 0.1 | 431 | 0.8 | 26.3 | 82.4 | 1011.0 |
| 2013-09-07T19:11 | 2 | -1 | 0.3 | 0 | 0.2 | 431 | 0.9 | 26.3 | 82.8 | 1011.0 |
| 2013-09-07T19:12 | 2 | 0 | 0.5 | 0 | 0.2 | 430 | 1.0 | 26.3 | 83.1 | 1011.0 |
| 2013-09-07T19:13 | 2 | 1 | 0.5 | 0 | 0.2 | 430 | 0.7 | 26.2 | 83.3 | 1011.0 |
| 2013-09-07T19:14 | 2 | 3 | 0.6 | 0 | 0.0 | 430 | 1.7 | 26.2 | 83.4 | 1011.0 |
| 2013-09-07T19:15 | 2 | 4 | 0.5 | 0 | 0.0 | 430 | 0.9 | 26.2 | 83.4 | 1011.0 |
| 2013-09-07T19:16 | 2 | 6 | 0.5 | 0 | 0.1 | 430 | 0.5 | 26.1 | 83.6 | 1011.0 |
| 2013-09-07T19:17 | 2 | 7 | 0.3 | 0 | 0.2 | 430 | 0.4 | 26.1 | 83.8 | 1011.0 |
| 2013-09-07T19:18 | 2 | 8 | 0.4 | 0 | 0.0 | 430 | 1.1 | 26.1 | 83.8 | 1011.0 |
| 2013-09-07T19:19 | 2 | 9 | 0.5 | 0 | 0.0 | 430 | 1.6 | 26.1 | 83.9 | 1011.0 |
| 2013-09-07T19:20 | 2 | 11 | 0.5 | 0 | 0.1 | 430 | 1.2 | 26.1 | 84.0 | 1011.0 |
| 2013-09-07T19:21 | 2 | 12 | 0.5 | 0 | 0.1 | 430 | 0.9 | 26.1 | 84.0 | 1011.0 |
| 2013-09-07T19:22 | 2 | 14 | 0.5 | 1 | 0.1 | 430 | 0.6 | 26.1 | 84.1 | 1011.0 |
| 2013-09-07T19:23 | 2 | 16 | 0.6 | 1 | 0.1 | 430 | 0.3 | 26.1 | 84.1 | 1011.0 |
| 2013-09-07T19:24 | 2 | 18 | 0.6 | 1 | 0.2 | 429 | 0.3 | 25.7 | 84.2 | 1011.0 |
| 2013-09-07T19:25 | 2 | 20 | 0.5 | 1 | 0.0 | 429 | 0.3 | 26.0 | 84.3 | 1011.0 |
| 2013-09-07T19:26 | 2 | 22 | 0.4 | 1 | 0.0 | 429 | 0.8 | 26.0 | 84.3 | 1011.0 |
| 2013-09-07T19:27 | 2 | 23 | 0.5 | 1 | 0.0 | 429 | 0.7 | 26.1 | 84.2 | 1011.0 |
| 2013-09-07T19:28 | 2 | 25 | 0.6 | 1 | 0.0 | 430 | 0.3 | 25.7 | 84.3 | 1011.0 |
| 2013-09-07T19:29 | 2 | 27 | 0.7 | 1 | 0.0 | 430 | 0.4 | 25.6 | 84.4 | 1011.0 |
| 2013-09-07T19:30 | 2 | 29 | 0.7 | 1 | 0.0 | 430 | 0.3 | 25.9 | 84.5 | 1011.0 |
| 2013-09-07T19:31 | 2 | 31 | 0.7 | 1 | 0.0 | 430 | 0.6 | 25.7 | 84.6 | 1011.0 |
| 2013-09-07T19:32 | 2 | 33 | 0.7 | 1 | 0.0 | 431 | 0.5 | 25.2 | 84.6 | 1011.0 |
| 2013-09-07T19:33 | 2 | 35 | 0.8 | 1 | 0.0 | 431 | 0.9 | 25.7 | 84.7 | 1011.0 |
| 2013-09-07T19:34 | 2 | 38 | 0.9 | 1 | 0.0 | 430 | 0.8 | 26.1 | 84.8 | 1011.0 |
| 2013-09-07T19:35 | 2 | 41 | 1.0 | 1 | 0.0 | 430 | 1.2 | 24.8 | 84.8 | 1011.0 |
| 2013-09-07T19:36 | 2 | 45 | 1.2 | 1 | 0.0 | 430 | 1.1 | 26.0 | 84.9 | 1011.0 |
| 2013-09-07T19:37 | 2 | 49 | 1.3 | 1 | 0.0 | 430 | 0.3 | 25.2 | 84.9 | 1011.0 |
| 2013-09-07T19:38 | 2 | 53 | 1.3 | 1 | 0.0 | 429 | 0.4 | 25.2 | 85.1 | 1011.0 |
| 2013-09-07T19:39 | 2 | 58 | 1.3 | 1 | 0.0 | 430 | 0.3 | 25.8 | 85.2 | 1011.0 |
| 2013-09-07T19:40 | 2 | 62 | 1.3 | 1 | 0.1 | 430 | 0.4 | 25.9 | 85.3 | 1011.0 |
| 2013-09-07T19:41 | 2 | 66 | 1.3 | 1 | 0.1 | 430 | 0.5 | 26.0 | 85.3 | 1011.0 |
| 2013-09-07T19:42 | 2 | 71 | 1.3 | 1 | 0.2 | 431 | 0.8 | 25.9 | 85.5 | 1011.0 |
| 2013-09-07T19:43 | 2 | 75 | 1.3 | 1 | 0.1 | 432 | 0.7 | 26.2 | 85.4 | 1011.0 |
| 2013-09-07T19:44 | 2 | 79 | 1.2 | 1 | 0.0 | 432 | 1.4 | 26.2 | 85.4 | 1011.0 |
| 2013-09-07T19:45 | 2 | 83 | 1.3 | 1 | 0.0 | 432 | 1.6 | 26.0 | 85.5 | 1011.0 |
| 2013-09-07T19:46 | 2 | 88 | 1.3 | 1 | 0.1 | 431 | 1.1 | 26.2 | 85.4 | 1011.0 |
| 2013-09-07T19:47 | 2 | 93 | 1.4 | 1 | 0.1 | 430 | 0.4 | 26.3 | 85.5 | 1011.0 |
| 2013-09-07T19:48 | 2 | 98 | 1.5 | 1 | 0.2 | 430 | 0.6 | 26.3 | 85.6 | 1011.0 |
| 2013-09-07T19:49 | 2 | 103 | 1.6 | 1 | 0.2 | 431 | 0.3 | 26.2 | 85.4 | 1011.0 |
| 2013-09-07T19:50 | 2 | 109 | 1.6 | 2 | 0.0 | 430 | 0.9 | 26.3 | 85.4 | 1011.0 |
| 2013-09-07T19:51 | 2 | 114 | 1.4 | 1 | 0.2 | 430 | 0.7 | 26.0 | 85.1 | 1011.0 |
| 2013-09-07T19:52 | 2 | 118 | 1.4 | 1 | 0.2 | 430 | 0.2 | 26.3 | 85.2 | 1011.0 |
| 2013-09-07T19:53 | 2 | 123 | 1.3 | 2 | 0.0 | 430 | 0.6 | 26.3 | 85.3 | 1011.0 |
| 2013-09-07T19:54 | 2 | 127 | 1.2 | 2 | 0.0 | 430 | 0.4 | 26.2 | 85.0 | 1011.0 |
| 2013-09-07T19:55 | 2 | 131 | 1.2 | 2 | 0.0 | 430 | 0.4 | 26.3 | 85.2 | 1011.0 |
| 2013-09-07T19:56 | 2 | 135 | 1.0 | 2 | 0.0 | 429 | 0.3 | 26.4 | 85.2 | 1011.0 |
| 2013-09-07T19:57 | 2 | 139 | 1.0 | 2 | 0.0 | 429 | 0.3 | 26.4 | 85.1 | 1012.0 |
| 2013-09-07T19:58 | 2 | 142 | 0.9 | 1 | 0.3 | 429 | 0.2 | 26.4 | 84.8 | 1012.0 |
| 2013-09-07T19:59 | 2 | 145 | 0.8 | 2 | 0.0 | 428 | 0.2 | 26.4 | 84.6 | 1012.0 |
| 2013-09-07T20:00 | 2 | 147 | 0.8 | 2 | 0.0 | 428 | 0.2 | 26.4 | 84.3 | 1012.0 |
| 2013-09-07T20:01 | 2 | 150 | 1.0 | 2 | 0.2 | 428 | 0.1 | 26.4 | 84.6 | 1012.0 |
| 2013-09-07T20:02 | 2 | 153 | 1.1 | 3 | 0.3 | 427 | 0.2 | 26.5 | 84.6 | 1012.0 |
| 2013-09-07T20:03 | 2 | 157 | 1.1 | 4 | 0.4 | 427 | 0.3 | 26.5 | 84.2 | 1011.0 |
| 2013-09-07T20:04 | 2 | 161 | 1.3 | 6 | 0.7 | 427 | 0.2 | 26.5 | 84.3 | 1011.0 |
| 2013-09-07T20:05 | 2 | 166 | 1.3 | 8 | 0.6 | 427 | 0.2 | 26.6 | 84.3 | 1011.0 |
| 2013-09-07T20:06 | 2 | 170 | 1.3 | 10 | 0.6 | 427 | 0.2 | 26.7 | 84.0 | 1011.0 |
| 2013-09-07T20:07 | 2 | 174 | 1.0 | 11 | 0.4 | 426 | 0.4 | 26.6 | 83.7 | 1011.0 |
| 2013-09-07T20:08 | 2 | 179 | 1.8 | 13 | 2.1 | 426 | 0.2 | 26.7 | 83.5 | 1012.0 |
| 2013-09-07T20:09 | 2 | 184 | 1.2 | 19 | 0.8 | 426 | 0.2 | 26.6 | 83.2 | 1012.0 |
| 2013-09-07T20:10 | 2 | 187 | 0.5 | 17 | 1.3 | 426 | 0.1 | 26.7 | 83.1 | 1012.0 |
| 2013-09-07T20:11 | 2 | 188 | 0.7 | 12 | 0.6 | 425 | 0.2 | 26.7 | 83.3 | 1012.0 |
| 2013-09-07T20:12 | 2 | 191 | 1.9 | 15 | 3.1 | 425 | 0.3 | 26.8 | 82.9 | 1012.0 |
| 2013-09-07T20:13 | 2 | 198 | 1.5 | 26 | 2.3 | 425 | 0.2 | 26.8 | 82.6 | 1012.0 |
| 2013-09-07T20:14 | 2 | 202 | 0.7 | 29 | 0.0 | 424 | 0.1 | 26.8 | 82.7 | 1012.0 |
| 2013-09-07T20:15 | 2 | 203 | 0.3 | 28 | 0.7 | 424 | 0.1 | 26.9 | 82.3 | 1012.0 |
| 2013-09-07T20:16 | 2 | 204 | 0.1 | 26 | 0.7 | 424 | 0.4 | 26.9 | 82.1 | 1012.0 |
| 2013-09-07T20:17 | 2 | 205 | 0.3 | 23 | 0.9 | 423 | 0.3 | 26.9 | 81.3 | 1012.0 |
| 2013-09-07T20:18 | 2 | 205 | 0.2 | 21 | 0.7 | 423 | 0.1 | 26.9 | 81.5 | 1012.0 |
| 2013-09-07T20:19 | 2 | 206 | 0.5 | 19 | 0.3 | 423 | 0.0 | 27.0 | 81.5 | 1012.0 |
| 2013-09-07T20:20 | 2 | 208 | 0.5 | 19 | 0.1 | 423 | 0.4 | 27.1 | 81.4 | 1012.0 |
| 2013-09-07T20:21 | 2 | 210 | 0.5 | 18 | 0.2 | 423 | 0.1 | 27.1 | 80.6 | 1012.0 |
| 2013-09-07T20:22 | 2 | 211 | 0.4 | 18 | 0.6 | 423 | 0.3 | 27.1 | 80.6 | 1012.0 |
| 2013-09-07T20:23 | 2 | 212 | 0.6 | 16 | 0.3 | 423 | 0.1 | 27.1 | 80.4 | 1012.0 |
| 2013-09-07T20:24 | 2 | 214 | 0.7 | 17 | 0.3 | 423 | 0.2 | 27.1 | 80.3 | 1012.0 |
| 2013-09-07T20:25 | 2 | 217 | 0.8 | 18 | 0.7 | 423 | 0.2 | 27.1 | 79.8 | 1012.0 |
| 2013-09-07T20:26 | 2 | 219 | 0.7 | 18 | 0.5 | 423 | 0.1 | 27.2 | 79.9 | 1012.0 |
| 2013-09-07T20:27 | 2 | 221 | 0.3 | 19 | 0.3 | 424 | 0.1 | 27.2 | 79.6 | 1012.0 |
| 2013-09-07T20:28 | 2 | 222 | 0.4 | 18 | 0.3 | 424 | 0.2 | 27.2 | 79.5 | 1012.0 |
| 2013-09-07T20:29 | 2 | 224 | 0.6 | 19 | 0.6 | 424 | 0.3 | 27.2 | 78.7 | 1012.0 |
| 2013-09-07T20:30 | 2 | 226 | 0.5 | 21 | 0.5 | 424 | 0.1 | 27.2 | 78.2 | 1012.0 |
| 2013-09-07T20:31 | 2 | 229 | 1.0 | 24 | 1.5 | 424 | 0.2 | 27.1 | 78.2 | 1012.0 |
| 2013-09-07T20:32 | 2 | 232 | 0.9 | 29 | 0.9 | 424 | 0.2 | 27.2 | 78.6 | 1012.0 |
| 2013-09-07T20:33 | 2 | 235 | 0.7 | 31 | 0.5 | 424 | 0.2 | 27.4 | 78.5 | 1012.0 |
| 2013-09-07T20:34 | 2 | 236 | 0.4 | 31 | 0.6 | 424 | 0.2 | 27.4 | 78.0 | 1012.0 |
| 2013-09-07T20:35 | 2 | 238 | 1.0 | 31 | 0.9 | 424 | 0.2 | 27.4 | 78.0 | 1012.0 |
| 2013-09-07T20:36 | 2 | 242 | 1.1 | 35 | 1.3 | 424 | 0.3 | 27.4 | 77.7 | 1012.0 |
| 2013-09-07T20:37 | 2 | 246 | 1.1 | 39 | 1.3 | 424 | 0.3 | 27.4 | 77.5 | 1012.0 |
| 2013-09-07T20:38 | 2 | 250 | 1.0 | 44 | 1.1 | 424 | 0.2 | 27.4 | 77.6 | 1012.0 |
| 2013-09-07T20:39 | 2 | 252 | 1.0 | 47 | 1.2 | 424 | 0.2 | 27.5 | 77.6 | 1012.0 |
| 2013-09-07T20:40 | 2 | 256 | 1.0 | 52 | 1.4 | 424 | 0.3 | 27.5 | 77.5 | 1012.0 |
| 2013-09-07T20:41 | 2 | 260 | 1.2 | 57 | 2.0 | 424 | 0.2 | 27.5 | 77.4 | 1012.0 |
| 2013-09-07T20:42 | 2 | 262 | 0.3 | 60 | 0.3 | 424 | 0.3 | 27.5 | 77.3 | 1012.0 |
| 2013-09-07T20:43 | 2 | 263 | 0.3 | 63 | 0.6 | 424 | 0.2 | 27.5 | 77.2 | 1012.0 |
| 2013-09-07T20:44 | 2 | 264 | 0.6 | 67 | 1.4 | 424 | 0.2 | 27.5 | 77.1 | 1012.0 |
| 2013-09-07T20:45 | 2 | 265 | 0.8 | 68 | 0.9 | 423 | 0.2 | 27.5 | 77.4 | 1012.0 |
| 2013-09-07T20:46 | 2 | 261 | 1.5 | 62 | 2.6 | 423 | 0.2 | 27.6 | 77.8 | 1012.0 |
| 2013-09-07T20:47 | 2 | 259 | 0.8 | 60 | 2.0 | 423 | 0.3 | 27.7 | 77.2 | 1012.0 |
| 2013-09-07T20:48 | 2 | 263 | 1.2 | 69 | 2.7 | 423 | 0.3 | 27.7 | 77.0 | 1012.0 |
| 2013-09-07T20:49 | 2 | 269 | 1.7 | 81 | 3.4 | 423 | 0.1 | 27.7 | 77.1 | 1012.0 |
| 2013-09-07T20:50 | 2 | 273 | 0.9 | 90 | 1.9 | 423 | 0.1 | 27.8 | 77.0 | 1012.0 |
| 2013-09-07T20:51 | 2 | 280 | 2.3 | 103 | 4.3 | 423 | 0.2 | 27.9 | 77.4 | 1012.0 |
| 2013-09-07T20:52 | 2 | 285 | 1.5 | 114 | 2.6 | 423 | 0.1 | 27.9 | 77.0 | 1012.0 |
| 2013-09-07T20:53 | 2 | 292 | 2.1 | 126 | 3.8 | 423 | 0.2 | 27.9 | 77.4 | 1012.0 |
| 2013-09-07T20:54 | 2 | 293 | 1.0 | 127 | 2.0 | 422 | 0.4 | 28.0 | 76.7 | 1012.0 |
| 2013-09-07T20:55 | 2 | 292 | 1.9 | 125 | 3.0 | 422 | 0.4 | 27.9 | 76.5 | 1012.0 |
| 2013-09-07T20:56 | 2 | 300 | 1.4 | 139 | 2.3 | 422 | 0.2 | 28.0 | 76.5 | 1012.0 |
| 2013-09-07T20:57 | 2 | 302 | 0.4 | 141 | 0.5 | 422 | 0.4 | 28.0 | 76.9 | 1012.0 |
| 2013-09-07T20:58 | 2 | 300 | 2.1 | 135 | 4.2 | 422 | 0.2 | 28.0 | 75.9 | 1012.0 |
| 2013-09-07T20:59 | 2 | 299 | 0.7 | 132 | 0.9 | 422 | 0.4 | 28.0 | 76.2 | 1012.0 |
| 2013-09-07T21:00 | 2 | 299 | 0.5 | 130 | 1.3 | 422 | 0.2 | 28.0 | 76.5 | 1012.0 |
| 2013-09-07T21:01 | 2 | 297 | 0.4 | 125 | 0.9 | 422 | 0.2 | 28.1 | 76.3 | 1012.0 |
| 2013-09-07T21:02 | 2 | 292 | 2.9 | 115 | 5.4 | 423 | 0.3 | 28.1 | 76.3 | 1012.0 |
| 2013-09-07T21:03 | 2 | 284 | 3.7 | 100 | 6.7 | 423 | 0.3 | 28.1 | 76.7 | 1012.0 |
| 2013-09-07T21:04 | 2 | 271 | 2.8 | 76 | 5.3 | 423 | 0.4 | 28.1 | 76.1 | 1012.0 |
| 2013-09-07T21:05 | 2 | 261 | 3.5 | 59 | 6.0 | 423 | 0.3 | 28.1 | 76.6 | 1012.0 |
| 2013-09-07T21:06 | 2 | 250 | 2.7 | 40 | 4.6 | 423 | 0.2 | 28.2 | 76.9 | 1012.0 |
| 2013-09-07T21:07 | 2 | 242 | 1.6 | 26 | 2.9 | 423 | 0.2 | 28.2 | 77.0 | 1012.0 |
| 2013-09-07T21:08 | 2 | 242 | 0.6 | 25 | 1.0 | 423 | 0.2 | 28.2 | 76.6 | 1012.0 |
| 2013-09-07T21:09 | 2 | 240 | 1.7 | 21 | 3.1 | 423 | 0.2 | 28.1 | 76.5 | 1012.0 |
| 2013-09-07T21:10 | 2 | 236 | 0.5 | 14 | 1.3 | 424 | 0.4 | 28.1 | 77.1 | 1012.0 |
| 2013-09-07T21:11 | 2 | 238 | 1.4 | 14 | 1.3 | 424 | 0.2 | 28.2 | 77.4 | 1012.0 |
| 2013-09-07T21:12 | 2 | 242 | 0.9 | 17 | 0.3 | 424 | 0.2 | 28.1 | 76.7 | 1012.0 |
| 2013-09-07T21:13 | 2 | 245 | 0.5 | 17 | 0.3 | 424 | 0.3 | 28.1 | 76.9 | 1012.0 |
| 2013-09-07T21:14 | 2 | 246 | 0.4 | 17 | 0.1 | 424 | 0.3 | 28.1 | 76.7 | 1012.0 |
| 2013-09-07T21:15 | 2 | 249 | 1.4 | 18 | 1.6 | 424 | 0.3 | 28.1 | 76.9 | 1012.0 |
| 2013-09-07T21:16 | 2 | 256 | 1.9 | 28 | 2.6 | 425 | 0.4 | 28.1 | 77.0 | 1012.0 |
| 2013-09-07T21:17 | 2 | 261 | 2.4 | 35 | 3.2 | 424 | 0.3 | 28.1 | 76.7 | 1012.0 |
| 2013-09-07T21:18 | 2 | 266 | 0.5 | 41 | 0.6 | 425 | 0.1 | 28.1 | 76.9 | 1012.0 |
| 2013-09-07T21:19 | 2 | 270 | 1.0 | 45 | 1.3 | 425 | 0.3 | 28.1 | 77.3 | 1012.0 |
| 2013-09-07T21:20 | 2 | 270 | 1.0 | 45 | 2.0 | 425 | 0.1 | 28.2 | 77.6 | 1012.0 |
| 2013-09-07T21:21 | 2 | 272 | 1.7 | 45 | 2.0 | 425 | 0.4 | 28.3 | 77.8 | 1012.0 |
| 2013-09-07T21:22 | 2 | 268 | 2.7 | 37 | 4.7 | 425 | 0.2 | 28.2 | 76.5 | 1012.0 |
| 2013-09-07T21:23 | 2 | 262 | 0.7 | 25 | 1.7 | 425 | 0.3 | 28.2 | 76.9 | 1012.0 |
| 2013-09-07T21:24 | 2 | 262 | 0.8 | 23 | 1.8 | 425 | 0.7 | 28.3 | 77.2 | 1012.0 |
| 2013-09-07T21:25 | 2 | 261 | 0.7 | 19 | 0.7 | 425 | 0.2 | 28.2 | 76.5 | 1012.0 |
| 2013-09-07T21:26 | 2 | 262 | 1.5 | 19 | 1.5 | 425 | 0.2 | 28.1 | 77.0 | 1012.0 |
| 2013-09-07T21:27 | 2 | 268 | 1.3 | 24 | 1.2 | 425 | 0.5 | 28.1 | 76.9 | 1012.0 |
| 2013-09-07T21:28 | 2 | 275 | 1.9 | 32 | 2.1 | 426 | 0.6 | 28.1 | 77.5 | 1012.0 |
| 2013-09-07T21:29 | 2 | 279 | 3.2 | 34 | 3.4 | 427 | 0.4 | 28.2 | 77.9 | 1012.0 |
| 2013-09-07T21:30 | 2 | 286 | 0.5 | 40 | 1.1 | 427 | 0.1 | 28.3 | 77.6 | 1012.0 |
| 2013-09-07T21:31 | 2 | 288 | 1.0 | 36 | 1.7 | 427 | 0.3 | 28.4 | 78.0 | 1012.0 |
| 2013-09-07T21:32 | 2 | 293 | 1.7 | 38 | 0.7 | 427 | 0.2 | 28.4 | 77.2 | 1012.0 |
| 2013-09-07T21:33 | 2 | 296 | 1.1 | 35 | 2.4 | 428 | 0.2 | 28.4 | 77.3 | 1012.0 |
| 2013-09-07T21:34 | 2 | 299 | 0.5 | 33 | 2.4 | 427 | 0.3 | 28.4 | 76.2 | 1012.0 |
| 2013-09-07T21:35 | 2 | 302 | 2.2 | 30 | 1.2 | 427 | 0.2 | 28.4 | 76.2 | 1012.0 |
| 2013-09-07T21:36 | 2 | 308 | 0.7 | 32 | 1.7 | 427 | 0.4 | 28.4 | 76.2 | 1012.0 |
| 2013-09-07T21:37 | 2 | 316 | 6.0 | 36 | 6.5 | 427 | 0.3 | 28.4 | 75.9 | 1012.0 |
| 2013-09-07T21:38 | 2 | 332 | 2.9 | 52 | 2.3 | 427 | 0.3 | 28.4 | 75.4 | 1012.0 |
| 2013-09-07T21:39 | 2 | 338 | 1.6 | 54 | 1.2 | 427 | 0.2 | 28.4 | 75.4 | 1012.0 |
| 2013-09-07T21:40 | 2 | 347 | 4.4 | 61 | 4.3 | 428 | 0.2 | 28.4 | 75.3 | 1011.0 |
| 2013-09-07T21:41 | 2 | 353 | 0.7 | 61 | 2.2 | 428 | 0.2 | 28.4 | 75.3 | 1012.0 |
| 2013-09-07T21:42 | 2 | 365 | 9.9 | 70 | 11.3 | 428 | 0.2 | 28.4 | 75.5 | 1012.0 |
| 2013-09-07T21:43 | 2 | 402 | 11.0 | 113 | 12.6 | 428 | 0.3 | 28.4 | 75.4 | 1012.0 |
| 2013-09-07T21:44 | 2 | 428 | 3.7 | 140 | 2.9 | 428 | 0.2 | 28.4 | 75.3 | 1012.0 |
| 2013-09-07T21:45 | 2 | 433 | 3.0 | 138 | 1.9 | 428 | 0.3 | 28.4 | 74.8 | 1012.0 |
| 2013-09-07T21:46 | 2 | 455 | 7.7 | 158 | 7.9 | 428 | 0.4 | 28.4 | 75.0 | 1012.0 |
| 2013-09-07T21:47 | 2 | 475 | 5.6 | 177 | 5.5 | 429 | 0.4 | 28.5 | 76.1 | 1012.0 |
| 2013-09-07T21:48 | 2 | 494 | 3.1 | 195 | 2.2 | 429 | 0.2 | 28.6 | 75.9 | 1012.0 |
| 2013-09-07T21:49 | 2 | 497 | 3.9 | 192 | 5.8 | 428 | 0.5 | 28.7 | 75.3 | 1012.0 |
| 2013-09-07T21:50 | 2 | 511 | 3.2 | 204 | 4.9 | 429 | 0.3 | 28.8 | 75.7 | 1012.0 |
| 2013-09-07T21:51 | 2 | 511 | 1.1 | 200 | 2.4 | 428 | 0.9 | 28.7 | 74.8 | 1012.0 |
| 2013-09-07T21:52 | 2 | 512 | 2.1 | 199 | 2.4 | 428 | 0.4 | 28.7 | 74.5 | 1012.0 |
| 2013-09-07T21:53 | 2 | 522 | 0.9 | 210 | 1.2 | 429 | 0.5 | 28.8 | 76.0 | 1012.0 |
| 2013-09-07T21:54 | 2 | 529 | 4.9 | 220 | 6.5 | 428 | 1.2 | 29.0 | 75.0 | 1012.0 |
| 2013-09-07T21:55 | 2 | 529 | 6.2 | 221 | 7.8 | 427 | 0.2 | 28.8 | 73.7 | 1012.0 |
| 2013-09-07T21:56 | 2 | 517 | 2.3 | 207 | 2.3 | 428 | 0.4 | 28.8 | 74.7 | 1012.0 |
| 2013-09-07T21:57 | 2 | 520 | 6.0 | 215 | 9.0 | 429 | 0.4 | 28.8 | 75.4 | 1012.0 |
| 2013-09-07T21:58 | 2 | 526 | 7.2 | 227 | 10.0 | 428 | 1.2 | 28.9 | 75.3 | 1012.0 |
| 2013-09-07T21:59 | 2 | 528 | 7.2 | 232 | 8.5 | 426 | 0.8 | 28.9 | 73.9 | 1012.0 |
| 2013-09-07T22:00 | 2 | 518 | 2.0 | 222 | 3.4 | 427 | 0.5 | 28.6 | 74.8 | 1012.0 |
| 2013-09-07T22:01 | 2 | 509 | 6.2 | 216 | 7.0 | 426 | 0.9 | 28.7 | 74.8 | 1012.0 |
| 2013-09-07T22:02 | 2 | 467 | 11.6 | 165 | 14.2 | 425 | 0.6 | 28.8 | 73.7 | 1012.0 |
| 2013-09-07T22:03 | 2 | 449 | 3.2 | 144 | 4.5 | 425 | 0.2 | 28.7 | 73.8 | 1012.0 |
| 2013-09-07T22:04 | 2 | 431 | 3.2 | 125 | 3.5 | 425 | 0.5 | 28.7 | 74.4 | 1012.0 |
| 2013-09-07T22:05 | 2 | 445 | 8.5 | 147 | 11.7 | 426 | 0.3 | 28.8 | 74.8 | 1012.0 |
| 2013-09-07T22:06 | 2 | 416 | 17.4 | 113 | 21.4 | 425 | 0.4 | 28.8 | 75.2 | 1012.0 |
| 2013-09-07T22:07 | 2 | 412 | 12.3 | 108 | 15.6 | 425 | 0.5 | 28.9 | 75.1 | 1012.0 |
| 2013-09-07T22:08 | 2 | 415 | 11.5 | 114 | 13.9 | 426 | 0.4 | 29.0 | 75.4 | 1012.0 |
| 2013-09-07T22:09 | 2 | 391 | 6.0 | 86 | 7.1 | 426 | 0.2 | 29.0 | 74.4 | 1012.0 |
| 2013-09-07T22:10 | 2 | 391 | 3.3 | 86 | 4.1 | 425 | 0.4 | 29.0 | 74.7 | 1012.0 |
| 2013-09-07T22:11 | 2 | 388 | 6.2 | 83 | 7.9 | 425 | 0.6 | 29.0 | 74.4 | 1012.0 |
| 2013-09-07T22:12 | 2 | 386 | 3.5 | 78 | 4.5 | 425 | 1.0 | 29.0 | 74.6 | 1012.0 |
| 2013-09-07T22:13 | 2 | 402 | 12.6 | 95 | 14.7 | 425 | 0.4 | 28.9 | 74.4 | 1012.0 |
| 2013-09-07T22:14 | 2 | 410 | 9.9 | 102 | 13.2 | 424 | 0.5 | 28.7 | 74.3 | 1012.0 |
| 2013-09-07T22:15 | 2 | 433 | 15.5 | 124 | 17.7 | 425 | 0.4 | 28.6 | 74.9 | 1012.0 |
| 2013-09-07T22:16 | 2 | 446 | 7.0 | 137 | 9.7 | 424 | 0.3 | 28.4 | 74.4 | 1012.0 |
| 2013-09-07T22:17 | 2 | 428 | 6.6 | 112 | 8.8 | 425 | 0.5 | 28.8 | 75.4 | 1012.0 |
| 2013-09-07T22:18 | 2 | 405 | 8.7 | 80 | 11.1 | 426 | 0.4 | 28.9 | 75.0 | 1012.0 |
| 2013-09-07T22:19 | 2 | 416 | 6.0 | 88 | 5.5 | 426 | 0.5 | 28.9 | 75.2 | 1012.0 |
| 2013-09-07T22:20 | 2 | 438 | 5.8 | 106 | 4.6 | 425 | 0.9 | 28.9 | 74.3 | 1012.0 |
| 2013-09-07T22:21 | 2 | 439 | 9.1 | 100 | 13.1 | 425 | 0.7 | 28.8 | 74.8 | 1012.0 |
| 2013-09-07T22:22 | 2 | 479 | 24.2 | 137 | 26.1 | 426 | 0.5 | 28.8 | 75.1 | 1012.0 |
| 2013-09-07T22:23 | 2 | 536 | 4.8 | 195 | 4.9 | 426 | 0.8 | 28.8 | 74.6 | 1012.0 |
| 2013-09-07T22:24 | 2 | 551 | 5.6 | 203 | 3.8 | 426 | 0.4 | 28.7 | 75.4 | 1012.0 |
| 2013-09-07T22:25 | 2 | 559 | 6.6 | 202 | 9.8 | 427 | 0.7 | 28.6 | 74.7 | 1012.0 |
| 2013-09-07T22:26 | 2 | 580 | 12.2 | 218 | 12.4 | 427 | 0.5 | 28.8 | 75.5 | 1012.0 |
| 2013-09-07T22:27 | 2 | 576 | 4.7 | 205 | 7.5 | 426 | 0.5 | 28.8 | 74.2 | 1012.0 |
| 2013-09-07T22:28 | 2 | 606 | 13.0 | 230 | 12.7 | 427 | 0.5 | 28.7 | 75.3 | 1012.0 |
| 2013-09-07T22:29 | 2 | 646 | 12.9 | 269 | 12.5 | 427 | 1.0 | 28.8 | 75.0 | 1012.0 |
| 2013-09-07T22:30 | 2 | 658 | 3.0 | 276 | 4.9 | 427 | 0.9 | 28.8 | 75.3 | 1012.0 |
| 2013-09-07T22:31 | 2 | 631 | 13.2 | 241 | 16.5 | 428 | 0.5 | 29.0 | 75.1 | 1012.0 |
| 2013-09-07T22:32 | 2 | 630 | 2.4 | 234 | 2.8 | 428 | 0.6 | 29.0 | 74.8 | 1012.0 |
| 2013-09-07T22:33 | 2 | 626 | 4.0 | 225 | 5.2 | 428 | 0.5 | 29.0 | 75.7 | 1012.0 |
| 2013-09-07T22:34 | 2 | 646 | 6.0 | 243 | 6.1 | 427 | 0.7 | 29.0 | 74.3 | 1012.0 |
| 2013-09-07T22:35 | 2 | 648 | 2.4 | 241 | 1.7 | 427 | 0.8 | 29.0 | 74.5 | 1012.0 |
| 2013-09-07T22:36 | 2 | 661 | 2.3 | 250 | 2.9 | 427 | 0.5 | 29.0 | 74.4 | 1012.0 |
| 2013-09-07T22:37 | 2 | 661 | 5.2 | 247 | 5.0 | 427 | 1.3 | 29.0 | 74.6 | 1012.0 |
| 2013-09-07T22:38 | 2 | 692 | 13.0 | 277 | 13.5 | 428 | 1.0 | 29.0 | 75.1 | 1012.0 |
| 2013-09-07T22:39 | 2 | 729 | 16.0 | 314 | 16.2 | 428 | 0.7 | 29.1 | 74.5 | 1012.0 |
| 2013-09-07T22:40 | 2 | 768 | 10.1 | 351 | 10.2 | 427 | 0.6 | 29.0 | 74.0 | 1012.0 |
| 2013-09-07T22:41 | 2 | 755 | 9.2 | 333 | 11.2 | 427 | 0.7 | 29.1 | 73.9 | 1012.0 |
| 2013-09-07T22:42 | 2 | 739 | 3.2 | 312 | 4.2 | 427 | 0.5 | 29.0 | 73.6 | 1012.0 |
| 2013-09-07T22:43 | 2 | 728 | 6.8 | 297 | 8.2 | 428 | 0.8 | 29.0 | 74.5 | 1012.0 |
| 2013-09-07T22:44 | 2 | 726 | 7.4 | 293 | 8.6 | 428 | 0.7 | 29.0 | 74.7 | 1012.0 |
| 2013-09-07T22:45 | 2 | 709 | 2.7 | 272 | 3.2 | 428 | 0.6 | 28.9 | 74.4 | 1012.0 |
| 2013-09-07T22:46 | 2 | 692 | 5.5 | 253 | 6.4 | 429 | 1.5 | 28.9 | 74.1 | 1012.0 |
| 2013-09-07T22:47 | 2 | 654 | 21.4 | 208 | 24.7 | 429 | 0.8 | 28.6 | 73.8 | 1012.0 |
| 2013-09-07T22:48 | 2 | 633 | 25.3 | 185 | 26.2 | 429 | 0.7 | 28.5 | 74.2 | 1012.0 |
| 2013-09-07T22:49 | 2 | 568 | 5.3 | 117 | 4.9 | 429 | 0.3 | 28.1 | 73.1 | 1012.0 |
| 2013-09-07T22:50 | 2 | 538 | 14.6 | 92 | 14.3 | 430 | 0.6 | 28.6 | 73.9 | 1012.0 |
| 2013-09-07T22:51 | 2 | 521 | 2.6 | 77 | 3.0 | 431 | 0.5 | 28.3 | 74.6 | 1012.0 |
| 2013-09-07T22:52 | 2 | 538 | 4.2 | 97 | 4.8 | 430 | 1.0 | 28.1 | 74.2 | 1012.0 |
| 2013-09-07T22:53 | 2 | 518 | 5.9 | 76 | 6.7 | 431 | 0.4 | 27.5 | 74.6 | 1012.0 |
| 2013-09-07T22:54 | 2 | 499 | 5.2 | 54 | 5.8 | 430 | 0.6 | 28.6 | 73.2 | 1012.0 |
| 2013-09-07T22:55 | 2 | 501 | 4.5 | 54 | 4.1 | 431 | 0.6 | 28.1 | 74.5 | 1012.0 |
| 2013-09-07T22:56 | 2 | 513 | 8.0 | 64 | 7.9 | 431 | 0.6 | 28.5 | 74.0 | 1012.0 |
| 2013-09-07T22:57 | 2 | 541 | 19.3 | 86 | 18.2 | 432 | 0.9 | 28.2 | 75.1 | 1012.0 |
| 2013-09-07T22:58 | 2 | 617 | 20.1 | 157 | 18.6 | 433 | 1.5 | 28.1 | 74.4 | 1012.0 |
| 2013-09-07T22:59 | 2 | 642 | 3.4 | 174 | 3.1 | 433 | 0.5 | 27.8 | 73.6 | 1012.0 |
| 2013-09-07T23:00 | 2 | 645 | 8.2 | 167 | 10.5 | 433 | 0.5 | 28.0 | 73.1 | 1012.0 |
| 2013-09-07T23:01 | 2 | 627 | 10.3 | 139 | 11.1 | 433 | 0.8 | 27.9 | 73.5 | 1012.0 |
| 2013-09-07T23:02 | 2 | 634 | 6.3 | 137 | 5.3 | 433 | 0.8 | 28.4 | 73.8 | 1012.0 |
| 2013-09-07T23:03 | 2 | 634 | 7.3 | 128 | 8.1 | 433 | 0.5 | 28.6 | 73.0 | 1012.0 |
| 2013-09-07T23:04 | 2 | 648 | 17.3 | 134 | 16.3 | 433 | 0.6 | 27.8 | 73.4 | 1012.0 |
| 2013-09-07T23:05 | 2 | 722 | 31.2 | 205 | 31.0 | 433 | 0.8 | 28.5 | 73.1 | 1012.0 |
| 2013-09-07T23:06 | 2 | 656 | 28.6 | 131 | 31.0 | 433 | 0.6 | 28.4 | 73.5 | 1012.0 |
| 2013-09-07T23:07 | 2 | 800 | 98.8 | 279 | 103.5 | 433 | 0.5 | 28.6 | 74.4 | 1012.0 |
| 2013-09-07T23:08 | 2 | 853 | 44.7 | 335 | 45.2 | 433 | 0.7 | 28.8 | 73.5 | 1012.0 |
| 2013-09-07T23:09 | 2 | 820 | 55.2 | 300 | 55.7 | 432 | 0.9 | 28.6 | 72.6 | 1012.0 |
| 2013-09-07T23:10 | 2 | 876 | 34.6 | 364 | 34.9 | 432 | 0.7 | 28.7 | 72.8 | 1012.0 |
| 2013-09-07T23:11 | 2 | 765 | 43.2 | 248 | 44.8 | 432 | 0.4 | 28.9 | 72.8 | 1012.0 |
| 2013-09-07T23:12 | 2 | 665 | 32.7 | 148 | 32.9 | 431 | 0.5 | 28.9 | 72.4 | 1012.0 |
| 2013-09-07T23:13 | 2 | 715 | 59.6 | 197 | 58.7 | 430 | 0.9 | 29.1 | 71.4 | 1012.0 |
| 2013-09-07T23:14 | 2 | 821 | 53.2 | 304 | 53.5 | 431 | 0.9 | 29.0 | 72.7 | 1012.0 |
| 2013-09-07T23:15 | 2 | 777 | 26.0 | 258 | 25.9 | 431 | 0.6 | 29.0 | 72.3 | 1012.0 |
| 2013-09-07T23:16 | 2 | 746 | 77.7 | 226 | 79.7 | 431 | 1.2 | 28.7 | 73.1 | 1012.0 |
| 2013-09-07T23:17 | 2 | 707 | 58.2 | 183 | 61.2 | 430 | 0.7 | 28.8 | 71.5 | 1012.0 |
| 2013-09-07T23:18 | 2 | 714 | 71.9 | 182 | 70.2 | 431 | 0.7 | 28.5 | 72.8 | 1012.0 |
| 2013-09-07T23:19 | 2 | 730 | 64.1 | 193 | 67.3 | 432 | 0.8 | 28.9 | 73.7 | 1012.0 |
| 2013-09-07T23:20 | 2 | 781 | 98.9 | 237 | 100.0 | 431 | 1.4 | 29.0 | 71.9 | 1012.0 |
| 2013-09-07T23:21 | 2 | 889 | 59.9 | 346 | 58.8 | 431 | 0.8 | 29.4 | 71.4 | 1012.0 |
| 2013-09-07T23:22 | 2 | 895 | 61.3 | 350 | 61.2 | 432 | 1.1 | 28.9 | 72.2 | 1012.0 |
| 2013-09-07T23:23 | 2 | 787 | 74.6 | 233 | 75.8 | 434 | 1.1 | 28.8 | 73.8 | 1012.0 |
| 2013-09-07T23:24 | 2 | 691 | 37.2 | 123 | 31.7 | 433 | 1.5 | 29.6 | 72.5 | 1012.0 |
| 2013-09-07T23:25 | 2 | 845 | 39.1 | 264 | 36.7 | 434 | 0.9 | 29.2 | 72.4 | 1012.0 |
| 2013-09-07T23:26 | 2 | 746 | 52.9 | 164 | 53.2 | 434 | 1.1 | 29.5 | 72.5 | 1012.0 |
| 2013-09-07T23:27 | 2 | 649 | 27.9 | 74 | 25.0 | 435 | 1.0 | 29.5 | 72.7 | 1012.0 |
| 2013-09-07T23:28 | 2 | 736 | 87.8 | 151 | 82.4 | 435 | 0.6 | 29.0 | 72.3 | 1012.0 |
| 2013-09-07T23:29 | 2 | 692 | 31.8 | 98 | 32.6 | 435 | 0.7 | 29.2 | 72.4 | 1012.0 |
| 2013-09-07T23:30 | 2 | 702 | 24.3 | 103 | 23.4 | 435 | 0.5 | 28.6 | 73.1 | 1012.0 |
| 2013-09-07T23:31 | 2 | 709 | 31.2 | 110 | 29.7 | 435 | 0.9 | 28.8 | 72.5 | 1012.0 |
| 2013-09-07T23:32 | 2 | 711 | 32.0 | 104 | 27.7 | 435 | 0.5 | 29.0 | 73.0 | 1012.0 |
| 2013-09-07T23:33 | 2 | 746 | 20.9 | 130 | 19.1 | 436 | 0.5 | 29.2 | 74.0 | 1012.0 |
| 2013-09-07T23:34 | 2 | 817 | 24.1 | 191 | 23.5 | 436 | 0.6 | 29.0 | 73.7 | 1012.0 |
| 2013-09-07T23:35 | 2 | 819 | 23.0 | 192 | 22.3 | 436 | 1.0 | 29.1 | 73.6 | 1012.0 |
| 2013-09-07T23:36 | 2 | 768 | 21.8 | 146 | 21.0 | 436 | 0.6 | 29.3 | 73.2 | 1012.0 |
| 2013-09-07T23:37 | 2 | 745 | 9.2 | 128 | 8.9 | 435 | 1.4 | 29.3 | 72.5 | 1012.0 |
| 2013-09-07T23:38 | 2 | 695 | 15.8 | 79 | 16.1 | 435 | 0.6 | 29.2 | 73.1 | 1012.0 |
| 2013-09-07T23:39 | 2 | 809 | 64.2 | 183 | 61.4 | 435 | 0.7 | 29.3 | 73.4 | 1012.0 |
| 2013-09-07T23:40 | 2 | 797 | 47.8 | 176 | 44.6 | 435 | 1.6 | 29.4 | 73.2 | 1012.0 |
| 2013-09-07T23:41 | 2 | 910 | 68.8 | 297 | 72.3 | 435 | 0.8 | 29.4 | 73.4 | 1012.0 |
| 2013-09-07T23:42 | 2 | 955 | 26.5 | 360 | 26.9 | 434 | 0.7 | 29.4 | 73.7 | 1012.0 |
| 2013-09-07T23:43 | 2 | 912 | 72.7 | 336 | 69.3 | 433 | 1.3 | 29.4 | 73.2 | 1012.0 |
| 2013-09-07T23:44 | 2 | 863 | 37.2 | 301 | 35.2 | 434 | 0.8 | 29.3 | 73.7 | 1012.0 |
| 2013-09-07T23:45 | 2 | 815 | 60.9 | 255 | 55.5 | 435 | 1.0 | 29.4 | 74.0 | 1012.0 |
| 2013-09-07T23:46 | 2 | 845 | 50.1 | 300 | 50.3 | 434 | 0.8 | 29.4 | 72.7 | 1012.0 |
| 2013-09-07T23:47 | 2 | 833 | 27.7 | 307 | 25.0 | 434 | 0.5 | 29.4 | 73.3 | 1012.0 |
| 2013-09-07T23:48 | 2 | 801 | 16.6 | 287 | 14.6 | 434 | 1.0 | 29.5 | 73.5 | 1012.0 |
| 2013-09-07T23:49 | 2 | 724 | 51.4 | 208 | 51.3 | 434 | 0.9 | 29.5 | 74.0 | 1012.0 |
| 2013-09-07T23:50 | 2 | 746 | 37.7 | 215 | 36.0 | 434 | 1.1 | 29.7 | 73.4 | 1012.0 |
| 2013-09-07T23:51 | 2 | 842 | 126.8 | 315 | 127.4 | 434 | 0.6 | 29.6 | 73.3 | 1012.0 |
| 2013-09-07T23:52 | 2 | 1010 | 17.6 | 498 | 21.1 | 434 | 1.0 | 29.7 | 75.1 | 1012.0 |
| 2013-09-07T23:53 | 2 | 1012 | 11.4 | 511 | 9.0 | 431 | 1.2 | 29.7 | 71.9 | 1012.0 |
| 2013-09-07T23:54 | 2 | 963 | 36.3 | 465 | 36.1 | 431 | 1.0 | 29.5 | 72.5 | 1012.0 |
| 2013-09-07T23:55 | 2 | 909 | 23.7 | 416 | 23.4 | 432 | 0.7 | 29.5 | 73.7 | 1012.0 |
| 2013-09-07T23:56 | 2 | 431 | 1.3 | 29.6 | 73.2 | 1012.0 | ||||
| 2013-09-07T23:57 | 2 | 431 | 0.8 | 29.6 | 73.0 | 1012.0 | ||||
| 2013-09-07T23:58 | 2 | 430 | 1.1 | 29.7 | 72.0 | 1012.0 |
Only the first 2000 rows were shown. To view the complete dataset, download it as tab-delimited text. You can still view the full matrix in your browser, but be aware that this may crash the browser due to the huge size.
